[[{"header":{"parameterUnit":"m.s-1","parameterCategory":1,"la1":31.0,"la2":29.5877,"lo1":-88.7671,"lo2":-86.6584,"dy":0.0162,"dx":0.0185,"nx":115,"ny":88,"refTime":"2023-10-10T12:00:00:Z","depth":0,"parameterNumber":2,"parameterNumberName":"U-component_of_WINDS"},"data":[0.0,0.0,0.0,0.0,0.0,0.0,0.0,0.0,0.0,0.0,0.0,0.0,0.0,0.0,0.0,0.0,0.0,0.0,0.0,0.0,0.0,0.0,0.0,0.0,0.0,0.0,0.0,0.0,0.0,0.0,0.0,0.0,0.0,0.0,0.0,0.0,0.0,0.0,0.0,0.0,0.0,0.0,0.0,0.0,0.0,0.0,0.0,0.0,0.0,0.0,0.0,0.0,0.0,0.0,0.0,0.0,0.0,0.0,0.0,0.0,0.0,0.0,0.0,0.0,0.0,0.0,0.0,0.0,0.0,0.0,0.0,0.0,0.0,0.0,0.0,0.0,0.0,0.0,0.0,0.0,0.0,0.0,0.0,0.0,0.0,0.0,0.0,0.0,0.0,0.0,0.0,0.0,0.0,0.0,0.0,0.0,0.0,0.0,0.0,0.0,0.0,0.0,0.0,0.0,0.0,0.0,0.0,0.0,0.0,0.0,0.0,0.0,0.0,0.0,0.0,0.0,0.0,0.0,0.0,0.0,0.0,0.0,0.0,0.0,0.0,0.0,0.0,0.0,0.0,0.0,0.0,0.0,0.0,0.0,0.0,0.0,0.0,0.0,0.0,0.0,0.0,0.0,0.0,0.0,0.0,0.0,0.0,0.0,0.0,0.0,0.0,0.0,0.0,0.0,0.0,0.0,0.0,0.0,0.0,0.0,0.0,0.0,0.0,0.0,0.0,0.0,0.0,0.0,0.0,0.0,0.0,0.0,0.0,0.0,0.0,0.0,0.0,0.0,0.0,0.0,0.0,0.0,0.0,0.0,0.0,0.0,0.0,0.0,0.0,0.0,0.0,0.0,0.0,0.0,0.0,0.0,0.0,0.0,0.0,0.0,0.0,0.0,0.0,0.0,0.0,0.0,0.0,0.0,0.0,0.0,0.0,0.0,0.0,0.0,0.0,0.0,0.0,0.0,0.0,0.0,0.0,0.0,0.0,0.0,0.0,0.0,0.0,0.0,0.0,0.0,0.0,0.0,0.0,0.0,0.0,0.0,0.0,0.0,0.0,0.0,0.0,0.0,0.0,0.0,0.0,0.0,0.0,0.0,0.0,0.0,0.0,0.0,0.0,0.0,0.0,0.0,0.0,0.0,0.0,0.0,0.0,0.0,0.0,0.0,0.0,0.0,0.0,0.0,0.0,0.0,0.0,0.0,0.0,0.0,0.0,0.0,0.0,0.0,0.0,0.0,0.0,0.0,0.0,0.0,0.0,0.0,0.0,0.0,0.0,0.0,0.0,0.0,0.0,0.0,0.0,0.0,0.0,0.0,0.0,0.0,0.0,0.0,0.0,0.0,0.0,0.0,0.0,0.0,0.0,0.0,0.0,0.0,0.0,0.0,0.0,0.0,0.0,0.0,0.0,0.0,0.0,0.0,0.0,0.0,0.0,0.0,0.0,0.0,0.0,0.0,0.0,0.0,0.0,0.0,0.0,0.0,0.0,0.0,0.0,0.0,0.0,0.0,0.0,0.0,0.0,0.0,0.0,0.0,0.0,0.0,0.0,0.0,0.0,0.0,0.0,0.0,0.0,0.0,0.0,0.0,0.0,0.0,0.0,0.0,0.0,0.0,0.0,0.0,0.0,0.0,0.0,0.0,0.0,0.0,0.0,0.0,0.0,0.0,0.0,0.0,0.0,0.0,0.0,0.0,0.0,0.0,0.0,0.0,0.0,0.0,0.0,0.0,0.0,0.0,0.0,0.0,0.0,0.0,0.0,0.0,0.0,0.0,0.0,0.0,0.0,0.0,0.0,0.0,0.0,0.0,0.0,0.0,0.0,0.0,0.0,0.0,0.0,0.0,0.0,0.0,0.0,0.0,0.0,0.0,0.0,0.0,0.0,0.0,0.0,0.0,0.0,0.0,0.0,0.0,0.0,0.0,0.0,0.0,0.0,0.0,0.0,0.0,0.0,0.0,0.0,0.0,0.0,0.0,0.0,0.0,0.0,0.0,0.0,0.0,0.0,0.0,0.0,0.0,0.0,0.0,0.0,0.0,0.0,0.0,0.0,0.0,0.0,0.0,0.0,0.0,0.0,0.0,0.0,0.0,0.0,0.0,0.0,0.0,0.0,0.0,0.0,0.0,0.0,0.0,0.0,0.0,0.0,0.0,0.0,0.0,0.0,0.0,0.0,0.0,0.0,0.0,0.0,0.0,0.0,0.0,0.0,0.0,0.0,0.0,0.0,0.0,0.0,0.0,0.0,0.0,0.0,0.0,0.0,0.0,0.0,0.0,0.0,0.0,0.0,0.0,0.0,0.0,0.0,0.0,0.0,0.0,0.0,0.0,0.0,0.0,0.0,0.0,0.0,0.0,0.0,0.0,0.0,0.0,0.0,0.0,0.0,0.0,0.0,0.0,0.0,0.0,0.0,0.0,0.0,0.0,0.0,0.0,0.0,0.0,0.0,0.0,0.0,0.0,0.0,0.0,0.0,0.0,0.0,0.0,0.0,0.0,0.0,0.0,0.0,0.0,0.0,0.0,0.0,0.0,0.0,0.0,0.0,0.0,0.0,0.0,0.0,0.0,0.0,0.0,0.0,0.0,0.0,0.0,0.0,0.0,0.0,0.0,0.0,0.0,0.0,0.0,0.0,0.0,0.0,0.0,0.0,0.0,0.0,0.0,0.0,0.0,0.0,0.0,0.0,0.0,0.0,0.0,0.0,0.0,0.0,0.0,0.0,0.0,0.0,0.0,0.0,0.0,0.0,0.0,0.0,0.0,0.0,0.0,0.0,0.0,0.0,0.0,0.0,0.0,0.0,0.0,0.0,0.0,0.0,0.0,0.0,0.0,0.0,0.0,0.0,0.0,0.0,0.0,0.0,0.0,0.0,0.0,0.0,0.0,0.0,0.0,0.0,0.0,0.0,0.0,0.0,0.0,0.0,0.0,0.0,0.0,0.0,0.0,0.0,0.0,0.0,0.0,0.0,0.0,0.0,0.0,0.0,0.0,0.0,0.0,0.0,0.0,0.0,0.0,0.0,0.0,0.0,0.0,0.0,0.0,0.0,0.0,0.0,0.0,0.0,0.0,0.0,0.0,0.0,0.0,0.0,0.0,0.0,0.0,0.0,0.0,0.0,0.0,0.0,0.0,0.0,0.0,0.0,0.0,0.0,0.0,0.0,0.0,0.0,0.0,0.0,0.0,0.0,0.0,0.0,0.0,0.0,0.0,0.0,0.0,0.0,0.0,0.0,0.0,0.0,0.0,0.0,0.0,0.0,0.0,0.0,0.0,0.0,0.0,0.0,0.0,0.0,0.0,0.0,0.0,0.0,0.0,0.0,0.0,0.0,0.0,0.0,0.0,0.0,0.0,0.0,0.0,0.0,0.0,0.0,0.0,0.0,0.0,0.0,0.0,0.0,0.0,0.0,0.0,0.0,0.0,0.0,0.0,0.0,0.0,0.0,0.0,0.0,0.0,0.0,0.0,0.0,0.0,0.0,0.0,0.0,0.0,0.0,0.0,0.0,0.0,0.0,0.0,0.0,0.0,0.0,0.0,0.0,0.0,0.0,0.0,0.0,0.0,0.0,0.0,0.0,0.0,0.0,0.0,0.0,0.0,0.0,0.0,0.0,0.0,0.0,0.0,0.0,0.0,0.0,0.0,0.0,0.0,0.0,0.0,0.0,0.0,0.0,0.0,0.0,0.0,0.0,0.0,0.0,0.0,0.0,0.0,0.0,0.0,0.0,0.0,0.0,0.0,0.0,0.0,0.0,0.0,0.0,0.0,0.0,0.0,0.0,0.0,0.0,0.0,0.0,0.0,0.0,0.0,0.0,0.0,0.0,0.0,0.0,0.0,0.0,0.0,0.0,0.0,0.0,0.0,0.0,0.0,0.0,0.0,0.0,0.0,0.0,0.0,0.0,0.0,0.0,0.0,0.0,0.0,0.0,0.0,0.0,0.0,0.0,0.0,0.0,0.0,0.0,0.0,0.0,0.0,0.0,0.0,0.0,0.0,0.0,0.0,0.0,0.0,0.0,0.0,0.0,0.0,0.0,0.0,0.0,0.0,0.0,0.0,0.0,0.0,0.0,0.0,0.0,0.0,0.0,0.0,0.0,0.0,0.0,0.0,0.0,0.0,0.0,0.0,0.0,0.0,0.0,0.0,0.0,0.0,0.0,0.0,0.0,0.0,0.0,0.0,0.0,0.0,0.0,0.0,0.0,0.0,0.0,0.0,0.0,0.0,0.0,0.0,0.0,0.0,0.0,0.0,0.0,0.0,4.0662,0.0,0.0,0.0,0.0,0.0,0.0,0.0,0.0,0.0,0.0,0.0,0.0,0.0,0.0,0.0,0.0,0.0,0.0,0.0,0.0,0.0,0.0,0.0,0.0,0.0,0.0,0.0,0.0,0.0,0.0,0.0,0.0,0.0,0.0,0.0,0.0,0.0,0.0,0.0,0.0,0.0,0.0,0.0,0.0,0.0,0.0,0.0,0.0,0.0,0.0,0.0,0.0,0.0,0.0,0.0,0.0,0.0,0.0,0.0,0.0,0.0,0.0,0.0,0.0,0.0,0.0,0.0,0.0,0.0,0.0,0.0,0.0,0.0,0.0,0.0,0.0,0.0,0.0,0.0,0.0,0.0,0.0,0.0,0.0,0.0,0.0,0.0,0.0,0.0,0.0,0.0,0.0,0.0,0.0,0.0,0.0,0.0,0.0,0.0,0.0,0.0,0.0,0.0,0.0,0.0,0.0,0.0,0.0,0.0,0.0,4.3479,4.2783,4.2466,4.1929,4.1002,0.0,0.0,0.0,0.0,0.0,0.0,0.0,0.0,0.0,0.0,0.0,0.0,0.0,0.0,0.0,0.0,0.0,0.0,0.0,0.0,0.0,0.0,0.0,0.0,0.0,0.0,0.0,0.0,0.0,0.0,0.0,0.0,0.0,0.0,0.0,0.0,0.0,0.0,0.0,0.0,0.0,0.0,0.0,0.0,0.0,0.0,0.0,0.0,0.0,0.0,0.0,0.0,0.0,0.0,0.0,0.0,0.0,0.0,0.0,0.0,0.0,0.0,0.0,0.0,0.0,0.0,0.0,0.0,0.0,0.0,0.0,0.0,0.0,0.0,0.0,0.0,0.0,0.0,0.0,0.0,0.0,0.0,0.0,0.0,0.0,0.0,0.0,0.0,0.0,0.0,0.0,0.0,0.0,0.0,0.0,0.0,0.0,0.0,0.0,0.0,0.0,0.0,0.0,0.0,0.0,0.0,0.0,0.0,0.0,0.0,0.0,0.0,4.2575,4.1956,4.1315,0.0,0.0,0.0,0.0,0.0,0.0,0.0,0.0,0.0,0.0,0.0,0.0,0.0,0.0,0.0,0.0,0.0,0.0,0.0,0.0,0.0,0.0,0.0,0.0,0.0,0.0,0.0,0.0,0.0,0.0,0.0,0.0,0.0,0.0,0.0,0.0,0.0,0.0,0.0,0.0,0.0,0.0,0.0,0.0,0.0,0.0,0.0,0.0,0.0,0.0,0.0,0.0,0.0,0.0,0.0,0.0,0.0,0.0,0.0,0.0,0.0,0.0,0.0,0.0,0.0,0.0,0.0,0.0,0.0,0.0,0.0,0.0,0.0,0.0,0.0,0.0,0.0,0.0,0.0,0.0,0.0,0.0,0.0,0.0,0.0,0.0,0.0,0.0,0.0,0.0,0.0,0.0,0.0,0.0,0.0,0.0,0.0,0.0,0.0,0.0,0.0,0.0,0.0,0.0,0.0,0.0,0.0,0.0,0.0,0.0,4.423,4.3991,4.2887,0.0,4.1315,0.0,0.0,0.0,0.0,0.0,0.0,0.0,0.0,0.0,0.0,0.0,0.0,0.0,0.0,0.0,0.0,0.0,0.0,0.0,0.0,0.0,0.0,0.0,0.0,0.0,0.0,0.0,0.0,0.0,0.0,0.0,0.0,0.0,0.0,0.0,0.0,0.0,0.0,0.0,0.0,0.0,0.0,0.0,0.0,0.0,0.0,0.0,0.0,0.0,0.0,0.0,0.0,0.0,0.0,0.0,0.0,0.0,0.0,0.0,0.0,0.0,0.0,0.0,0.0,0.0,0.0,0.0,0.0,0.0,0.0,0.0,0.0,0.0,0.0,0.0,0.0,0.0,0.0,0.0,0.0,0.0,0.0,0.0,0.0,0.0,0.0,0.0,0.0,0.0,0.0,0.0,0.0,0.0,0.0,0.0,0.0,0.0,0.0,0.0,0.0,0.0,0.0,0.0,0.0,0.0,0.0,0.0,0.0,0.0,0.0,4.449,4.4102,4.2504,4.1572,0.0,0.0,0.0,0.0,0.0,0.0,0.0,0.0,0.0,0.0,0.0,0.0,0.0,0.0,0.0,0.0,0.0,0.0,0.0,0.0,0.0,0.0,0.0,0.0,0.0,0.0,0.0,0.0,0.0,0.0,0.0,0.0,0.0,0.0,0.0,0.0,0.0,0.0,0.0,0.0,0.0,0.0,0.0,0.0,0.0,0.0,0.0,0.0,0.0,0.0,0.0,0.0,0.0,0.0,0.0,0.0,0.0,0.0,0.0,0.0,0.0,0.0,0.0,0.0,0.0,0.0,0.0,0.0,0.0,0.0,0.0,0.0,0.0,0.0,0.0,0.0,0.0,0.0,0.0,0.0,0.0,0.0,0.0,0.0,0.0,0.0,0.0,0.0,0.0,0.0,0.0,0.0,0.0,0.0,0.0,0.0,0.0,0.0,0.0,0.0,0.0,0.0,0.0,0.0,0.0,0.0,0.0,0.0,0.0,0.0,4.5437,4.4872,4.391,4.2184,4.1315,4.1315,0.0,0.0,0.0,0.0,0.0,0.0,0.0,0.0,0.0,0.0,0.0,0.0,0.0,0.0,0.0,0.0,0.0,0.0,0.0,0.0,0.0,0.0,0.0,0.0,0.0,0.0,0.0,0.0,0.0,0.0,0.0,0.0,0.0,0.0,0.0,0.0,0.0,0.0,0.0,0.0,0.0,0.0,0.0,0.0,0.0,0.0,0.0,0.0,0.0,0.0,0.0,0.0,0.0,0.0,0.0,0.0,0.0,0.0,0.0,0.0,0.0,0.0,0.0,0.0,0.0,0.0,0.0,0.0,0.0,0.0,0.0,0.0,0.0,0.0,0.0,0.0,0.0,0.0,0.0,0.0,0.0,0.0,0.0,0.0,0.0,0.0,0.0,0.0,0.0,0.0,0.0,0.0,0.0,0.0,0.0,0.0,0.0,0.0,0.0,0.0,0.0,0.0,0.0,0.0,0.0,0.0,0.0,0.0,4.6358,4.622,4.5332,4.37,4.2165,4.1315,0.0,0.0,0.0,0.0,0.0,0.0,0.0,0.0,0.0,0.0,0.0,0.0,0.0,0.0,0.0,0.0,0.0,0.0,0.0,0.0,0.0,0.0,0.0,0.0,0.0,0.0,0.0,0.0,0.0,0.0,0.0,0.0,0.0,0.0,0.0,0.0,0.0,0.0,0.0,0.0,0.0,0.0,0.0,0.0,0.0,0.0,0.0,0.0,0.0,0.0,0.0,0.0,0.0,0.0,0.0,0.0,0.0,0.0,0.0,0.0,0.0,0.0,0.0,0.0,0.0,0.0,0.0,0.0,0.0,0.0,0.0,0.0,0.0,0.0,0.0,0.0,0.0,0.0,0.0,0.0,0.0,0.0,0.0,0.0,0.0,0.0,0.0,0.0,0.0,0.0,0.0,0.0,0.0,0.0,0.0,0.0,0.0,0.0,0.0,0.0,0.0,0.0,0.0,0.0,0.0,0.0,0.0,0.0,0.0,4.6741,4.6201,4.539,4.4472,4.3003,4.2122,0.0,0.0,0.0,0.0,0.0,0.0,0.0,0.0,0.0,0.0,0.0,0.0,0.0,0.0,0.0,0.0,0.0,0.0,0.0,0.0,0.0,0.0,0.0,0.0,0.0,0.0,0.0,0.0,0.0,0.0,0.0,0.0,0.0,0.0,0.0,0.0,0.0,0.0,0.0,0.0,0.0,0.0,0.0,0.0,0.0,0.0,0.0,0.0,0.0,0.0,0.0,0.0,0.0,0.0,0.0,0.0,0.0,0.0,0.0,0.0,0.0,0.0,0.0,0.0,0.0,0.0,0.0,0.0,0.0,0.0,0.0,0.0,0.0,0.0,0.0,0.0,0.0,0.0,0.0,0.0,0.0,0.0,0.0,0.0,0.0,0.0,0.0,0.0,0.0,0.0,0.0,0.0,0.0,0.0,0.0,0.0,0.0,0.0,0.0,0.0,0.0,0.0,0.0,0.0,0.0,0.0,0.0,0.0,0.0,4.7074,0.0,4.5512,4.5118,4.3615,4.2615,0.0,0.0,0.0,0.0,0.0,0.0,0.0,0.0,0.0,0.0,0.0,0.0,0.0,0.0,0.0,0.0,0.0,0.0,0.0,0.0,0.0,0.0,0.0,0.0,0.0,0.0,0.0,0.0,0.0,0.0,0.0,0.0,0.0,0.0,0.0,0.0,0.0,0.0,0.0,0.0,0.0,0.0,0.0,0.0,0.0,0.0,0.0,0.0,0.0,0.0,0.0,0.0,0.0,0.0,0.0,0.0,0.0,0.0,0.0,0.0,0.0,0.0,0.0,0.0,0.0,0.0,0.0,0.0,0.0,0.0,0.0,0.0,0.0,0.0,0.0,0.0,0.0,0.0,0.0,0.0,0.0,0.0,0.0,0.0,0.0,0.0,0.0,0.0,0.0,0.0,0.0,0.0,0.0,0.0,0.0,0.0,0.0,0.0,0.0,0.0,0.0,0.0,0.0,0.0,0.0,0.0,0.0,0.0,4.6788,4.7455,4.6381,4.5861,4.57,4.3956,4.2839,0.0,0.0,0.0,0.0,0.0,0.0,0.0,0.0,0.0,0.0,0.0,0.0,0.0,0.0,0.0,0.0,0.0,0.0,0.0,0.0,0.0,0.0,0.0,0.0,0.0,0.0,0.0,0.0,0.0,0.0,0.0,0.0,0.0,0.0,0.0,0.0,0.0,0.0,0.0,0.0,0.0,0.0,0.0,0.0,0.0,0.0,0.0,0.0,0.0,0.0,0.0,0.0,0.0,0.0,0.0,0.0,0.0,0.0,0.0,0.0,0.0,0.0,0.0,0.0,0.0,0.0,0.0,0.0,0.0,0.0,0.0,0.0,0.0,0.0,0.0,0.0,0.0,0.0,0.0,0.0,0.0,0.0,0.0,0.0,0.0,0.0,0.0,0.0,0.0,0.0,0.0,0.0,0.0,0.0,0.0,0.0,0.0,0.0,0.0,0.0,0.0,0.0,0.0,0.0,0.0,0.0,0.0,0.0,0.0,4.805,4.7838,4.7572,4.7252,4.5943,4.4774,0.0,0.0,0.0,0.0,0.0,0.0,0.0,0.0,0.0,0.0,0.0,0.0,0.0,0.0,0.0,0.0,0.0,0.0,0.0,0.0,0.0,0.0,0.0,0.0,0.0,0.0,0.0,0.0,0.0,0.0,0.0,0.0,0.0,0.0,0.0,0.0,0.0,0.0,0.0,0.0,0.0,0.0,0.0,0.0,0.0,0.0,0.0,0.0,0.0,0.0,0.0,0.0,0.0,0.0,0.0,0.0,0.0,0.0,0.0,0.0,0.0,0.0,0.0,0.0,0.0,0.0,0.0,0.0,0.0,0.0,0.0,0.0,0.0,0.0,0.0,0.0,0.0,0.0,0.0,0.0,0.0,0.0,0.0,0.0,0.0,0.0,0.0,0.0,0.0,0.0,0.0,0.0,0.0,0.0,0.0,0.0,0.0,0.0,0.0,0.0,0.0,0.0,0.0,0.0,0.0,0.0,0.0,0.0,0.0,4.9493,4.8913,4.8613,4.8568,4.7293,4.61,4.4913,0.0,0.0,0.0,0.0,0.0,0.0,0.0,0.0,0.0,0.0,0.0,0.0,0.0,0.0,0.0,0.0,0.0,0.0,0.0,0.0,0.0,0.0,0.0,0.0,0.0,0.0,0.0,0.0,0.0,0.0,0.0,0.0,0.0,0.0,0.0,0.0,0.0,0.0,0.0,0.0,0.0,0.0,0.0,0.0,0.0,0.0,0.0,0.0,0.0,0.0,0.0,0.0,0.0,0.0,0.0,0.0,0.0,0.0,0.0,0.0,0.0,0.0,0.0,0.0,0.0,0.0,0.0,0.0,0.0,0.0,0.0,0.0,0.0,0.0,0.0,0.0,0.0,0.0,0.0,0.0,0.0,0.0,0.0,0.0,0.0,0.0,0.0,0.0,0.0,0.0,0.0,0.0,0.0,0.0,0.0,0.0,0.0,0.0,0.0,0.0,0.0,0.0,0.0,0.0,0.0,0.0,0.0,0.0,5.161,4.9866,4.9226,4.9578,4.8246,4.6949,0.0,0.0,0.0,0.0,0.0,0.0,0.0,0.0,0.0,0.0,0.0,0.0,0.0,0.0,0.0,0.0,0.0,0.0,0.0,0.0,0.0,0.0,0.0,0.0,0.0,0.0,0.0,0.0,0.0,0.0,0.0,0.0,0.0,0.0,0.0,0.0,0.0,0.0,0.0,0.0,0.0,0.0,0.0,0.0,0.0,0.0,0.0,0.0,0.0,0.0,0.0,0.0,0.0,0.0,0.0,0.0,0.0,0.0,0.0,0.0,0.0,0.0,0.0,0.0,0.0,0.0,0.0,0.0,0.0,0.0,0.0,0.0,0.0,0.0,0.0,0.0,0.0,0.0,0.0,0.0,0.0,0.0,0.0,0.0,0.0,0.0,0.0,0.0,0.0,0.0,0.0,0.0,0.0,0.0,0.0,0.0,0.0,0.0,0.0,0.0,0.0,0.0,0.0,0.0,0.0,0.0,0.0,0.0,0.0,5.2702,5.2368,5.1859,5.1174,5.0299,4.8951,0.0,0.0,0.0,0.0,0.0,0.0,0.0,0.0,0.0,0.0,0.0,0.0,0.0,0.0,0.0,0.0,0.0,0.0,0.0,0.0,0.0,0.0,0.0,0.0,0.0,0.0,0.0,0.0,0.0,0.0,0.0,0.0,0.0,0.0,0.0,0.0,0.0,0.0,0.0,0.0,0.0,0.0,0.0,0.0,0.0,0.0,0.0,0.0,0.0,0.0,0.0,0.0,0.0,0.0,0.0,0.0,0.0,0.0,0.0,0.0,0.0,0.0,0.0,0.0,0.0,0.0,0.0,0.0,0.0,0.0,0.0,0.0,0.0,0.0,0.0,0.0,0.0,0.0,0.0,0.0,0.0,0.0,0.0,0.0,0.0,0.0,0.0,0.0,0.0,0.0,0.0,0.0,0.0,0.0,0.0,0.0,0.0,0.0,0.0,0.0,0.0,0.0,0.0,0.0,0.0,0.0,0.0,0.0,5.3261,5.4141,5.4587,5.4288,5.3162,5.1819,5.0143,0.0,0.0,0.0,0.0,0.0,0.0,0.0,0.0,0.0,0.0,0.0,0.0,0.0,0.0,0.0,0.0,0.0,0.0,0.0,0.0,0.0,0.0,0.0,0.0,0.0,0.0,0.0,0.0,0.0,0.0,0.0,0.0,0.0,0.0,0.0,0.0,0.0,0.0,0.0,0.0,0.0,0.0,0.0,0.0,0.0,0.0,0.0,0.0,0.0,0.0,0.0,0.0,0.0,0.0,0.0,0.0,0.0,0.0,0.0,0.0,0.0,0.0,0.0,0.0,0.0,0.0,0.0,0.0,0.0,0.0,0.0,0.0,0.0,0.0,0.0,0.0,0.0,0.0,0.0,0.0,0.0,0.0,0.0,0.0,0.0,0.0,0.0,0.0,0.0,0.0,0.0,0.0,0.0,0.0,0.0,0.0,0.0,0.0,0.0,0.0,0.0,0.0,0.0,0.0,0.0,0.0,0.0,0.0,5.5081,5.5581,5.63,5.6115,5.5031,5.3017,5.1041,0.0,0.0,0.0,0.0,0.0,0.0,0.0,0.0,0.0,0.0,0.0,0.0,0.0,0.0,0.0,0.0,0.0,0.0,0.0,0.0,0.0,0.0,0.0,0.0,0.0,0.0,0.0,0.0,0.0,0.0,0.0,0.0,0.0,0.0,0.0,0.0,0.0,0.0,0.0,0.0,0.0,0.0,0.0,0.0,0.0,0.0,0.0,0.0,0.0,0.0,0.0,0.0,0.0,0.0,0.0,0.0,0.0,0.0,0.0,0.0,0.0,0.0,0.0,0.0,0.0,0.0,0.0,0.0,0.0,0.0,0.0,0.0,0.0,0.0,0.0,0.0,0.0,0.0,0.0,0.0,0.0,0.0,0.0,0.0,0.0,0.0,0.0,0.0,0.0,0.0,0.0,0.0,0.0,0.0,0.0,0.0,0.0,0.0,0.0,0.0,0.0,0.0,0.0,0.0,0.0,0.0,0.0,0.0,5.6025,5.63,5.7172,5.675,5.4738,5.4171,5.2947,0.0,0.0,0.0,0.0,0.0,0.0,0.0,0.0,0.0,0.0,0.0,0.0,0.0,0.0,0.0,0.0,0.0,0.0,0.0,0.0,0.0,0.0,0.0,0.0,0.0,0.0,0.0,0.0,0.0,0.0,0.0,0.0,0.0,0.0,0.0,0.0,0.0,0.0,0.0,0.0,0.0,0.0,0.0,0.0,0.0,0.0,0.0,0.0,4.5318,0.0,0.0,0.0,0.0,0.0,0.0,0.0,0.0,0.0,0.0,0.0,0.0,0.0,0.0,0.0,0.0,0.0,0.0,0.0,0.0,0.0,0.0,0.0,0.0,0.0,0.0,0.0,0.0,0.0,0.0,0.0,0.0,0.0,0.0,0.0,0.0,0.0,0.0,0.0,0.0,0.0,0.0,0.0,0.0,0.0,0.0,0.0,0.0,0.0,0.0,0.0,0.0,0.0,0.0,0.0,0.0,0.0,0.0,0.0,5.7615,5.7595,5.8583,5.8148,5.6056,5.5744,5.4201,0.0,0.0,0.0,0.0,0.0,0.0,0.0,0.0,0.0,0.0,0.0,0.0,0.0,0.0,0.0,0.0,0.0,0.0,0.0,0.0,0.0,0.0,0.0,0.0,0.0,0.0,0.0,0.0,0.0,0.0,0.0,0.0,0.0,0.0,0.0,0.0,0.0,0.0,0.0,0.0,0.0,0.0,0.0,0.0,0.0,0.0,0.0,0.0,0.0,0.0,0.0,0.0,0.0,0.0,0.0,0.0,0.0,0.0,0.0,0.0,0.0,0.0,0.0,0.0,0.0,0.0,0.0,0.0,0.0,0.0,0.0,0.0,0.0,0.0,0.0,0.0,0.0,0.0,0.0,0.0,0.0,0.0,0.0,0.0,0.0,0.0,0.0,0.0,0.0,0.0,0.0,0.0,0.0,0.0,0.0,0.0,0.0,0.0,0.0,0.0,0.0,0.0,0.0,0.0,0.0,0.0,0.0,5.8434,5.9475,5.9194,6.0007,5.9593,5.7671,5.7223,5.5313,5.1615,0.0,0.0,0.0,0.0,0.0,0.0,0.0,0.0,0.0,0.0,0.0,0.0,0.0,0.0,0.0,0.0,0.0,0.0,0.0,0.0,0.0,0.0,0.0,0.0,0.0,0.0,0.0,0.0,0.0,0.0,0.0,0.0,0.0,0.0,0.0,0.0,0.0,0.0,4.3472,4.4642,0.0,0.0,0.0,0.0,0.0,0.0,0.0,0.0,4.925,0.0,0.0,0.0,0.0,0.0,0.0,0.0,0.0,0.0,0.0,0.0,0.0,0.0,0.0,0.0,0.0,0.0,0.0,0.0,0.0,0.0,0.0,0.0,0.0,0.0,0.0,0.0,0.0,0.0,0.0,0.0,0.0,0.0,0.0,0.0,0.0,0.0,0.0,0.0,0.0,0.0,0.0,0.0,0.0,0.0,0.0,0.0,0.0,0.0,0.0,0.0,0.0,0.0,0.0,0.0,0.0,5.8295,5.9915,6.075,6.0746,6.0836,6.0068,5.83,5.8113,5.6407,5.307,0.0,0.0,0.0,0.0,0.0,0.0,0.0,0.0,0.0,0.0,0.0,0.0,0.0,0.0,0.0,0.0,0.0,0.0,0.0,0.0,0.0,0.0,0.0,0.0,0.0,0.0,0.0,0.0,0.0,0.0,0.0,0.0,0.0,0.0,0.0,0.0,0.0,0.0,0.0,4.6485,4.7098,0.0,0.0,0.0,0.0,0.0,0.0,0.0,0.0,4.867,0.0,0.0,0.0,0.0,0.0,0.0,0.0,0.0,0.0,0.0,0.0,0.0,0.0,0.0,0.0,0.0,0.0,0.0,0.0,0.0,0.0,0.0,0.0,0.0,0.0,0.0,0.0,0.0,0.0,0.0,0.0,0.0,0.0,0.0,0.0,0.0,0.0,0.0,0.0,0.0,0.0,0.0,0.0,0.0,0.0,0.0,0.0,0.0,0.0,0.0,0.0,0.0,0.0,0.0,0.0,6.0217,6.1296,6.1847,6.1921,6.1671,6.0796,5.9419,5.8688,5.6972,0.0,0.0,0.0,0.0,0.0,0.0,0.0,0.0,0.0,0.0,0.0,0.0,0.0,0.0,0.0,0.0,0.0,0.0,0.0,0.0,0.0,0.0,0.0,0.0,0.0,0.0,0.0,0.0,0.0,0.0,0.0,0.0,0.0,0.0,0.0,0.0,0.0,0.0,0.0,0.0,4.7381,4.806,4.8174,0.0,0.0,0.0,0.0,0.0,0.0,5.078,5.0327,0.0,0.0,0.0,0.0,0.0,0.0,0.0,0.0,0.0,0.0,0.0,0.0,0.0,0.0,0.0,0.0,0.0,0.0,0.0,0.0,0.0,0.0,0.0,0.0,0.0,0.0,0.0,0.0,0.0,0.0,0.0,0.0,0.0,0.0,0.0,0.0,0.0,0.0,0.0,0.0,0.0,0.0,0.0,0.0,0.0,0.0,0.0,0.0,0.0,0.0,0.0,0.0,0.0,0.0,0.0,6.2047,6.2814,6.3083,6.3143,6.2548,6.1745,6.0808,5.9301,5.7355,0.0,0.0,0.0,0.0,0.0,0.0,0.0,0.0,0.0,0.0,0.0,0.0,0.0,0.0,0.0,0.0,0.0,0.0,0.0,0.0,0.0,0.0,0.0,0.0,0.0,0.0,0.0,0.0,0.0,0.0,0.0,0.0,0.0,0.0,0.0,0.0,0.0,0.0,0.0,0.0,0.0,4.8956,4.8848,4.9826,0.0,0.0,0.0,0.0,5.2166,5.2044,0.0,0.0,0.0,0.0,0.0,0.0,0.0,0.0,0.0,0.0,0.0,0.0,0.0,0.0,0.0,0.0,0.0,0.0,0.0,0.0,0.0,0.0,0.0,0.0,0.0,0.0,0.0,0.0,0.0,0.0,0.0,0.0,0.0,0.0,0.0,0.0,0.0,0.0,0.0,0.0,0.0,0.0,0.0,0.0,0.0,0.0,0.0,0.0,0.0,0.0,0.0,0.0,0.0,0.0,0.0,0.0,6.3065,6.4212,6.4695,6.4695,6.3765,6.2788,6.1839,5.9913,5.7729,0.0,0.0,0.0,0.0,0.0,0.0,0.0,0.0,0.0,0.0,0.0,0.0,0.0,0.0,0.0,0.0,0.0,0.0,0.0,0.0,0.0,0.0,0.0,0.0,0.0,0.0,0.0,0.0,0.0,0.0,0.0,0.0,0.0,0.0,0.0,0.0,0.0,0.0,0.0,0.0,0.0,4.9778,5.0314,5.0902,5.1343,0.0,0.0,5.1968,5.1895,5.1307,0.0,0.0,0.0,0.0,0.0,0.0,0.0,0.0,0.0,0.0,0.0,0.0,0.0,0.0,0.0,0.0,0.0,0.0,0.0,0.0,0.0,0.0,0.0,0.0,0.0,0.0,0.0,0.0,0.0,0.0,0.0,0.0,0.0,0.0,0.0,0.0,0.0,0.0,0.0,0.0,0.0,0.0,0.0,0.0,0.0,0.0,0.0,0.0,0.0,0.0,0.0,0.0,0.0,0.0,0.0,6.1746,6.4986,6.502,6.5306,6.587,6.4261,6.3228,6.2824,6.0506,5.8364,0.0,0.0,0.0,0.0,0.0,0.0,0.0,0.0,0.0,0.0,0.0,0.0,0.0,0.0,0.0,0.0,0.0,0.0,0.0,0.0,0.0,0.0,0.0,0.0,0.0,0.0,0.0,0.0,0.0,0.0,0.0,0.0,0.0,0.0,0.0,0.0,0.0,0.0,0.0,0.0,0.0,0.0,5.1096,5.1854,0.0,0.0,0.0,5.3219,5.2999,0.0,0.0,0.0,0.0,0.0,0.0,0.0,0.0,0.0,0.0,0.0,0.0,0.0,0.0,0.0,0.0,0.0,0.0,0.0,0.0,0.0,0.0,0.0,0.0,0.0,0.0,0.0,0.0,0.0,0.0,0.0,0.0,0.0,0.0,0.0,0.0,0.0,0.0,0.0,0.0,0.0,0.0,0.0,0.0,0.0,0.0,0.0,0.0,0.0,0.0,0.0,0.0,0.0,0.0,0.0,0.0,0.0,6.6337,6.6062,6.6151,6.6898,6.5074,6.4034,6.381,6.1281,0.0,0.0,0.0,0.0,0.0,0.0,0.0,0.0,0.0,0.0,0.0,0.0,0.0,0.0,0.0,0.0,0.0,0.0,0.0,0.0,0.0,0.0,0.0,0.0,0.0,0.0,0.0,4.8945,0.0,0.0,0.0,0.0,0.0,0.0,0.0,0.0,0.0,0.0,0.0,0.0,0.0,0.0,5.0791,5.2003,5.266,5.3182,0.0,0.0,5.4246,5.3952,5.3439,5.2815,0.0,0.0,0.0,0.0,0.0,0.0,0.0,0.0,0.0,0.0,0.0,0.0,0.0,0.0,0.0,0.0,0.0,0.0,0.0,0.0,0.0,0.0,0.0,0.0,0.0,0.0,0.0,0.0,0.0,0.0,0.0,0.0,0.0,0.0,0.0,0.0,0.0,0.0,0.0,0.0,0.0,0.0,0.0,0.0,0.0,0.0,0.0,0.0,0.0,0.0,0.0,0.0,0.0,0.0,0.0,6.6393,6.7478,6.7831,6.7893,6.6735,6.5737,6.474,6.2284,6.0011,0.0,0.0,0.0,0.0,0.0,0.0,0.0,0.0,0.0,0.0,0.0,0.0,0.0,0.0,0.0,0.0,0.0,0.0,0.0,0.0,0.0,0.0,0.0,0.0,0.0,0.0,0.0,0.0,0.0,0.0,0.0,0.0,0.0,0.0,0.0,0.0,0.0,0.0,0.0,0.0,0.0,5.1412,5.3535,5.3399,5.3402,0.0,0.0,5.4319,5.4283,5.3622,5.3072,5.2999,0.0,0.0,0.0,0.0,0.0,0.0,0.0,0.0,0.0,0.0,0.0,0.0,0.0,0.0,0.0,0.0,0.0,0.0,0.0,0.0,0.0,0.0,0.0,0.0,0.0,0.0,0.0,0.0,0.0,0.0,0.0,0.0,0.0,0.0,0.0,0.0,0.0,0.0,0.0,0.0,0.0,0.0,0.0,0.0,0.0,0.0,0.0,0.0,0.0,0.0,0.0,0.0,0.0,6.4784,6.7866,6.8029,6.8187,6.8396,6.7098,6.6185,6.5827,6.2979,6.0991,0.0,0.0,0.0,0.0,0.0,0.0,0.0,0.0,0.0,0.0,0.0,0.0,0.0,0.0,0.0,0.0,0.0,0.0,0.0,0.0,0.0,0.0,0.0,0.0,0.0,0.0,0.0,0.0,5.5195,5.5547,5.5469,0.0,0.0,0.0,0.0,0.0,0.0,0.0,0.0,0.0,0.0,5.2369,5.3796,5.41,0.0,0.0,5.4906,5.4979,5.4723,5.4429,5.4062,5.3586,5.2449,0.0,0.0,0.0,0.0,0.0,0.0,0.0,0.0,0.0,0.0,0.0,0.0,0.0,0.0,0.0,0.0,0.0,0.0,0.0,0.0,0.0,0.0,0.0,0.0,0.0,0.0,0.0,0.0,0.0,0.0,0.0,0.0,0.0,0.0,0.0,0.0,0.0,0.0,0.0,0.0,0.0,0.0,0.0,0.0,0.0,0.0,0.0,0.0,0.0,0.0,0.0,0.0,6.5557,6.8848,6.8707,6.8907,6.9212,6.7902,6.7126,6.6813,6.4064,6.2227,0.0,0.0,0.0,0.0,0.0,0.0,0.0,0.0,0.0,0.0,0.0,0.0,0.0,0.0,0.0,0.0,0.0,0.0,0.0,0.0,0.0,0.0,0.0,0.0,0.0,0.0,0.0,0.0,5.6914,5.704,5.6348,0.0,0.0,0.0,0.0,0.0,0.0,0.0,0.0,0.0,0.0,5.3437,5.4391,5.4838,5.5163,5.5273,5.564,5.5672,5.5265,5.5233,5.4976,5.4315,0.0,0.0,0.0,0.0,0.0,0.0,0.0,0.0,0.0,0.0,0.0,0.0,0.0,0.0,0.0,0.0,0.0,0.0,0.0,0.0,0.0,0.0,0.0,0.0,0.0,0.0,0.0,6.0275,0.0,0.0,5.739,0.0,0.0,0.0,0.0,0.0,0.0,0.0,0.0,0.0,0.0,0.0,0.0,0.0,0.0,0.0,0.0,0.0,0.0,0.0,0.0,0.0,0.0,6.6247,6.8823,6.9799,7.023,7.0259,6.9545,6.8739,6.7888,6.567,6.374,6.2378,0.0,0.0,0.0,0.0,0.0,0.0,0.0,0.0,0.0,0.0,0.0,0.0,0.0,0.0,0.0,0.0,0.0,0.0,0.0,0.0,0.0,0.0,0.0,0.0,0.0,0.0,5.8242,5.8867,5.8528,0.0,0.0,0.0,0.0,0.0,0.0,0.0,0.0,0.0,0.0,5.4358,5.4689,5.5656,5.5613,5.5562,5.608,5.6446,5.647,5.5851,5.6026,5.5886,0.0,0.0,0.0,0.0,0.0,0.0,0.0,0.0,0.0,0.0,0.0,0.0,0.0,0.0,0.0,0.0,0.0,0.0,0.0,0.0,0.0,0.0,0.0,0.0,0.0,0.0,0.0,6.3839,6.2873,0.0,0.0,0.0,0.0,0.0,0.0,0.0,0.0,0.0,0.0,0.0,5.9947,5.9947,0.0,0.0,0.0,0.0,0.0,0.0,0.0,0.0,0.0,0.0,0.0,0.0,6.7713,7.0252,7.0634,7.0838,7.081,6.9771,6.9143,6.8829,6.6364,6.3818,6.1254,0.0,0.0,0.0,0.0,0.0,0.0,0.0,0.0,0.0,0.0,0.0,0.0,0.0,0.0,0.0,0.0,0.0,0.0,0.0,0.0,0.0,0.0,0.0,0.0,0.0,5.7905,0.0,0.0,0.0,0.0,0.0,0.0,0.0,0.0,0.0,0.0,0.0,5.5058,5.4912,5.546,5.6011,5.6129,5.5849,5.5794,0.0,0.0,0.0,0.0,0.0,0.0,0.0,0.0,0.0,0.0,0.0,0.0,0.0,0.0,5.0688,4.9651,4.9329,4.9329,4.9615,0.0,0.0,0.0,0.0,0.0,0.0,0.0,0.0,0.0,0.0,0.0,0.0,0.0,0.0,6.6526,6.5802,6.5195,0.0,0.0,0.0,0.0,0.0,0.0,0.0,0.0,6.2933,6.2597,6.2762,6.2762,6.2762,0.0,6.2762,6.1959,0.0,0.0,0.0,0.0,0.0,0.0,0.0,0.0,6.9034,7.1234,7.1713,7.1758,7.1542,7.0809,7.0064,6.9488,6.6797,6.4233,6.1624,5.974,5.8198,0.0,0.0,0.0,0.0,0.0,0.0,0.0,0.0,0.0,0.0,0.0,0.0,0.0,0.0,0.0,0.0,0.0,0.0,0.0,0.0,0.0,0.0,0.0,5.9007,0.0,0.0,0.0,0.0,0.0,0.0,0.0,0.0,0.0,5.5566,5.6336,5.6813,5.6263,5.6653,5.6828,5.6317,0.0,0.0,0.0,0.0,0.0,0.0,0.0,5.5565,5.5327,5.5128,5.4928,5.4787,5.4362,5.3937,5.3344,0.0,0.0,5.1212,5.0823,5.0787,5.1071,5.1212,5.1283,5.1141,5.1106,5.1106,0.0,0.0,0.0,0.0,0.0,0.0,0.0,0.0,6.9571,6.9368,0.0,6.835,0.0,0.0,0.0,0.0,6.5618,6.539,0.0,0.0,6.5439,6.5081,6.5495,6.5536,6.5536,6.5536,6.5495,6.5837,6.6197,6.4265,0.0,0.0,0.0,0.0,0.0,0.0,7.0285,7.1866,7.283,7.3005,7.2452,7.2235,7.1451,6.9849,6.7267,6.5102,6.3425,6.1826,6.0356,5.9068,5.7084,0.0,0.0,0.0,0.0,0.0,0.0,0.0,0.0,0.0,0.0,0.0,0.0,0.0,0.0,0.0,0.0,0.0,0.0,0.0,0.0,5.9434,0.0,0.0,0.0,0.0,0.0,0.0,0.0,0.0,0.0,0.0,5.7539,5.817,5.8647,5.8647,0.0,0.0,0.0,0.0,5.5813,5.5459,5.6025,5.6243,5.567,5.6473,5.6842,5.6263,0.0,0.0,5.6061,5.599,5.575,5.5147,5.4713,5.4115,5.2789,5.2684,5.2939,5.2974,5.3256,5.3398,5.308,5.286,5.286,7.493,0.0,0.0,0.0,0.0,7.2087,7.2055,7.1716,7.2089,7.2016,7.1483,7.1344,0.0,0.0,0.0,0.0,0.0,0.0,6.8463,6.89,6.807,6.773,6.7896,6.8186,6.8144,6.7854,6.7854,6.7807,6.771,6.7424,6.7003,6.6229,0.0,0.0,0.0,0.0,7.2263,7.3317,7.3259,7.3174,7.2996,7.2122,7.079,6.9007,6.7201,6.5748,6.4832,6.2639,6.108,6.0396,5.8427,0.0,0.0,0.0,0.0,0.0,0.0,0.0,0.0,0.0,0.0,0.0,0.0,0.0,0.0,0.0,0.0,0.0,0.0,0.0,5.9975,6.024,6.0071,0.0,0.0,0.0,0.0,0.0,0.0,0.0,0.0,0.0,5.861,5.9161,5.9445,0.0,0.0,5.7953,5.7455,5.6631,5.6124,5.6019,5.5826,0.0,5.5695,5.5957,5.6219,5.6405,5.6461,5.6357,5.6253,5.6219,5.6219,5.597,5.5901,5.5502,5.4585,5.382,5.3558,5.3731,5.3904,5.3785,5.3204,5.3051,5.2932,7.7398,7.595,7.5335,7.4962,7.479,7.5118,7.4881,7.4375,7.4699,7.4726,7.4391,7.4122,7.3786,7.3383,7.3112,0.0,0.0,0.0,7.0973,7.1399,7.0367,7.0007,7.0214,7.0463,7.0421,7.0173,7.0007,6.988,6.9874,7.0028,6.9988,6.9637,0.0,0.0,7.1179,7.2346,7.3315,7.4198,7.4039,7.3901,7.3559,7.2058,7.0459,6.8837,6.7603,6.641,6.5604,6.3583,6.2134,6.1668,5.9895,5.8437,0.0,0.0,0.0,0.0,0.0,0.0,0.0,0.0,0.0,0.0,0.0,5.3476,5.6094,0.0,0.0,0.0,5.9773,6.0207,6.0725,6.0589,0.0,0.0,0.0,0.0,0.0,0.0,0.0,5.8502,5.9237,5.979,5.9657,5.9941,6.0055,5.9452,5.8841,5.8196,5.7809,0.0,5.6482,5.6343,5.6073,5.6029,5.6235,5.6372,5.6543,5.6783,5.6563,5.6435,5.6435,5.6316,5.6162,5.6162,5.6263,5.6235,5.5849,5.5167,5.451,5.424,5.4173,5.4016,5.3645,5.3521,5.3397,7.9102,7.9124,7.9087,7.872,7.8072,7.8072,7.7794,7.733,7.733,7.7214,7.7214,7.6561,7.6372,7.63,7.5613,0.0,7.4278,7.3377,7.319,7.3615,7.2413,7.2077,7.2491,7.2533,7.2533,7.2323,7.191,7.2038,7.2412,7.2036,7.2197,7.277,7.1672,7.1395,7.1967,7.3222,7.4027,7.4404,7.4851,7.4767,7.4134,7.2007,7.0358,6.9177,6.8179,6.7094,6.5884,6.4371,6.3308,6.2649,6.1322,5.9961,5.875,0.0,0.0,0.0,0.0,0.0,0.0,0.0,0.0,0.0,0.0,0.0,0.0,0.0,0.0,0.0,6.1095,0.0,6.0885,6.0753,0.0,0.0,0.0,6.0181,5.9433,5.9757,5.9757,5.9034,0.0,0.0,6.0697,6.064,6.0438,5.9649,5.8924,5.84,5.8053,5.7474,5.6954,5.6646,5.6851,5.6963,5.7066,5.7244,5.7449,5.7483,5.6898,5.6543,5.6577,5.629,5.6096,5.6129,5.6228,5.6426,5.6426,5.6327,5.603,5.4617,5.4449,5.4511,5.4383,5.4383,5.4383,8.1607,8.1645,8.1567,8.0527,7.88,7.88,7.9039,7.9277,7.88,7.868,7.8605,7.8244,7.8117,7.7984,7.7377,7.6677,7.593,7.5307,7.4975,7.4804,7.4369,7.4437,7.4851,7.5182,7.4713,7.3533,7.341,7.3,7.2473,7.235,7.2692,7.3414,7.329,7.3303,7.345,7.4725,7.5299,7.5058,7.4723,7.3942,7.2875,7.1348,7.0334,6.9639,6.8103,6.7056,6.6373,6.4785,6.348,6.2728,6.1872,6.0976,6.0039,5.9297,0.0,0.0,0.0,0.0,0.0,0.0,0.0,0.0,0.0,5.8008,6.0156,0.0,6.1135,0.0,6.1479,6.1381,6.162,6.1457,0.0,0.0,6.1003,6.0729,6.0375,6.0353,6.0273,5.994,6.0089,6.0237,5.9985,6.0059,6.0025,5.9778,5.937,5.9032,5.8929,5.8523,5.8187,5.8118,5.8153,5.8063,5.781,5.7652,5.7587,5.752,5.7353,5.7386,5.7353,5.7319,5.7218,5.7251,5.7284,5.7082,5.6512,5.6512,5.6145,5.5388,5.56,5.5735,5.521,5.5078,5.4947,8.2442,8.2442,8.2705,8.2297,8.1421,8.09,8.0744,8.1162,8.0744,8.062,8.054,8.0184,7.9821,7.9452,7.8814,7.8303,7.7789,7.6888,7.6364,7.6392,7.6158,7.6001,7.6054,7.6301,7.5733,7.4573,7.4371,7.4006,7.352,7.3712,7.3771,7.3958,7.4789,7.4933,7.4657,7.495,7.5,7.4738,7.4496,7.3684,7.2499,7.1557,7.0613,6.9549,6.8164,6.7113,6.627,6.4951,6.3918,6.3208,6.254,6.1992,6.1328,6.0664,6.0039,0.0,0.0,0.0,0.0,0.0,0.0,0.0,0.0,0.0,0.0,0.0,6.2173,6.2238,6.2179,6.2203,6.2271,6.2004,6.1893,6.1903,6.1549,6.1266,6.0824,6.0869,6.078,6.036,6.0538,6.068,6.0617,6.0653,6.079,6.0755,6.0584,6.0207,5.9591,5.9248,5.8979,5.8715,5.8582,5.8385,5.7954,5.7751,5.7615,5.7648,5.7345,5.7075,5.7075,5.6935,5.6897,5.6929,5.7059,5.702,5.6578,5.6168,5.5894,5.5589,5.544,5.5498,5.5447,5.5114,5.4711,8.2747,8.2704,8.352,8.4197,8.4649,8.3409,8.2954,8.2815,8.2815,8.2686,8.2556,8.1952,8.1387,8.0777,8.0121,7.9727,7.9463,7.8272,7.7859,7.8143,7.747,7.7041,7.6946,7.6809,7.6357,7.5629,7.5228,7.5027,7.4946,7.5046,7.5004,7.4905,7.6018,7.6177,7.5428,7.468,7.4254,7.4207,7.4082,7.3414,7.2495,7.1952,7.0876,6.9272,6.8211,6.7238,6.5901,6.5066,6.4391,6.3672,6.332,6.293,6.2461,6.207,6.1523,0.0,6.0742,0.0,0.0,0.0,0.0,0.0,0.0,0.0,0.0,6.2235,6.2741,6.279,6.2985,6.3175,6.2846,6.2561,6.2565,6.2829,6.2237,6.1607,6.0974,6.1287,6.1226,6.055,6.1132,6.1543,6.1371,6.1679,6.1884,6.1504,6.147,6.1028,6.0108,5.9836,5.9701,5.896,5.869,5.852,5.7978,5.7706,5.7571,5.7538,5.713,5.6593,5.6489,5.6136,5.5916,5.5778,5.5968,5.6158,5.6221,5.5635,5.525,5.5187,5.4709,5.4524,5.5021,5.4727,5.4348,8.4989,8.4645,8.5436,8.5896,8.5991,8.5734,8.5359,8.4873,8.4342,8.381,8.3276,8.3142,8.2606,8.1933,8.1799,8.1123,8.0038,7.9766,7.9429,7.9336,7.8644,7.8473,7.8783,7.808,7.7316,7.6293,7.6174,7.5975,7.5477,7.5179,7.5589,7.6742,7.6318,7.6065,7.606,0.0,0.0,0.0,7.3123,7.2453,7.2203,7.0744,6.9544,6.889,6.787,0.0,6.594,6.5254,6.4496,6.3711,6.3594,0.0,0.0,0.0,0.0,0.0,0.0,0.0,0.0,0.0,0.0,0.0,6.2719,6.2322,6.2162,6.269,6.3215,6.3559,6.3454,6.3322,6.3394,6.3274,6.3065,6.2662,6.2496,6.2226,6.1818,6.1784,6.1852,6.1714,6.1851,6.1643,6.1155,6.1016,6.0944,6.0419,6.0213,6.008,5.9708,6.0163,6.0335,5.9642,5.8955,5.8604,5.8391,5.7908,5.7425,5.7521,5.7158,5.6721,5.607,5.5774,5.5295,5.4848,5.4631,5.4801,5.4832,5.4554,5.4554,5.4554,5.4414,5.4353,5.4508,5.4339,5.4339,8.5626,8.5671,8.6055,8.6351,0.0,8.5993,8.5713,8.5495,8.5471,8.4977,8.429,8.3877,8.3463,8.3048,8.2771,8.2215,8.1518,8.1099,8.0663,8.0165,7.9741,7.9296,7.8825,7.8395,7.7582,7.6432,7.6432,7.6235,7.5802,7.599,7.6174,7.6813,7.6819,7.6837,7.6794,7.6198,7.5575,7.4634,7.3361,7.2601,7.2395,7.0926,6.9718,6.9064,6.8009,0.0,0.0,0.0,0.0,0.0,0.0,0.0,0.0,6.4101,0.0,6.3672,6.3505,6.3578,6.3688,6.3584,6.3463,6.3858,6.3642,6.335,6.3004,6.3394,6.3658,6.3672,6.3826,6.3937,6.353,6.3375,6.3216,6.2781,6.2438,6.23,6.2262,6.2188,6.2078,6.2141,6.2027,6.1845,6.1419,6.1419,6.0993,6.028,6.0138,5.982,5.9326,5.98,6.0073,5.9201,5.85,5.7937,5.7515,5.7233,5.6841,5.6496,5.6261,5.5933,5.5326,5.5171,5.4878,5.4445,5.4244,5.4244,5.4244,5.3965,5.3686,5.3547,5.3127,5.2707,5.2707,5.3127,5.3716,8.6031,8.634,8.6401,8.6581,8.6772,8.6239,8.5951,8.5866,8.6037,0.0,0.0,8.4433,8.4192,8.4008,8.344,8.3013,8.2728,8.2156,8.144,8.0577,8.0432,7.971,7.8549,7.8404,7.777,7.6875,7.6836,7.668,7.6328,7.6786,7.6939,7.6686,7.7336,7.7468,7.7038,7.6618,7.59,7.5076,7.3852,7.2889,7.2434,7.1341,7.0253,6.9172,6.8509,6.7782,6.6992,6.6289,6.5898,6.582,6.582,6.582,6.582,6.5345,6.5026,6.5026,6.4485,6.4304,6.4649,6.4515,6.4332,6.4101,6.406,6.4133,6.3972,6.4117,6.4082,6.3815,6.4365,6.4424,6.3883,6.3511,6.3305,6.3374,6.2713,6.229,6.2563,6.227,6.2038,6.2339,6.1997,6.165,6.1439,6.1149,6.0924,6.0196,5.9776,5.9758,5.8578,5.8739,5.8855,5.8225,5.7659,5.7029,5.6604,5.6493,5.6146,5.5638,5.5404,5.511,5.4725,5.4462,5.4311,5.3848,5.3727,5.3617,5.3587,5.2944,5.2715,5.2545,5.1671,5.0825,5.0768,5.1584,5.2427,8.7171,8.7502,8.7824,8.7908,8.8013,8.7865,8.7865,8.7695,8.6138,8.5413,8.537,8.527,8.484,8.4265,8.4079,8.3399,8.2095,8.2095,8.1512,8.0782,8.0049,7.9608,7.9461,7.8724,7.839,7.8203,7.8203,7.8164,7.8047,7.749,7.7389,7.781,7.7384,7.7013,7.6773,7.6307,7.5921,7.5396,7.3821,7.2577,7.1875,7.0778,6.995,6.9388,6.8919,6.8293,6.7461,6.7305,6.707,6.6719,6.668,6.668,6.668,6.601,6.5719,6.5592,6.5391,6.5236,6.5312,6.5384,6.5329,6.4979,6.4749,6.4542,6.4442,6.4567,6.478,6.4905,6.4787,6.4628,6.4561,6.4524,6.4274,6.4015,6.3368,6.2971,6.2971,6.2319,6.1808,6.1907,6.1327,6.0665,6.0,5.9383,5.8829,5.8063,5.7923,5.7653,5.7444,5.7338,5.7053,5.6806,5.6569,5.6425,5.622,5.6281,5.6076,5.6137,5.5719,5.5106,5.4413,5.3632,5.2997,5.2254,5.1768,5.1367,5.1224,5.0994,5.0996,5.094,5.0456,5.0258,5.0005,5.0232,5.0345,8.7685,8.8293,8.7832,8.7797,8.7886,8.7185,8.691,8.6826,8.603,8.5947,8.624,8.58,8.5506,8.5064,8.4621,8.403,8.3436,8.299,8.2394,8.1647,8.1197,8.0628,8.0092,7.9642,7.9258,7.8828,7.8789,7.8711,7.8437,7.8047,7.8038,7.84,7.7863,7.7567,7.7437,7.7095,7.6373,7.5655,7.4177,7.299,7.2522,7.1418,7.0586,7.0156,6.9726,6.9336,6.8945,6.8672,6.8476,6.8281,6.7894,6.7764,6.7764,6.6949,6.6559,6.6597,6.6097,6.5892,6.6154,6.6051,6.5861,6.5622,6.5164,6.493,6.465,6.4894,6.4868,6.4421,6.4385,6.4059,6.3402,6.3149,6.3216,6.2952,6.2663,6.2329,6.2058,6.1362,6.0874,6.0594,5.9889,5.9361,5.9103,5.8836,5.8332,5.7704,5.7013,5.6351,5.5994,5.5401,5.5407,5.6279,5.6412,5.6145,5.571,5.5245,5.481,5.4549,5.3966,5.3384,5.2804,5.2169,5.1738,5.1308,5.0847,5.0703,5.0559,5.0559,5.0475,5.042,5.0049,4.9794,4.9403,4.8783,4.822,8.778,8.8755,8.7879,8.7617,8.7739,8.6952,8.6484,8.6484,8.6484,8.6703,8.6729,8.6179,8.5713,8.5563,8.4962,8.4359,8.4057,8.3452,8.2693,8.1932,8.1932,8.143,8.0547,8.0508,8.0156,7.957,7.9531,7.9297,7.8945,7.8789,7.8633,7.8546,7.8282,7.8073,7.7892,7.7453,7.6731,7.569,7.4703,7.3873,7.3162,7.2264,7.1601,7.1172,7.0742,7.0469,7.0351,6.9961,6.9595,6.9463,6.8934,6.8576,6.8558,6.7893,6.753,6.7472,6.6974,6.6584,6.6856,6.6506,6.6147,6.5712,6.5158,6.4699,6.4546,6.4658,6.4554,6.3797,6.3851,6.3544,6.2661,6.2435,6.2289,6.2143,6.1997,6.172,6.1178,6.0322,5.9854,5.9357,5.8668,5.8308,5.8521,5.846,5.8035,5.733,5.622,5.5183,5.4802,5.4032,5.4345,5.5258,5.5755,5.5048,5.4521,5.3938,5.3295,5.2681,5.2039,5.1808,5.1493,5.1118,5.0888,5.0548,5.0348,5.0231,5.0203,5.0058,4.9885,4.9686,4.9051,4.8653,4.8133,4.7123,4.6653,8.73,8.8116,8.8327,8.8471,8.8501,8.8306,8.8264,8.8306,8.8347,8.7791,8.6642,8.6141,8.5454,8.4812,8.4551,8.3795,8.2581,8.2389,8.1932,8.1208,8.1168,8.0976,8.0937,8.0937,8.0898,8.0781,8.0742,8.0508,8.0117,7.9765,7.9219,7.8515,7.8008,7.7685,7.7361,7.6891,7.6316,7.5924,7.5768,7.4946,7.3419,7.3164,7.293,7.2539,7.2031,7.164,7.1289,7.082,7.0358,6.965,6.9555,6.9305,6.8972,6.8367,6.8244,6.8442,6.7791,6.7319,6.7089,6.6356,6.5794,6.5329,6.4077,6.3554,6.405,6.3565,6.3432,6.3411,6.3319,6.321,6.3426,6.3508,6.3159,6.2378,6.1811,6.1368,6.0399,5.9736,5.9311,5.919,5.8185,5.797,5.7848,5.7448,5.6835,5.6153,5.5102,5.4328,5.4216,5.3435,5.3074,5.3402,5.3281,5.2829,5.2575,5.2343,5.2258,5.1886,5.1627,5.1334,5.1012,5.0663,5.0342,4.9766,4.97,4.9406,4.9112,4.8897,4.8323,4.8232,4.7541,4.668,4.6047,4.5689,4.5822,8.7238,8.811,8.8206,8.8378,8.8482,8.8131,8.7821,8.7821,8.7355,8.6766,8.6408,8.6149,8.5508,8.4715,8.4217,8.3604,8.299,8.2375,8.2106,8.1797,8.1797,8.164,8.1445,8.1406,8.1289,8.1015,8.1015,8.0898,8.0703,8.0312,7.9687,7.8906,7.8672,7.8359,7.7969,7.75,7.707,7.664,7.6367,7.5781,7.4883,7.4336,7.375,7.3125,7.289,7.242,7.199,7.1659,7.1308,7.0445,7.0032,6.9694,6.9604,6.891,6.8603,6.861,6.7628,6.6714,6.6006,6.5294,6.4754,6.4268,6.3489,6.2945,6.2997,6.2217,6.1533,6.1885,6.2398,6.271,6.1971,6.1948,6.1558,6.0801,6.0346,5.9738,5.8366,5.806,5.7448,5.6528,5.6067,5.5999,5.6017,5.6063,5.5866,5.5243,5.4306,5.3496,5.3312,5.2073,5.1133,5.1,5.0577,5.0955,5.1721,5.1909,5.1528,5.1269,5.0511,4.9836,4.9661,4.8908,4.8359,4.8385,4.8237,4.7941,4.7915,4.7644,4.7296,4.6943,4.6636,4.6088,4.5707,4.5114,4.4818,8.7317,8.784,8.807,8.8131,8.819,8.7566,8.741,8.7253,8.6627,8.6232,8.5955,8.5955,8.5398,8.4408,8.3938,8.3549,8.3239,8.2694,8.2344,8.2344,8.2344,8.2148,8.1875,8.1875,8.1679,8.1406,8.1367,8.1328,8.1133,8.0625,8.0039,7.9492,7.9219,7.8945,7.8633,7.8203,7.7812,7.7383,7.7031,7.6457,7.5728,7.5144,7.4405,7.3627,7.3432,7.2897,7.2084,7.1969,7.1474,7.0775,7.0214,6.9904,6.9986,6.9137,6.8678,6.8467,6.7464,6.6312,6.53,6.4541,6.3949,6.3372,6.2751,6.2152,6.1875,6.0953,6.0289,6.0322,6.1239,6.1329,6.0197,5.9984,5.9556,5.8636,5.8483,5.7868,5.6664,5.6326,5.6046,5.4778,5.4834,5.4707,5.4931,5.4998,5.4953,5.4481,5.3378,5.2245,5.1823,5.0486,4.9526,4.9293,4.9015,4.9296,5.0971,5.0712,5.0385,5.01,4.9015,4.8487,4.8311,4.7481,4.7004,4.7676,4.7127,4.6877,4.7174,4.7025,4.6305,4.6006,4.5755,4.5403,4.4812,4.4299,4.3887,8.7431,8.7514,8.788,8.7917,8.7514,8.7355,8.7355,8.7275,8.7315,8.6639,8.5647,8.5449,8.4895,8.3831,8.4065,8.3712,8.3047,8.2539,8.2383,8.2383,8.2344,8.2304,8.2304,8.2304,8.2265,8.2148,8.2148,8.1992,8.1601,8.082,8.0351,8.0273,7.9531,7.9101,7.9023,7.8672,7.8242,7.7743,7.7587,7.6905,7.5586,7.5287,7.4787,7.4017,7.3736,7.2965,7.1878,7.132,7.0813,6.9971,6.9904,6.9919,6.987,6.9262,6.8393,6.7712,6.7522,6.6782,6.523,6.4336,6.3622,6.2819,6.1431,6.0743,6.0809,6.0015,5.9551,5.9532,5.9316,5.9136,5.8408,5.8653,5.8306,5.6904,5.662,5.6308,5.5581,5.5424,5.5424,5.511,5.4953,5.4795,5.4981,5.4481,5.3563,5.2931,5.2139,5.111,5.0219,4.9598,4.9006,4.8728,4.845,4.8454,4.8326,4.8884,4.8603,4.8349,4.8449,4.7716,4.7614,4.7512,4.721,4.7058,4.6731,4.6456,4.6554,4.6106,4.5167,4.4724,4.4503,4.4088,4.4111,4.3626,4.3335,8.7221,8.7431,8.7596,8.7759,8.7878,8.7199,8.692,8.6641,8.6003,8.5604,8.5128,8.5128,8.4889,8.4375,8.4262,8.3948,8.3359,8.2929,8.2734,8.2695,8.2461,8.2344,8.2344,8.2344,8.2344,8.2344,8.2344,8.2109,8.1719,8.1367,8.0937,8.0429,8.0078,7.9805,7.9492,7.9062,7.8491,7.785,7.7386,7.6441,7.5436,7.5169,7.4458,7.3491,7.3472,7.3024,7.2192,7.2042,7.1536,7.078,7.0203,6.9915,6.9878,6.8746,6.7383,6.6143,6.5581,6.4868,6.3819,6.2464,6.1709,6.1287,6.0106,5.9187,5.9185,5.8438,5.7488,5.7051,5.6534,5.5817,5.524,5.6421,5.7308,5.6206,5.5891,5.5659,5.5219,5.5116,5.4797,5.4292,5.3813,5.312,5.2589,5.2085,5.1688,5.1214,5.0393,4.963,4.9062,4.7999,4.7125,4.6521,4.5945,4.5575,4.6145,4.7635,4.8352,4.8097,4.7843,4.7412,4.716,4.6381,4.6057,4.5958,4.5785,4.5712,4.5513,4.5439,4.4452,4.4282,4.389,4.3673,4.3383,4.3335,4.319,8.7124,8.7182,8.7024,8.7032,8.7118,8.6478,8.5959,8.5723,8.5203,8.4883,8.4883,8.4883,8.4883,8.4844,8.457,8.4297,8.3945,8.3437,8.3125,8.2969,8.2656,8.2461,8.2344,8.2344,8.2344,8.2344,8.2344,8.2148,8.1914,8.1758,8.1367,8.0859,8.0394,7.9779,7.9468,7.8929,7.8207,7.7526,7.6989,7.6236,7.5302,7.4777,7.3994,7.281,7.2697,7.2509,7.1994,7.1848,7.1374,7.0789,6.9762,6.9062,6.8612,6.7817,6.6573,6.5067,6.4292,6.3565,6.2555,6.1149,6.0199,5.9923,5.8723,5.7789,5.7479,5.6493,5.5547,5.4687,5.4241,5.3253,5.2741,5.3922,5.4879,5.4346,5.4159,5.4081,5.3788,5.3654,5.3306,5.2797,5.2209,5.1463,5.0852,5.0565,5.0278,4.9941,4.9119,4.8517,4.7636,4.6516,4.5353,4.494,4.4527,4.4412,4.463,4.5825,4.699,4.7045,4.7149,4.6768,4.6467,4.5667,4.5097,4.5,4.4832,4.4614,4.4469,4.4397,4.4252,4.4083,4.389,4.3697,4.348,4.3335,4.3117,8.7187,8.6758,8.6367,8.61,8.5669,8.5317,8.4922,8.5043,8.4883,8.4883,8.4883,8.4883,8.4883,8.4883,8.4844,8.4844,8.4648,8.3984,8.3476,8.3125,8.2969,8.2734,8.2383,8.2344,8.2344,8.2344,8.2344,8.2304,8.211,8.1798,8.1525,8.1176,7.9864,7.9211,7.9134,7.8065,7.7229,7.6774,7.6585,7.5944,7.4854,7.4182,7.3324,7.2088,7.1612,7.1255,7.1118,7.0458,7.0017,6.987,6.8542,6.7162,6.6291,6.6375,6.6011,6.4472,6.3864,6.3085,6.1899,6.0247,5.913,5.8639,5.7332,5.5951,5.5379,5.4626,5.3786,5.2636,5.2574,5.2269,5.148,5.148,5.1678,5.1124,5.1559,5.1559,5.1448,5.1099,5.1073,5.1099,5.0946,5.0692,5.0455,5.0008,4.9538,4.8664,4.8,4.7264,4.6388,4.5338,4.4609,4.4381,4.3837,4.3522,4.3745,4.3943,4.4786,4.5622,4.5908,4.6014,4.6072,4.5523,4.5082,4.4914,4.4102,4.3865,4.3675,4.3604,4.3782,4.3615,4.3595,4.3598,4.3552,4.3359,4.3045,8.7226,8.6836,8.6679,8.6172,8.5547,8.5351,8.5156,8.4883,8.4883,8.4883,8.4883,8.4883,8.4883,8.4883,8.4883,8.4883,8.4844,8.457,8.4258,8.3789,8.3242,8.2929,8.2734,8.2461,8.2344,8.2344,8.2344,8.2032,8.1526,8.141,8.0905,7.99,7.9248,7.8675,7.8255,7.7684,7.6924,7.6317,7.5448,7.4466,7.3559,7.2625,7.1953,7.1462,7.0749,7.042,7.0324,6.9528,6.9246,6.9097,6.7838,6.629,6.4813,6.4608,6.3772,6.174,6.1204,6.0793,5.9726,5.8116,5.7107,5.6704,5.4929,5.368,5.32,5.2478,5.1694,5.0977,5.0966,5.0576,4.9434,4.9153,4.969,5.1241,5.1379,5.1267,5.1255,5.1469,5.1331,5.0789,5.0426,4.9714,4.8681,4.8115,4.7528,4.6742,4.6237,4.5663,4.5135,4.445,4.3835,4.3452,4.3002,4.2755,4.278,4.2961,4.3631,4.4428,4.4871,4.5336,4.542,4.5325,4.4885,4.4377,4.372,4.3287,4.295,4.2983,4.3062,4.3289,4.3218,4.33,4.3502,4.3311,4.2948,8.7226,8.6836,8.664,8.6172,8.5508,8.5351,8.5117,8.4883,8.4883,8.4883,8.4883,8.4883,8.4722,8.4562,8.4401,8.424,8.3919,8.3919,8.3764,8.3417,8.2961,8.2496,8.1988,8.1563,8.137,8.137,8.137,8.1057,8.0588,8.0588,8.016,7.9387,7.8198,7.7475,7.7021,7.6075,7.5166,7.4668,7.3989,7.323,7.2698,7.1645,7.082,7.0478,6.9607,6.8769,6.8086,6.7338,6.7441,6.778,6.6758,6.4641,6.2679,6.249,6.1795,6.0054,5.9189,5.858,5.7826,5.6038,5.486,5.4297,5.2823,5.172,5.1397,5.0638,5.0025,4.9331,4.8984,4.8445,4.7759,4.745,4.8209,4.9386,4.9526,4.9764,4.991,4.9935,4.9604,4.9012,4.8747,4.8016,4.701,4.6358,4.5964,4.5158,4.479,4.4606,4.4288,4.3601,4.2987,4.2558,4.2333,4.2181,4.1964,4.2127,4.2467,4.3273,4.3915,4.4382,4.4669,4.4444,4.4103,4.3638,4.294,4.2686,4.2478,4.2351,4.2455,4.2708,4.2889,4.3176,4.3283,4.2997,4.2779,8.7187,8.6758,8.6328,8.5859,8.5429,8.5078,8.4922,8.4883,8.4644,8.4644,8.4644,8.4406,8.4085,8.3481,8.3205,8.2722,8.2228,8.2066,8.1953,8.1726,8.1639,8.1265,8.065,8.027,7.9961,7.9804,7.9804,7.9647,7.9332,7.9332,7.949,7.8905,7.6979,7.5913,7.5574,7.3558,7.2771,7.2855,7.2355,7.22,7.2009,7.0919,6.9816,6.9007,6.796,6.6741,6.534,6.4496,6.4776,6.6453,6.4587,6.2585,6.0628,6.0233,5.9903,5.8623,5.7594,5.6729,5.5944,5.4109,5.2731,5.236,5.1363,5.0476,4.9763,4.9118,4.8419,4.7808,4.7311,4.6763,4.6619,4.6619,4.6619,4.6453,4.7072,4.7095,4.6786,4.6952,4.7095,4.6837,4.6185,4.5843,4.5797,4.5409,4.5042,4.4651,4.3984,4.3478,4.3316,4.2627,4.2044,4.1615,4.1467,4.1234,4.0843,4.133,4.1654,4.1821,4.267,4.3293,4.3691,4.3599,4.3021,4.2567,4.2182,4.1932,4.1796,4.1496,4.1751,4.2109,4.2498,4.2934,4.2871,4.2756,4.2491,8.6719,8.6289,8.5859,8.5429,8.5078,8.4922,8.4883,8.4844,8.3891,8.3494,8.3378,8.2469,8.2073,8.1715,8.1074,8.0716,8.0346,8.0048,7.9364,7.8621,7.86,7.9168,7.9792,7.988,7.9332,7.886,7.8665,7.8229,7.7121,7.7121,7.6803,7.5972,7.5345,7.444,7.3997,7.322,7.2674,7.227,7.0992,7.0524,7.0334,6.9015,6.7851,6.6908,6.599,6.5012,6.3936,6.2506,6.1717,6.2137,6.1821,6.0671,5.8929,5.8211,5.7298,5.603,5.4945,5.3855,5.3122,5.195,5.1268,5.0889,4.9666,4.8751,4.8421,4.7642,4.7192,4.686,4.6597,4.6287,4.5787,4.562,4.5454,4.4953,4.562,4.6453,4.6453,4.6619,4.6551,4.6345,4.6048,4.5329,4.4778,4.4229,4.3845,4.3199,4.253,4.1882,4.1882,4.1417,4.0768,4.0605,4.032,4.0095,4.0051,4.0545,4.0632,4.0589,4.1265,4.2202,4.2536,4.2821,4.2024,4.1144,4.0749,4.0464,4.0464,4.0162,4.0827,4.1488,4.164,4.1933,4.2339,4.2371,4.2276,8.6445,8.5859,8.5625,8.5273,8.4883,8.4562,8.4401,8.4124,8.2974,8.2142,8.1745,8.1046,8.0058,7.9417,7.8935,7.8453,7.8167,7.7865,7.7379,7.6875,7.6498,7.6906,7.7548,7.7596,7.7438,7.6962,7.6925,7.629,7.5689,7.553,7.521,7.482,7.4022,7.3475,7.293,7.1914,7.1218,7.0593,6.9273,6.8332,6.8175,6.6756,6.5807,6.4855,6.3869,6.2654,6.1169,5.9863,5.9098,5.9074,5.8958,5.8239,5.6437,5.5814,5.489,5.3521,5.2725,5.1926,5.11,5.0106,4.937,4.8967,4.7782,4.745,4.7284,4.6619,4.612,4.612,4.5787,4.5287,4.4953,4.4786,4.4452,4.4285,4.462,4.512,4.5454,4.5454,4.5342,4.512,4.4545,4.3975,4.3244,4.2681,4.2087,4.1417,4.1072,4.0747,4.0585,4.0118,3.963,3.9447,3.957,3.9531,3.945,3.9747,3.9839,3.9824,3.9856,4.0952,4.1425,4.1672,4.099,4.0158,3.9642,3.9256,3.9256,3.9385,3.9902,4.0478,4.0636,4.0957,4.1516,4.1699,4.1609,8.625,8.5508,8.5307,8.5073,8.4601,8.388,8.3397,8.2998,8.1774,8.0743,7.9987,7.9491,7.8233,7.6893,7.6749,7.6372,7.5724,7.5597,7.5633,7.5329,7.5117,7.4889,7.4802,7.521,7.5051,7.4891,7.4571,7.4571,7.4411,7.4411,7.4251,7.386,7.294,7.2273,7.1326,6.9963,6.8925,6.8151,6.6756,6.6124,6.5617,6.4378,6.3231,6.2463,6.0919,5.926,5.7698,5.6773,5.6443,5.625,5.6548,5.5624,5.3685,5.3166,5.2611,5.1988,5.1041,5.0042,4.935,4.8324,4.7562,4.6711,4.6309,4.612,4.5787,4.512,4.462,4.4786,4.4285,4.3973,4.3784,4.3784,4.3617,4.3282,4.2947,4.2947,4.3449,4.3784,4.3677,4.3275,4.2358,4.1798,4.1241,4.0566,3.9955,4.0605,4.0097,3.9772,3.961,3.9284,3.8796,3.847,3.8717,3.8943,3.9028,3.9108,3.9164,3.9037,3.8955,3.9522,4.022,4.0341,3.9777,3.9195,3.8749,3.8562,3.8802,3.889,3.9236,3.977,4.0206,4.0448,4.064,4.0764,4.0635,8.5976,8.5469,8.4473,8.3996,8.3758,8.2951,8.2104,8.138,7.99,7.8798,7.7772,7.6425,7.5656,7.5175,7.4729,7.414,7.3958,7.3682,7.3333,7.3264,7.2954,7.2782,7.3,7.3769,7.409,7.3769,7.3609,7.3287,7.2966,7.2644,7.2321,7.1641,7.1412,7.0402,6.8873,6.8157,6.7029,6.6067,6.4823,6.406,6.355,6.2273,6.0829,5.9571,5.7502,5.5842,5.4825,5.4568,5.365,5.2574,5.3214,5.3686,5.2498,5.1332,5.0546,5.0117,4.8966,4.7788,4.6899,4.6449,4.5788,4.4882,4.4059,4.3428,4.3428,4.2779,4.2612,4.2947,4.2968,4.2968,4.2947,4.2277,4.2109,4.2109,4.1773,4.1605,4.1732,4.1777,4.1779,4.1386,4.0995,4.0586,4.0382,4.0016,3.9792,3.9772,3.9447,3.8959,3.8633,3.847,3.8144,3.7817,3.7884,3.8093,3.7983,3.8069,3.8131,3.7933,3.7873,3.7597,3.8302,3.8588,3.7859,3.7792,3.7855,3.7864,3.7983,3.7968,3.8144,3.8957,3.9482,3.9432,3.9439,3.9595,3.9469,8.4977,8.455,8.3512,8.2951,8.2789,8.1618,8.0731,7.9784,7.8099,7.6731,7.5673,7.4497,7.393,7.3448,7.3127,7.2805,7.2678,7.2203,7.1657,7.1298,7.1129,7.1062,7.0866,7.1514,7.1803,7.2482,7.2321,7.1998,7.1514,7.0704,7.0021,6.9567,6.9208,6.8328,6.7063,6.6386,6.552,6.4531,6.2777,6.1632,6.099,5.938,5.7763,5.6413,5.491,5.3826,5.2049,5.2427,5.106,4.9561,4.9731,5.0456,5.0094,4.8892,4.8264,4.8019,4.7024,4.5834,4.511,4.4683,4.4194,4.2967,4.1978,4.1876,4.1626,4.1101,4.1101,4.1773,4.1941,4.1941,4.1941,4.1773,4.1269,4.1269,4.0933,4.0557,4.0625,4.084,4.0845,4.0457,4.0091,3.9707,3.9384,3.8978,3.8796,3.847,3.847,3.7981,3.7981,3.7817,3.7654,3.7453,3.7377,3.7206,3.694,3.7013,3.7081,3.6788,3.6573,3.5986,3.5734,3.5839,3.5941,3.6347,3.6744,3.7074,3.7194,3.7202,3.7338,3.7875,3.8255,3.8085,3.7872,3.7761,3.7382,8.3981,8.3274,8.2304,8.198,8.1655,7.999,7.8954,7.8228,7.6531,7.5202,7.3809,7.3265,7.2644,7.2194,7.1871,7.1709,7.1352,7.0441,6.9663,6.9274,6.9274,6.9241,6.9078,6.8882,6.9371,7.119,7.0542,7.0217,6.9729,6.8882,6.823,6.774,6.7085,6.6302,6.5497,6.4603,6.332,6.2074,6.0231,5.8734,5.7925,5.6302,5.4673,5.314,5.2396,5.1481,4.9782,4.9439,4.8744,4.6557,4.6213,4.6165,4.6093,4.613,4.5664,4.5906,4.4878,4.3848,4.2969,4.2563,4.2058,4.0865,4.0086,3.982,4.0022,3.9606,3.9567,4.026,4.0597,4.0933,4.1101,4.0765,4.0765,4.0577,3.9904,3.9451,3.9315,3.9886,3.9522,3.955,3.882,3.8115,3.7875,3.7654,3.7328,3.7164,3.7164,3.7164,3.7164,3.7001,3.7001,3.6618,3.6363,3.5961,3.5685,3.5623,3.5718,3.5662,3.529,3.4549,3.3793,3.4222,3.4662,3.5384,3.5787,3.6105,3.6301,3.6271,3.6389,3.6927,3.7077,3.6953,3.6516,3.577,3.5712,8.3495,8.2304,8.0805,8.0153,7.9827,7.8189,7.6952,7.5813,7.5193,7.4029,7.2836,7.1845,7.119,7.0866,7.0217,6.9696,6.8752,6.7906,6.745,6.7316,6.738,6.738,6.7248,6.6921,6.7248,6.7576,6.7412,6.7248,6.774,6.7248,6.6428,6.61,6.5607,6.4526,6.2664,6.1678,6.0283,5.8742,5.7204,5.6167,5.5162,5.3855,5.2216,5.0125,4.9231,4.8125,4.6934,4.627,4.5696,4.4509,4.3623,4.3042,4.2788,4.3478,4.3844,4.3692,4.2676,4.1444,4.0577,3.9596,3.8637,3.7608,3.7202,3.7022,3.7084,3.6976,3.7393,3.805,3.8744,3.925,4.0092,3.9399,3.9062,3.8874,3.8237,3.7621,3.7342,3.6991,3.6789,3.7027,3.6695,3.6585,3.6548,3.6529,3.6511,3.6511,3.6674,3.6674,3.6674,3.6511,3.6202,3.5784,3.5367,3.4738,3.4274,3.4221,3.4201,3.4201,3.3848,3.3584,3.3128,3.3092,3.3538,3.3768,3.4297,3.4776,3.4849,3.5236,3.5655,3.6087,3.6113,3.5845,3.5472,3.5246,3.5193,8.2006,8.0842,7.95,7.8572,7.7901,7.6753,7.5614,7.4435,7.3377,7.2451,7.1494,7.0284,6.9534,6.9175,6.8361,6.7386,6.6349,6.5897,6.5504,6.5459,6.5357,6.5482,6.5246,6.4618,6.4287,6.3957,6.346,6.4287,6.5771,6.4618,6.4122,6.346,6.2797,6.1214,5.9653,5.8759,5.7653,5.5949,5.4914,5.4019,5.2872,5.1229,4.8919,4.7543,4.6269,4.5166,4.4003,4.3915,4.2788,4.133,4.0674,3.9978,3.9629,3.9804,4.0674,4.0674,3.9804,3.8932,3.8409,3.7795,3.734,3.659,3.6052,3.5861,3.5722,3.5752,3.553,3.6377,3.6716,3.7562,3.8406,3.7638,3.7414,3.7546,3.6728,3.6248,3.5771,3.5262,3.499,3.4885,3.5126,3.5237,3.5401,3.5547,3.5547,3.5692,3.602,3.602,3.6183,3.5692,3.5383,3.4732,3.4103,3.3628,3.3031,3.2876,3.2597,3.2597,3.2405,3.1986,3.1661,3.1477,3.1414,3.1487,3.2166,3.3357,3.4154,3.4562,3.4983,3.527,3.4877,3.4652,3.4633,3.4701,3.4505,8.019,7.9336,7.8317,7.7117,7.6177,7.4922,7.4178,7.3264,7.1567,7.0747,7.0088,6.8556,6.774,6.7284,6.615,6.4828,6.393,6.3574,6.3106,6.2619,6.2515,6.2829,6.2406,6.1634,6.0801,6.0301,5.9632,6.0468,6.2797,6.1967,6.0968,6.0439,5.9102,5.7791,5.6821,5.6468,5.5369,5.3974,5.3028,5.1913,5.0075,4.7759,4.5598,4.4786,4.3977,4.2691,4.1555,4.1109,4.0115,3.8703,3.7885,3.7186,3.6504,3.6154,3.6329,3.6836,3.6679,3.6679,3.6662,3.6435,3.6105,3.5725,3.507,3.5022,3.4681,3.4052,3.3832,3.4851,3.536,3.57,3.6359,3.6031,3.611,3.6206,3.5729,3.4851,3.4415,3.3798,3.3053,3.3151,3.3577,3.3906,3.407,3.4563,3.4727,3.5055,3.5365,3.5365,3.5365,3.4727,3.4182,3.3502,3.2811,3.2347,3.197,3.1551,3.1326,3.0849,3.0641,3.026,2.9753,2.9235,2.9484,2.9895,3.0994,3.2178,3.2969,3.3592,3.3424,3.3441,3.3348,3.3163,3.3163,3.3051,3.2883,7.9336,7.8353,7.6388,7.5555,7.4957,7.3167,7.2136,7.1567,6.9898,6.8882,6.8393,6.6757,6.5936,6.506,6.3258,6.2036,6.1071,6.0079,5.9598,5.9369,5.9317,5.9126,5.8572,5.8292,5.7873,5.7315,5.6698,5.7788,5.9046,5.8544,5.8069,5.7846,5.6817,5.5678,5.4515,5.3957,5.2702,5.0776,4.9892,4.8611,4.6453,4.4975,4.3805,4.2675,4.1472,4.0315,3.9161,3.8335,3.7322,3.6994,3.5453,3.4751,3.4224,3.2818,3.229,3.2994,3.4224,3.5786,3.5402,3.4794,3.4313,3.4149,3.3812,3.3305,3.2817,3.2023,3.179,3.2115,3.2966,3.3816,3.4648,3.517,3.5437,3.5112,3.4254,3.3435,3.2821,3.2226,3.1485,3.1139,3.1421,3.2245,3.2903,3.3413,3.3742,3.4398,3.4563,3.4398,3.4036,3.3362,3.2769,3.1918,3.1252,3.0802,3.0642,3.0387,3.0053,2.9574,2.9179,2.88,2.8445,2.8077,2.8239,2.8985,2.9936,3.0825,3.1445,3.1801,3.1773,3.1945,3.2186,3.2003,3.1524,3.14,3.1533,7.6917,7.6388,7.5096,7.3927,7.2894,7.1543,7.0456,6.9504,6.8293,6.7408,6.646,6.4948,6.3114,6.1379,5.9434,5.8166,5.7208,5.6769,5.6526,5.6661,5.6797,5.6767,5.6622,5.6173,5.5475,5.484,5.4117,5.3729,5.4814,5.559,5.5785,5.529,5.4154,5.2803,5.1941,5.1116,4.9493,4.7822,4.6817,4.5855,4.417,4.2798,4.1552,4.0438,3.8821,3.7607,3.6758,3.5639,3.4819,3.4493,3.317,3.2642,3.2466,3.1937,3.1409,3.1585,3.2373,3.3012,3.2996,3.26,3.2475,3.2131,3.196,3.168,3.1058,3.0641,3.0425,3.0937,3.1263,3.1945,3.2424,3.2635,3.2843,3.2697,3.2336,3.1676,3.0902,3.0509,2.9952,2.9606,2.9276,3.0102,3.0762,3.0927,3.1421,3.2245,3.2245,3.1751,3.1538,3.0981,3.0513,3.0,2.9507,2.9148,2.9187,2.9096,2.9096,2.8587,2.8005,2.7585,2.741,2.7235,2.7245,2.7608,2.8567,2.9267,2.9767,3.0688,3.1449,3.1458,3.1317,3.0969,3.0622,3.0924,3.0878,7.4325,7.4221,7.3564,7.2402,7.0914,6.9832,6.8817,6.774,6.61,6.5112,6.4257,6.2376,6.0008,5.8011,5.6718,5.5678,5.4399,5.4262,5.4443,5.476,5.4779,5.4604,5.4091,5.3613,5.2956,5.2392,5.0791,5.0238,5.0406,5.1176,5.1755,5.2585,5.0767,4.9806,4.8824,4.7939,4.6763,4.5247,4.4194,4.3068,4.2046,4.0701,3.9408,3.8119,3.6545,3.521,3.4691,3.3515,3.2823,3.2487,3.1394,3.0704,3.0704,2.9821,2.9468,2.944,2.9694,2.9566,3.0048,3.0325,3.0729,3.0753,3.0275,3.0373,3.0128,2.9913,2.94,2.9229,2.9215,2.9727,3.021,2.9936,3.0465,3.0635,3.0285,2.9454,2.8824,2.8629,2.7953,2.7125,2.7125,2.7622,2.8118,2.8284,2.8945,3.0102,2.9937,2.9441,2.9202,2.8949,2.8801,2.8462,2.7934,2.7628,2.7571,2.7658,2.7818,2.7615,2.6863,2.6261,2.5793,2.5641,2.5504,2.6184,2.718,2.7799,2.8363,2.9767,3.1139,3.0451,3.0099,3.0082,2.9997,3.0156,2.9754,7.1972,7.1635,7.1471,7.0981,7.0029,6.79,6.7117,6.6428,6.346,6.2133,6.1547,5.9126,5.7324,5.6087,5.5101,5.3955,5.3088,5.3487,5.2945,5.265,5.2778,5.1848,5.1082,5.0167,4.9542,4.8148,4.7282,4.6685,4.6135,4.6313,4.7542,4.8555,4.7519,4.6674,4.5975,4.5445,4.4449,4.311,4.1826,4.0628,3.9599,3.8396,3.7518,3.6396,3.4729,3.3665,3.3672,3.2115,3.1165,3.1025,2.9574,2.8761,2.8584,2.7699,2.7168,2.7143,2.7001,2.6885,2.7144,2.8763,3.0206,3.029,2.9701,2.8758,2.8545,2.7346,2.6832,2.6832,2.7175,2.699,2.7463,2.7723,2.8449,2.8476,2.8335,2.7845,2.7387,2.6973,2.6296,2.4968,2.4968,2.5798,2.613,2.6462,2.7622,2.8615,2.878,2.8118,2.8019,2.7919,2.7613,2.7267,2.6397,2.6113,2.6085,2.6058,2.5898,2.567,2.5257,2.4503,2.3742,2.376,2.4192,2.4618,2.5453,2.6279,2.6929,2.7982,2.8701,2.8728,2.8732,2.8683,2.8275,2.8116,2.7408,7.075,6.9438,6.8948,6.8424,6.7933,6.6163,6.4618,6.346,6.1634,6.002,5.8821,5.6854,5.5177,5.3809,5.2116,5.1124,5.0155,4.9587,4.9327,4.8798,4.8386,4.7834,4.6944,4.6663,4.6023,4.5306,4.4529,4.4087,4.4001,4.3196,4.3429,4.4131,4.4173,4.447,4.3982,4.3084,4.1947,4.0956,3.9847,3.871,3.7669,3.6261,3.5357,3.4702,3.298,3.2053,3.1595,3.0208,2.9613,2.9041,2.7621,2.7143,2.6814,2.5751,2.5396,2.536,2.5203,2.507,2.516,2.6428,2.7188,2.7096,2.6686,2.666,2.6832,2.5803,2.5459,2.5459,2.5287,2.5103,2.5606,2.5923,2.6359,2.6373,2.6216,2.6073,2.5775,2.5518,2.4802,2.3638,2.3971,2.4636,2.4636,2.4802,2.613,2.729,2.7125,2.6945,2.685,2.6563,2.625,2.5939,2.5241,2.4815,2.4615,2.4455,2.4134,2.3885,2.3638,2.3025,2.2587,2.2707,2.3182,2.3609,2.388,2.4559,2.5204,2.584,2.641,2.7102,2.7248,2.6993,2.6561,2.597,2.5428,6.9438,6.7772,6.6264,6.5936,6.5936,6.4287,6.2631,6.1135,5.9967,5.807,5.5825,5.4184,5.2574,5.0843,4.9467,4.8469,4.8013,4.7481,4.6753,4.6313,4.5975,4.4997,4.4191,4.3937,4.3916,4.3115,4.2587,4.2223,4.2244,4.1253,4.099,4.103,4.1221,4.1432,4.227,4.1035,3.9596,3.8419,3.7795,3.6854,3.5786,3.4543,3.3282,3.2759,3.1006,2.9861,2.934,2.8123,2.7466,2.6898,2.5981,2.5017,2.4686,2.4508,2.4153,2.3884,2.3935,2.3775,2.3729,2.4656,2.4881,2.5312,2.53,2.5116,2.4772,2.4428,2.3913,2.3913,2.3569,2.3397,2.3397,2.3374,2.3831,2.4031,2.4577,2.4443,2.4321,2.4056,2.3341,2.264,2.2806,2.2473,2.2307,2.2473,2.3971,2.5121,2.5632,2.5593,2.5324,2.5031,2.4564,2.4262,2.3937,2.3541,2.3331,2.3491,2.3627,2.3036,2.2621,2.2331,2.2031,2.201,2.2059,2.2369,2.263,2.284,2.334,2.3973,2.4886,2.5784,2.5506,2.5228,2.4264,2.3673,2.3815,6.774,6.6593,6.4122,6.3626,6.3957,6.2495,6.1135,5.9799,5.8069,5.5731,5.2894,5.09,4.9515,4.8398,4.7516,4.7153,4.6831,4.6256,4.5664,4.5001,4.4067,4.3621,4.2839,4.2249,4.1593,4.1484,4.0603,4.0036,4.0227,3.8871,3.8272,3.798,3.8035,3.8592,4.0576,3.9188,3.7536,3.5961,3.5611,3.4734,3.333,3.2626,3.1555,3.0235,2.8957,2.7962,2.7252,2.6033,2.5534,2.5058,2.3862,2.3076,2.2909,2.1664,2.113,2.0932,2.0566,2.0273,2.0243,2.3004,2.412,2.4085,2.3569,2.3913,2.4085,2.3397,2.2192,2.2192,2.1158,2.0295,2.0123,2.0458,2.1429,2.1879,2.2441,2.2657,2.2376,2.2264,2.155,2.1151,2.064,1.9973,1.9806,1.9973,2.1641,2.2973,2.3805,2.4076,2.3978,2.3528,2.3068,2.2937,2.2645,2.2574,2.2527,2.2849,2.2801,2.2202,2.1779,2.1505,2.1053,2.0906,2.0994,2.1294,2.1391,2.1642,2.1961,2.2121,2.2416,2.2704,2.3414,2.3147,2.2187,2.1717,2.2029,6.61,6.4122,6.2631,6.1634,6.0801,6.0134,5.913,5.737,5.4672,5.2133,5.0115,4.8826,4.8136,4.7182,4.6314,4.582,4.5428,4.447,4.3833,4.1595,4.1114,3.9805,3.9048,3.8915,3.8631,3.8095,3.7572,3.7317,3.6971,3.6105,3.5667,3.5368,3.5385,3.5927,3.6767,3.6119,3.491,3.4032,3.3505,3.2802,3.1042,3.0336,2.9454,2.8204,2.6885,2.6045,2.5522,2.4124,2.36,2.3284,2.1905,2.112,2.113,1.9883,1.9883,1.9845,1.9684,1.968,1.9585,2.0833,2.1168,2.1158,2.1502,2.1675,2.1158,2.0813,2.0468,2.0295,1.9605,1.9087,1.9605,1.9605,2.0083,2.0236,2.0489,2.0377,2.0276,2.0165,1.9748,1.9679,1.9148,1.9138,1.8804,1.8637,1.9806,2.0807,2.1641,2.256,2.2622,2.2189,2.1737,2.1614,2.1501,2.1607,2.1722,2.2021,2.1964,2.137,2.1109,2.0692,2.0245,1.9803,1.9916,2.0194,2.0328,2.0438,2.0392,2.019,1.9452,1.9493,2.052,2.1322,2.0969,2.0691,2.0608,6.4453,6.2465,6.0801,5.9074,5.7651,5.7791,5.6731,5.4388,5.1606,4.947,4.7966,4.7136,4.6156,4.5496,4.4828,4.43,4.3957,4.2461,4.1695,3.9274,3.8401,3.7661,3.6787,3.6137,3.6621,3.6053,3.5671,3.5442,3.5251,3.4143,3.3665,3.3314,3.2978,3.2787,3.3154,3.3154,3.2978,3.1922,3.1042,3.0336,2.8924,2.7863,2.6991,2.5854,2.4815,2.3961,2.3284,2.2397,2.151,2.1241,2.0468,1.9348,1.9169,1.8813,1.8456,1.8225,1.7953,1.7614,1.7512,1.7478,1.7635,1.7592,1.8423,1.9269,1.926,1.926,1.8914,1.8569,1.8223,1.7878,1.7705,1.7705,1.7869,1.7851,1.7962,1.8036,1.8278,1.8178,1.8246,1.8014,1.8145,1.8145,1.7978,1.7968,1.8136,1.8804,1.9305,2.038,2.1113,2.0852,2.0407,2.0432,2.052,2.0628,2.0735,2.1023,2.0957,2.0539,2.0113,1.969,1.9574,1.9136,1.9271,1.9095,1.9043,1.8795,1.86,1.8284,1.773,1.783,1.8571,1.934,1.9596,1.937,1.9022,6.2436,6.1135,5.8627,5.6395,5.484,5.4955,5.3626,5.1221,4.9135,4.7655,4.6627,4.4969,4.4023,4.3092,4.2592,4.2432,4.2108,4.0537,3.9636,3.8717,3.7346,3.6449,3.6157,3.5898,3.5446,3.52,3.4794,3.3792,3.3841,3.2611,3.1746,3.1218,3.0513,2.9983,2.9983,3.0336,3.0336,2.9277,2.8747,2.7686,2.6282,2.5751,2.4686,2.3542,2.2692,2.1924,2.1045,2.0156,1.9813,1.9536,1.8928,1.8073,1.7206,1.6305,1.5241,1.4676,1.4614,1.4714,1.4812,1.4966,1.4769,1.5403,1.7245,1.8596,1.8569,1.7705,1.7186,1.6667,1.6148,1.5283,1.4583,1.4763,1.4937,1.5253,1.556,1.5827,1.6422,1.6502,1.658,1.6689,1.6982,1.6965,1.6806,1.6639,1.6798,1.73,1.795,1.8182,1.8935,1.9525,1.9241,1.9548,1.9659,1.981,1.993,2.0038,1.9623,1.9212,1.8931,1.8505,1.8406,1.8025,1.7703,1.7519,1.7443,1.7165,1.67,1.6588,1.6496,1.6618,1.6468,1.7103,1.7392,1.7204,1.6851,6.0253,5.8265,5.6072,5.4076,5.2158,4.9782,4.8465,4.8083,4.6494,4.5144,4.3959,4.2964,4.2578,4.2441,4.222,4.1844,4.1019,4.0115,3.8828,3.7525,3.588,3.5188,3.4735,3.4122,3.368,3.3235,3.242,3.1922,3.1218,3.0336,2.9454,2.8407,2.8407,2.7522,2.7168,2.7345,2.6991,2.6814,2.646,2.5396,2.4331,2.3798,2.2553,2.1425,2.0733,1.9999,1.9508,1.8748,1.8404,1.7776,1.6979,1.6127,1.5241,1.4883,1.4512,1.4272,1.4238,1.4204,1.4136,1.4122,1.3939,1.373,1.5061,1.5162,1.5479,1.5456,1.511,1.4937,1.459,1.3897,1.3551,1.3551,1.3551,1.3704,1.4022,1.4153,1.4597,1.4688,1.4777,1.5185,1.5482,1.5794,1.5626,1.5794,1.6128,1.6296,1.6597,1.667,1.6933,1.7531,1.8241,1.8557,1.8499,1.866,1.8621,1.8572,1.8145,1.7722,1.7451,1.7034,1.65,1.6143,1.5831,1.5771,1.5668,1.5104,1.4531,1.4593,1.4821,1.3766,1.3608,1.4405,1.5058,1.4867,1.4643,5.782,5.6298,5.3972,5.1648,4.8848,4.5766,4.4692,4.4633,4.3939,4.3113,4.2455,4.1786,4.1452,4.1035,4.0634,4.0056,3.9262,3.7687,3.6418,3.5774,3.4388,3.3425,3.279,3.2312,3.2022,3.1379,3.0689,3.016,2.9277,2.857,2.7699,2.6814,2.6637,2.5928,2.5396,2.5041,2.4508,2.4331,2.4153,2.362,2.2731,2.1842,2.0595,1.9302,1.8793,1.8431,1.7793,1.701,1.6481,1.6035,1.5405,1.4704,1.3631,1.3094,1.2551,1.2331,1.179,1.1595,1.1568,1.2089,1.2072,1.2213,1.2512,1.2621,1.3082,1.3397,1.3557,1.3551,1.3377,1.3204,1.3031,1.2684,1.2684,1.2684,1.2665,1.2647,1.2928,1.3036,1.3285,1.353,1.3986,1.4461,1.4789,1.4956,1.5291,1.5451,1.5571,1.5492,1.5924,1.6534,1.7069,1.7566,1.7368,1.7197,1.7143,1.708,1.6644,1.6222,1.5645,1.5256,1.459,1.4254,1.4082,1.3998,1.3891,1.334,1.2796,1.2912,1.2861,1.1955,1.1194,1.1888,1.256,1.2948,1.2572,5.5172,5.4674,5.2008,4.8633,4.543,4.3241,4.2126,4.1464,4.1354,4.1435,4.1464,4.0996,4.0058,3.9422,3.884,3.8216,3.7343,3.5825,3.4952,3.4032,3.2646,3.1786,3.151,3.1233,3.0498,2.9983,2.9291,2.8584,2.823,2.7522,2.6637,2.5573,2.5396,2.4863,2.3976,2.3087,2.2376,2.202,2.1842,2.1486,2.113,2.0239,1.8982,1.753,1.6729,1.6135,1.4976,1.4251,1.4197,1.4114,1.3989,1.3452,1.2199,1.1124,1.0403,1.0044,0.9677,0.9677,0.9668,1.0021,0.9828,0.9795,1.0107,1.0406,1.1051,1.202,1.2517,1.2511,1.2337,1.2164,1.199,1.199,1.1817,1.1817,1.1811,1.1794,1.1932,1.2192,1.2429,1.2686,1.3132,1.3615,1.3951,1.4118,1.3783,1.4272,1.4388,1.4307,1.4579,1.5028,1.5581,1.61,1.5921,1.5565,1.5644,1.541,1.4994,1.4574,1.4025,1.351,1.2869,1.2522,1.2332,1.1935,1.1697,1.1606,1.1383,1.1056,1.0747,1.0445,0.983,0.9506,0.9913,1.0304,1.037,5.3704,5.1706,4.7539,4.4751,4.322,4.1472,4.0446,3.9637,3.9121,3.9369,3.9809,3.9287,3.851,3.7657,3.7518,3.7029,3.6294,3.4685,3.4192,3.333,3.1862,3.0455,3.016,2.9468,2.8761,2.7863,2.7168,2.6637,2.6282,2.5928,2.5573,2.4508,2.3976,2.3087,2.2376,2.1308,2.0595,2.0239,1.9169,1.916,1.8982,1.8277,1.7198,1.6104,1.5324,1.4607,1.3936,1.3916,1.356,1.3439,1.2551,1.1303,0.9691,0.9153,0.8974,0.8794,0.8615,0.8256,0.8256,0.8436,0.8245,0.8412,0.8732,0.8867,0.9511,1.1003,1.1649,1.1475,1.1307,1.1134,1.1128,1.0955,1.0955,1.0949,1.1123,1.1107,1.1096,1.1335,1.1568,1.1848,1.2292,1.2442,1.2777,1.2777,1.2609,1.2584,1.2706,1.2641,1.2735,1.3175,1.3107,1.3668,1.3816,1.378,1.3853,1.3773,1.3375,1.2823,1.2283,1.1786,1.114,1.0774,1.0566,0.9891,0.9514,0.9445,0.91,0.8485,0.8178,0.8173,0.8022,0.7555,0.7086,0.7204,0.7589,5.1495,4.9774,4.5665,4.2947,4.131,4.0159,3.918,3.8531,3.7853,3.7651,3.7723,3.7675,3.7204,3.6504,3.6329,3.5803,3.5102,3.3697,3.2626,3.1746,3.0704,2.9454,2.857,2.7699,2.6801,2.5916,2.5029,2.4319,2.3964,2.3787,2.3254,2.2553,2.1842,2.1308,2.0595,1.9704,1.8813,1.8634,1.6849,1.6313,1.6671,1.6135,1.5062,1.4141,1.3401,1.2688,1.1796,1.1785,1.1439,1.1108,1.0408,1.0049,0.8794,0.8256,0.8077,0.7718,0.718,0.6639,0.6821,0.6821,0.6642,0.6632,0.7146,0.7102,0.656,0.774,0.9102,0.9097,0.964,0.9645,0.9787,0.9777,1.0101,1.0265,1.0771,1.1101,1.088,1.0628,1.0724,1.0507,1.0464,1.0112,1.0275,1.027,1.0259,1.0741,1.0865,1.0804,1.0908,1.1168,1.1274,1.1395,1.1708,1.213,1.2515,1.2143,1.1462,1.1079,1.0705,1.0217,0.9882,0.9185,0.8661,0.8166,0.7666,0.7454,0.6971,0.6362,0.5753,0.5753,0.5602,0.5299,0.4834,0.4221,0.4342,4.8588,4.7759,4.462,4.1962,3.9664,3.901,3.8211,3.7382,3.6868,3.5999,3.5419,3.6136,3.5978,3.5628,3.5102,3.4048,3.2994,3.2114,3.1056,2.9807,2.8394,2.7509,2.6624,2.5751,2.4674,2.3609,2.2721,2.1831,2.1298,2.112,2.0586,1.9883,1.9704,1.9704,1.8991,1.8099,1.7028,1.6492,1.5241,1.4168,1.3989,1.3989,1.3094,1.2176,1.1082,1.019,0.9127,0.859,0.8586,0.8237,0.8256,0.7539,0.718,0.6463,0.6463,0.5924,0.5206,0.4666,0.4486,0.4488,0.395,0.3765,0.482,0.4989,0.4448,0.497,0.6352,0.7051,0.7594,0.828,0.8427,0.8931,0.9254,0.9575,1.0245,1.0566,1.016,0.9928,0.9714,0.9331,0.897,0.8277,0.8277,0.81,0.8256,0.8907,0.9024,0.8973,0.9083,0.935,0.9617,0.9764,0.9922,1.0499,1.0736,1.0537,0.9878,0.9499,0.9133,0.8961,0.8463,0.7617,0.6958,0.6627,0.628,0.5624,0.4999,0.4391,0.3937,0.3331,0.318,0.2877,0.227,0.166,0.1204,4.5409,4.257,4.1269,3.9515,3.816,3.7851,3.7209,3.6001,3.5825,3.4893,3.3649,3.3505,3.3697,3.44,3.3697,3.2818,3.2114,3.088,2.9821,2.8761,2.7345,2.6093,2.4852,2.3798,2.2376,2.1298,2.0051,1.9339,1.8804,1.8269,1.809,1.7734,1.7742,1.7385,1.6671,1.5956,1.5598,1.4704,1.3273,1.2199,1.202,1.202,1.202,1.0935,0.9861,0.9144,0.8611,0.8607,0.8069,0.7356,0.6101,0.5206,0.4488,0.4309,0.4129,0.3769,0.3051,0.2871,0.2692,0.2513,0.1975,0.2155,0.3042,0.3039,0.2859,0.3039,0.3916,0.426,0.5145,0.6528,0.7206,0.7897,0.8227,0.854,0.8857,0.9,0.896,0.8745,0.8531,0.8327,0.8132,0.7794,0.7802,0.7632,0.7131,0.7437,0.7373,0.7332,0.7448,0.7715,0.7972,0.813,0.8297,0.8267,0.838,0.8651,0.83,0.7926,0.756,0.7073,0.6416,0.5744,0.5252,0.4778,0.4132,0.3491,0.2879,0.227,0.1666,0.106,0.0757,0.0454,-0.0151,-0.0756,-0.1056]},{"header":{"parameterUnit":"m.s-1","parameterCategory":1,"la1":31.0,"la2":29.5877,"lo1":-88.7671,"lo2":-86.6584,"dy":0.0162,"dx":0.0185,"nx":115,"ny":88,"refTime":"2023-10-10T12:00:00:Z","depth":0,"parameterNumber":3,"parameterNumberName":"V-component_of_WINDS"},"data":[0.0,0.0,0.0,0.0,0.0,0.0,0.0,0.0,0.0,0.0,0.0,0.0,0.0,0.0,0.0,0.0,0.0,0.0,0.0,0.0,0.0,0.0,0.0,0.0,0.0,0.0,0.0,0.0,0.0,0.0,0.0,0.0,0.0,0.0,0.0,0.0,0.0,0.0,0.0,0.0,0.0,0.0,0.0,0.0,0.0,0.0,0.0,0.0,0.0,0.0,0.0,0.0,0.0,0.0,0.0,0.0,0.0,0.0,0.0,0.0,0.0,0.0,0.0,0.0,0.0,0.0,0.0,0.0,0.0,0.0,0.0,0.0,0.0,0.0,0.0,0.0,0.0,0.0,0.0,0.0,0.0,0.0,0.0,0.0,0.0,0.0,0.0,0.0,0.0,0.0,0.0,0.0,0.0,0.0,0.0,0.0,0.0,0.0,0.0,0.0,0.0,0.0,0.0,0.0,0.0,0.0,0.0,0.0,0.0,0.0,0.0,0.0,0.0,0.0,0.0,0.0,0.0,0.0,0.0,0.0,0.0,0.0,0.0,0.0,0.0,0.0,0.0,0.0,0.0,0.0,0.0,0.0,0.0,0.0,0.0,0.0,0.0,0.0,0.0,0.0,0.0,0.0,0.0,0.0,0.0,0.0,0.0,0.0,0.0,0.0,0.0,0.0,0.0,0.0,0.0,0.0,0.0,0.0,0.0,0.0,0.0,0.0,0.0,0.0,0.0,0.0,0.0,0.0,0.0,0.0,0.0,0.0,0.0,0.0,0.0,0.0,0.0,0.0,0.0,0.0,0.0,0.0,0.0,0.0,0.0,0.0,0.0,0.0,0.0,0.0,0.0,0.0,0.0,0.0,0.0,0.0,0.0,0.0,0.0,0.0,0.0,0.0,0.0,0.0,0.0,0.0,0.0,0.0,0.0,0.0,0.0,0.0,0.0,0.0,0.0,0.0,0.0,0.0,0.0,0.0,0.0,0.0,0.0,0.0,0.0,0.0,0.0,0.0,0.0,0.0,0.0,0.0,0.0,0.0,0.0,0.0,0.0,0.0,0.0,0.0,0.0,0.0,0.0,0.0,0.0,0.0,0.0,0.0,0.0,0.0,0.0,0.0,0.0,0.0,0.0,0.0,0.0,0.0,0.0,0.0,0.0,0.0,0.0,0.0,0.0,0.0,0.0,0.0,0.0,0.0,0.0,0.0,0.0,0.0,0.0,0.0,0.0,0.0,0.0,0.0,0.0,0.0,0.0,0.0,0.0,0.0,0.0,0.0,0.0,0.0,0.0,0.0,0.0,0.0,0.0,0.0,0.0,0.0,0.0,0.0,0.0,0.0,0.0,0.0,0.0,0.0,0.0,0.0,0.0,0.0,0.0,0.0,0.0,0.0,0.0,0.0,0.0,0.0,0.0,0.0,0.0,0.0,0.0,0.0,0.0,0.0,0.0,0.0,0.0,0.0,0.0,0.0,0.0,0.0,0.0,0.0,0.0,0.0,0.0,0.0,0.0,0.0,0.0,0.0,0.0,0.0,0.0,0.0,0.0,0.0,0.0,0.0,0.0,0.0,0.0,0.0,0.0,0.0,0.0,0.0,0.0,0.0,0.0,0.0,0.0,0.0,0.0,0.0,0.0,0.0,0.0,0.0,0.0,0.0,0.0,0.0,0.0,0.0,0.0,0.0,0.0,0.0,0.0,0.0,0.0,0.0,0.0,0.0,0.0,0.0,0.0,0.0,0.0,0.0,0.0,0.0,0.0,0.0,0.0,0.0,0.0,0.0,0.0,0.0,0.0,0.0,0.0,0.0,0.0,0.0,0.0,0.0,0.0,0.0,0.0,0.0,0.0,0.0,0.0,0.0,0.0,0.0,0.0,0.0,0.0,0.0,0.0,0.0,0.0,0.0,0.0,0.0,0.0,0.0,0.0,0.0,0.0,0.0,0.0,0.0,0.0,0.0,0.0,0.0,0.0,0.0,0.0,0.0,0.0,0.0,0.0,0.0,0.0,0.0,0.0,0.0,0.0,0.0,0.0,0.0,0.0,0.0,0.0,0.0,0.0,0.0,0.0,0.0,0.0,0.0,0.0,0.0,0.0,0.0,0.0,0.0,0.0,0.0,0.0,0.0,0.0,0.0,0.0,0.0,0.0,0.0,0.0,0.0,0.0,0.0,0.0,0.0,0.0,0.0,0.0,0.0,0.0,0.0,0.0,0.0,0.0,0.0,0.0,0.0,0.0,0.0,0.0,0.0,0.0,0.0,0.0,0.0,0.0,0.0,0.0,0.0,0.0,0.0,0.0,0.0,0.0,0.0,0.0,0.0,0.0,0.0,0.0,0.0,0.0,0.0,0.0,0.0,0.0,0.0,0.0,0.0,0.0,0.0,0.0,0.0,0.0,0.0,0.0,0.0,0.0,0.0,0.0,0.0,0.0,0.0,0.0,0.0,0.0,0.0,0.0,0.0,0.0,0.0,0.0,0.0,0.0,0.0,0.0,0.0,0.0,0.0,0.0,0.0,0.0,0.0,0.0,0.0,0.0,0.0,0.0,0.0,0.0,0.0,0.0,0.0,0.0,0.0,0.0,0.0,0.0,0.0,0.0,0.0,0.0,0.0,0.0,0.0,0.0,0.0,0.0,0.0,0.0,0.0,0.0,0.0,0.0,0.0,0.0,0.0,0.0,0.0,0.0,0.0,0.0,0.0,0.0,0.0,0.0,0.0,0.0,0.0,0.0,0.0,0.0,0.0,0.0,0.0,0.0,0.0,0.0,0.0,0.0,0.0,0.0,0.0,0.0,0.0,0.0,0.0,0.0,0.0,0.0,0.0,0.0,0.0,0.0,0.0,0.0,0.0,0.0,0.0,0.0,0.0,0.0,0.0,0.0,0.0,0.0,0.0,0.0,0.0,0.0,0.0,0.0,0.0,0.0,0.0,0.0,0.0,0.0,0.0,0.0,0.0,0.0,0.0,0.0,0.0,0.0,0.0,0.0,0.0,0.0,0.0,0.0,0.0,0.0,0.0,0.0,0.0,0.0,0.0,0.0,0.0,0.0,0.0,0.0,0.0,0.0,0.0,0.0,0.0,0.0,0.0,0.0,0.0,0.0,0.0,0.0,0.0,0.0,0.0,0.0,0.0,0.0,0.0,0.0,0.0,0.0,0.0,0.0,0.0,0.0,0.0,0.0,0.0,0.0,0.0,0.0,0.0,0.0,0.0,0.0,0.0,0.0,0.0,0.0,0.0,0.0,0.0,0.0,0.0,0.0,0.0,0.0,0.0,0.0,0.0,0.0,0.0,0.0,0.0,0.0,0.0,0.0,0.0,0.0,0.0,0.0,0.0,0.0,0.0,0.0,0.0,0.0,0.0,0.0,0.0,0.0,0.0,0.0,0.0,0.0,0.0,0.0,0.0,0.0,0.0,0.0,0.0,0.0,0.0,0.0,0.0,0.0,0.0,0.0,0.0,0.0,0.0,0.0,0.0,0.0,0.0,0.0,0.0,0.0,0.0,0.0,0.0,0.0,0.0,0.0,0.0,0.0,0.0,0.0,0.0,0.0,0.0,0.0,0.0,0.0,0.0,0.0,0.0,0.0,0.0,0.0,0.0,0.0,0.0,0.0,0.0,0.0,0.0,0.0,0.0,0.0,0.0,0.0,0.0,0.0,0.0,0.0,0.0,0.0,0.0,0.0,0.0,0.0,0.0,0.0,0.0,0.0,0.0,0.0,0.0,0.0,0.0,0.0,0.0,0.0,0.0,0.0,0.0,0.0,0.0,0.0,0.0,0.0,0.0,0.0,0.0,0.0,0.0,0.0,0.0,0.0,0.0,0.0,0.0,0.0,0.0,0.0,0.0,0.0,0.0,0.0,0.0,0.0,0.0,0.0,0.0,0.0,0.0,0.0,0.0,0.0,0.0,0.0,0.0,0.0,0.0,0.0,0.0,0.0,0.0,0.0,0.0,0.0,0.0,0.0,0.0,0.0,0.0,0.0,0.0,0.0,0.0,0.0,0.0,0.0,0.0,0.0,0.0,0.0,0.0,0.0,0.0,0.0,0.0,0.0,0.0,0.0,0.0,0.0,0.0,0.0,0.0,0.0,0.0,0.0,0.0,0.0,0.0,0.0,0.0,0.0,0.0,0.0,0.0,0.0,0.0,0.0,0.0,0.0,0.0,0.0,0.0,0.0,0.0,0.0,0.0,0.0,0.0,0.0,0.0,0.0,0.0,0.0,0.0,0.0,0.0,0.0,0.0,0.0,0.0,0.0,0.0,0.0,0.0,5.7936,0.0,0.0,0.0,0.0,0.0,0.0,0.0,0.0,0.0,0.0,0.0,0.0,0.0,0.0,0.0,0.0,0.0,0.0,0.0,0.0,0.0,0.0,0.0,0.0,0.0,0.0,0.0,0.0,0.0,0.0,0.0,0.0,0.0,0.0,0.0,0.0,0.0,0.0,0.0,0.0,0.0,0.0,0.0,0.0,0.0,0.0,0.0,0.0,0.0,0.0,0.0,0.0,0.0,0.0,0.0,0.0,0.0,0.0,0.0,0.0,0.0,0.0,0.0,0.0,0.0,0.0,0.0,0.0,0.0,0.0,0.0,0.0,0.0,0.0,0.0,0.0,0.0,0.0,0.0,0.0,0.0,0.0,0.0,0.0,0.0,0.0,0.0,0.0,0.0,0.0,0.0,0.0,0.0,0.0,0.0,0.0,0.0,0.0,0.0,0.0,0.0,0.0,0.0,0.0,0.0,0.0,0.0,0.0,0.0,0.0,5.957,5.7949,5.8182,5.8378,5.8556,0.0,0.0,0.0,0.0,0.0,0.0,0.0,0.0,0.0,0.0,0.0,0.0,0.0,0.0,0.0,0.0,0.0,0.0,0.0,0.0,0.0,0.0,0.0,0.0,0.0,0.0,0.0,0.0,0.0,0.0,0.0,0.0,0.0,0.0,0.0,0.0,0.0,0.0,0.0,0.0,0.0,0.0,0.0,0.0,0.0,0.0,0.0,0.0,0.0,0.0,0.0,0.0,0.0,0.0,0.0,0.0,0.0,0.0,0.0,0.0,0.0,0.0,0.0,0.0,0.0,0.0,0.0,0.0,0.0,0.0,0.0,0.0,0.0,0.0,0.0,0.0,0.0,0.0,0.0,0.0,0.0,0.0,0.0,0.0,0.0,0.0,0.0,0.0,0.0,0.0,0.0,0.0,0.0,0.0,0.0,0.0,0.0,0.0,0.0,0.0,0.0,0.0,0.0,0.0,0.0,0.0,0.0,0.0,0.0,0.0,0.0,0.0,5.8199,5.855,5.9004,0.0,0.0,0.0,0.0,0.0,0.0,0.0,0.0,0.0,0.0,0.0,0.0,0.0,0.0,0.0,0.0,0.0,0.0,0.0,0.0,0.0,0.0,0.0,0.0,0.0,0.0,0.0,0.0,0.0,0.0,0.0,0.0,0.0,0.0,0.0,0.0,0.0,0.0,0.0,0.0,0.0,0.0,0.0,0.0,0.0,0.0,0.0,0.0,0.0,0.0,0.0,0.0,0.0,0.0,0.0,0.0,0.0,0.0,0.0,0.0,0.0,0.0,0.0,0.0,0.0,0.0,0.0,0.0,0.0,0.0,0.0,0.0,0.0,0.0,0.0,0.0,0.0,0.0,0.0,0.0,0.0,0.0,0.0,0.0,0.0,0.0,0.0,0.0,0.0,0.0,0.0,0.0,0.0,0.0,0.0,0.0,0.0,0.0,0.0,0.0,0.0,0.0,0.0,0.0,0.0,0.0,0.0,0.0,0.0,0.0,5.9502,5.851,5.8357,0.0,5.9004,0.0,0.0,0.0,0.0,0.0,0.0,0.0,0.0,0.0,0.0,0.0,0.0,0.0,0.0,0.0,0.0,0.0,0.0,0.0,0.0,0.0,0.0,0.0,0.0,0.0,0.0,0.0,0.0,0.0,0.0,0.0,0.0,0.0,0.0,0.0,0.0,0.0,0.0,0.0,0.0,0.0,0.0,0.0,0.0,0.0,0.0,0.0,0.0,0.0,0.0,0.0,0.0,0.0,0.0,0.0,0.0,0.0,0.0,0.0,0.0,0.0,0.0,0.0,0.0,0.0,0.0,0.0,0.0,0.0,0.0,0.0,0.0,0.0,0.0,0.0,0.0,0.0,0.0,0.0,0.0,0.0,0.0,0.0,0.0,0.0,0.0,0.0,0.0,0.0,0.0,0.0,0.0,0.0,0.0,0.0,0.0,0.0,0.0,0.0,0.0,0.0,0.0,0.0,0.0,0.0,0.0,0.0,0.0,0.0,0.0,5.9308,5.8525,5.8637,5.8824,0.0,0.0,0.0,0.0,0.0,0.0,0.0,0.0,0.0,0.0,0.0,0.0,0.0,0.0,0.0,0.0,0.0,0.0,0.0,0.0,0.0,0.0,0.0,0.0,0.0,0.0,0.0,0.0,0.0,0.0,0.0,0.0,0.0,0.0,0.0,0.0,0.0,0.0,0.0,0.0,0.0,0.0,0.0,0.0,0.0,0.0,0.0,0.0,0.0,0.0,0.0,0.0,0.0,0.0,0.0,0.0,0.0,0.0,0.0,0.0,0.0,0.0,0.0,0.0,0.0,0.0,0.0,0.0,0.0,0.0,0.0,0.0,0.0,0.0,0.0,0.0,0.0,0.0,0.0,0.0,0.0,0.0,0.0,0.0,0.0,0.0,0.0,0.0,0.0,0.0,0.0,0.0,0.0,0.0,0.0,0.0,0.0,0.0,0.0,0.0,0.0,0.0,0.0,0.0,0.0,0.0,0.0,0.0,0.0,0.0,6.016,5.9412,5.8669,5.8868,5.9004,5.9004,0.0,0.0,0.0,0.0,0.0,0.0,0.0,0.0,0.0,0.0,0.0,0.0,0.0,0.0,0.0,0.0,0.0,0.0,0.0,0.0,0.0,0.0,0.0,0.0,0.0,0.0,0.0,0.0,0.0,0.0,0.0,0.0,0.0,0.0,0.0,0.0,0.0,0.0,0.0,0.0,0.0,0.0,0.0,0.0,0.0,0.0,0.0,0.0,0.0,0.0,0.0,0.0,0.0,0.0,0.0,0.0,0.0,0.0,0.0,0.0,0.0,0.0,0.0,0.0,0.0,0.0,0.0,0.0,0.0,0.0,0.0,0.0,0.0,0.0,0.0,0.0,0.0,0.0,0.0,0.0,0.0,0.0,0.0,0.0,0.0,0.0,0.0,0.0,0.0,0.0,0.0,0.0,0.0,0.0,0.0,0.0,0.0,0.0,0.0,0.0,0.0,0.0,0.0,0.0,0.0,0.0,0.0,0.0,6.152,6.0645,5.9749,5.8923,5.8977,5.9004,0.0,0.0,0.0,0.0,0.0,0.0,0.0,0.0,0.0,0.0,0.0,0.0,0.0,0.0,0.0,0.0,0.0,0.0,0.0,0.0,0.0,0.0,0.0,0.0,0.0,0.0,0.0,0.0,0.0,0.0,0.0,0.0,0.0,0.0,0.0,0.0,0.0,0.0,0.0,0.0,0.0,0.0,0.0,0.0,0.0,0.0,0.0,0.0,0.0,0.0,0.0,0.0,0.0,0.0,0.0,0.0,0.0,0.0,0.0,0.0,0.0,0.0,0.0,0.0,0.0,0.0,0.0,0.0,0.0,0.0,0.0,0.0,0.0,0.0,0.0,0.0,0.0,0.0,0.0,0.0,0.0,0.0,0.0,0.0,0.0,0.0,0.0,0.0,0.0,0.0,0.0,0.0,0.0,0.0,0.0,0.0,0.0,0.0,0.0,0.0,0.0,0.0,0.0,0.0,0.0,0.0,0.0,0.0,0.0,6.1328,6.0757,6.0098,5.9419,6.0011,6.0156,0.0,0.0,0.0,0.0,0.0,0.0,0.0,0.0,0.0,0.0,0.0,0.0,0.0,0.0,0.0,0.0,0.0,0.0,0.0,0.0,0.0,0.0,0.0,0.0,0.0,0.0,0.0,0.0,0.0,0.0,0.0,0.0,0.0,0.0,0.0,0.0,0.0,0.0,0.0,0.0,0.0,0.0,0.0,0.0,0.0,0.0,0.0,0.0,0.0,0.0,0.0,0.0,0.0,0.0,0.0,0.0,0.0,0.0,0.0,0.0,0.0,0.0,0.0,0.0,0.0,0.0,0.0,0.0,0.0,0.0,0.0,0.0,0.0,0.0,0.0,0.0,0.0,0.0,0.0,0.0,0.0,0.0,0.0,0.0,0.0,0.0,0.0,0.0,0.0,0.0,0.0,0.0,0.0,0.0,0.0,0.0,0.0,0.0,0.0,0.0,0.0,0.0,0.0,0.0,0.0,0.0,0.0,0.0,0.0,6.1072,0.0,6.0397,6.0009,6.0725,6.086,0.0,0.0,0.0,0.0,0.0,0.0,0.0,0.0,0.0,0.0,0.0,0.0,0.0,0.0,0.0,0.0,0.0,0.0,0.0,0.0,0.0,0.0,0.0,0.0,0.0,0.0,0.0,0.0,0.0,0.0,0.0,0.0,0.0,0.0,0.0,0.0,0.0,0.0,0.0,0.0,0.0,0.0,0.0,0.0,0.0,0.0,0.0,0.0,0.0,0.0,0.0,0.0,0.0,0.0,0.0,0.0,0.0,0.0,0.0,0.0,0.0,0.0,0.0,0.0,0.0,0.0,0.0,0.0,0.0,0.0,0.0,0.0,0.0,0.0,0.0,0.0,0.0,0.0,0.0,0.0,0.0,0.0,0.0,0.0,0.0,0.0,0.0,0.0,0.0,0.0,0.0,0.0,0.0,0.0,0.0,0.0,0.0,0.0,0.0,0.0,0.0,0.0,0.0,0.0,0.0,0.0,0.0,0.0,6.139,6.0876,6.0718,6.0721,6.0646,6.1058,6.118,0.0,0.0,0.0,0.0,0.0,0.0,0.0,0.0,0.0,0.0,0.0,0.0,0.0,0.0,0.0,0.0,0.0,0.0,0.0,0.0,0.0,0.0,0.0,0.0,0.0,0.0,0.0,0.0,0.0,0.0,0.0,0.0,0.0,0.0,0.0,0.0,0.0,0.0,0.0,0.0,0.0,0.0,0.0,0.0,0.0,0.0,0.0,0.0,0.0,0.0,0.0,0.0,0.0,0.0,0.0,0.0,0.0,0.0,0.0,0.0,0.0,0.0,0.0,0.0,0.0,0.0,0.0,0.0,0.0,0.0,0.0,0.0,0.0,0.0,0.0,0.0,0.0,0.0,0.0,0.0,0.0,0.0,0.0,0.0,0.0,0.0,0.0,0.0,0.0,0.0,0.0,0.0,0.0,0.0,0.0,0.0,0.0,0.0,0.0,0.0,0.0,0.0,0.0,0.0,0.0,0.0,0.0,0.0,0.0,6.1502,6.2062,6.2561,6.2705,6.3381,6.3353,0.0,0.0,0.0,0.0,0.0,0.0,0.0,0.0,0.0,0.0,0.0,0.0,0.0,0.0,0.0,0.0,0.0,0.0,0.0,0.0,0.0,0.0,0.0,0.0,0.0,0.0,0.0,0.0,0.0,0.0,0.0,0.0,0.0,0.0,0.0,0.0,0.0,0.0,0.0,0.0,0.0,0.0,0.0,0.0,0.0,0.0,0.0,0.0,0.0,0.0,0.0,0.0,0.0,0.0,0.0,0.0,0.0,0.0,0.0,0.0,0.0,0.0,0.0,0.0,0.0,0.0,0.0,0.0,0.0,0.0,0.0,0.0,0.0,0.0,0.0,0.0,0.0,0.0,0.0,0.0,0.0,0.0,0.0,0.0,0.0,0.0,0.0,0.0,0.0,0.0,0.0,0.0,0.0,0.0,0.0,0.0,0.0,0.0,0.0,0.0,0.0,0.0,0.0,0.0,0.0,0.0,0.0,0.0,0.0,6.3349,6.3601,6.3929,6.4452,6.5393,6.5382,6.4591,0.0,0.0,0.0,0.0,0.0,0.0,0.0,0.0,0.0,0.0,0.0,0.0,0.0,0.0,0.0,0.0,0.0,0.0,0.0,0.0,0.0,0.0,0.0,0.0,0.0,0.0,0.0,0.0,0.0,0.0,0.0,0.0,0.0,0.0,0.0,0.0,0.0,0.0,0.0,0.0,0.0,0.0,0.0,0.0,0.0,0.0,0.0,0.0,0.0,0.0,0.0,0.0,0.0,0.0,0.0,0.0,0.0,0.0,0.0,0.0,0.0,0.0,0.0,0.0,0.0,0.0,0.0,0.0,0.0,0.0,0.0,0.0,0.0,0.0,0.0,0.0,0.0,0.0,0.0,0.0,0.0,0.0,0.0,0.0,0.0,0.0,0.0,0.0,0.0,0.0,0.0,0.0,0.0,0.0,0.0,0.0,0.0,0.0,0.0,0.0,0.0,0.0,0.0,0.0,0.0,0.0,0.0,0.0,6.6057,6.5429,6.5326,6.5941,6.7018,6.7362,0.0,0.0,0.0,0.0,0.0,0.0,0.0,0.0,0.0,0.0,0.0,0.0,0.0,0.0,0.0,0.0,0.0,0.0,0.0,0.0,0.0,0.0,0.0,0.0,0.0,0.0,0.0,0.0,0.0,0.0,0.0,0.0,0.0,0.0,0.0,0.0,0.0,0.0,0.0,0.0,0.0,0.0,0.0,0.0,0.0,0.0,0.0,0.0,0.0,0.0,0.0,0.0,0.0,0.0,0.0,0.0,0.0,0.0,0.0,0.0,0.0,0.0,0.0,0.0,0.0,0.0,0.0,0.0,0.0,0.0,0.0,0.0,0.0,0.0,0.0,0.0,0.0,0.0,0.0,0.0,0.0,0.0,0.0,0.0,0.0,0.0,0.0,0.0,0.0,0.0,0.0,0.0,0.0,0.0,0.0,0.0,0.0,0.0,0.0,0.0,0.0,0.0,0.0,0.0,0.0,0.0,0.0,0.0,0.0,6.8374,6.9023,6.882,6.8065,6.939,6.9585,0.0,0.0,0.0,0.0,0.0,0.0,0.0,0.0,0.0,0.0,0.0,0.0,0.0,0.0,0.0,0.0,0.0,0.0,0.0,0.0,0.0,0.0,0.0,0.0,0.0,0.0,0.0,0.0,0.0,0.0,0.0,0.0,0.0,0.0,0.0,0.0,0.0,0.0,0.0,0.0,0.0,0.0,0.0,0.0,0.0,0.0,0.0,0.0,0.0,0.0,0.0,0.0,0.0,0.0,0.0,0.0,0.0,0.0,0.0,0.0,0.0,0.0,0.0,0.0,0.0,0.0,0.0,0.0,0.0,0.0,0.0,0.0,0.0,0.0,0.0,0.0,0.0,0.0,0.0,0.0,0.0,0.0,0.0,0.0,0.0,0.0,0.0,0.0,0.0,0.0,0.0,0.0,0.0,0.0,0.0,0.0,0.0,0.0,0.0,0.0,0.0,0.0,0.0,0.0,0.0,0.0,0.0,0.0,6.8633,7.0717,7.1948,7.237,7.1845,7.2147,7.1612,0.0,0.0,0.0,0.0,0.0,0.0,0.0,0.0,0.0,0.0,0.0,0.0,0.0,0.0,0.0,0.0,0.0,0.0,0.0,0.0,0.0,0.0,0.0,0.0,0.0,0.0,0.0,0.0,0.0,0.0,0.0,0.0,0.0,0.0,0.0,0.0,0.0,0.0,0.0,0.0,0.0,0.0,0.0,0.0,0.0,0.0,0.0,0.0,0.0,0.0,0.0,0.0,0.0,0.0,0.0,0.0,0.0,0.0,0.0,0.0,0.0,0.0,0.0,0.0,0.0,0.0,0.0,0.0,0.0,0.0,0.0,0.0,0.0,0.0,0.0,0.0,0.0,0.0,0.0,0.0,0.0,0.0,0.0,0.0,0.0,0.0,0.0,0.0,0.0,0.0,0.0,0.0,0.0,0.0,0.0,0.0,0.0,0.0,0.0,0.0,0.0,0.0,0.0,0.0,0.0,0.0,0.0,0.0,7.0978,7.2763,7.4375,7.549,7.6092,7.4843,7.3747,0.0,0.0,0.0,0.0,0.0,0.0,0.0,0.0,0.0,0.0,0.0,0.0,0.0,0.0,0.0,0.0,0.0,0.0,0.0,0.0,0.0,0.0,0.0,0.0,0.0,0.0,0.0,0.0,0.0,0.0,0.0,0.0,0.0,0.0,0.0,0.0,0.0,0.0,0.0,0.0,0.0,0.0,0.0,0.0,0.0,0.0,0.0,0.0,0.0,0.0,0.0,0.0,0.0,0.0,0.0,0.0,0.0,0.0,0.0,0.0,0.0,0.0,0.0,0.0,0.0,0.0,0.0,0.0,0.0,0.0,0.0,0.0,0.0,0.0,0.0,0.0,0.0,0.0,0.0,0.0,0.0,0.0,0.0,0.0,0.0,0.0,0.0,0.0,0.0,0.0,0.0,0.0,0.0,0.0,0.0,0.0,0.0,0.0,0.0,0.0,0.0,0.0,0.0,0.0,0.0,0.0,0.0,0.0,7.252,7.4375,7.587,7.6868,7.7453,7.7184,7.6323,0.0,0.0,0.0,0.0,0.0,0.0,0.0,0.0,0.0,0.0,0.0,0.0,0.0,0.0,0.0,0.0,0.0,0.0,0.0,0.0,0.0,0.0,0.0,0.0,0.0,0.0,0.0,0.0,0.0,0.0,0.0,0.0,0.0,0.0,0.0,0.0,0.0,0.0,0.0,0.0,0.0,0.0,0.0,0.0,0.0,0.0,0.0,0.0,7.9291,0.0,0.0,0.0,0.0,0.0,0.0,0.0,0.0,0.0,0.0,0.0,0.0,0.0,0.0,0.0,0.0,0.0,0.0,0.0,0.0,0.0,0.0,0.0,0.0,0.0,0.0,0.0,0.0,0.0,0.0,0.0,0.0,0.0,0.0,0.0,0.0,0.0,0.0,0.0,0.0,0.0,0.0,0.0,0.0,0.0,0.0,0.0,0.0,0.0,0.0,0.0,0.0,0.0,0.0,0.0,0.0,0.0,0.0,0.0,7.4747,7.6432,7.7742,7.8943,7.987,7.9611,7.8496,0.0,0.0,0.0,0.0,0.0,0.0,0.0,0.0,0.0,0.0,0.0,0.0,0.0,0.0,0.0,0.0,0.0,0.0,0.0,0.0,0.0,0.0,0.0,0.0,0.0,0.0,0.0,0.0,0.0,0.0,0.0,0.0,0.0,0.0,0.0,0.0,0.0,0.0,0.0,0.0,0.0,0.0,0.0,0.0,0.0,0.0,0.0,0.0,0.0,0.0,0.0,0.0,0.0,0.0,0.0,0.0,0.0,0.0,0.0,0.0,0.0,0.0,0.0,0.0,0.0,0.0,0.0,0.0,0.0,0.0,0.0,0.0,0.0,0.0,0.0,0.0,0.0,0.0,0.0,0.0,0.0,0.0,0.0,0.0,0.0,0.0,0.0,0.0,0.0,0.0,0.0,0.0,0.0,0.0,0.0,0.0,0.0,0.0,0.0,0.0,0.0,0.0,0.0,0.0,0.0,0.0,0.0,7.5299,7.716,7.8553,7.9994,8.1274,8.2363,8.1913,8.0481,7.7981,0.0,0.0,0.0,0.0,0.0,0.0,0.0,0.0,0.0,0.0,0.0,0.0,0.0,0.0,0.0,0.0,0.0,0.0,0.0,0.0,0.0,0.0,0.0,0.0,0.0,0.0,0.0,0.0,0.0,0.0,0.0,0.0,0.0,0.0,0.0,0.0,0.0,0.0,7.5486,7.7517,0.0,0.0,0.0,0.0,0.0,0.0,0.0,0.0,8.5952,0.0,0.0,0.0,0.0,0.0,0.0,0.0,0.0,0.0,0.0,0.0,0.0,0.0,0.0,0.0,0.0,0.0,0.0,0.0,0.0,0.0,0.0,0.0,0.0,0.0,0.0,0.0,0.0,0.0,0.0,0.0,0.0,0.0,0.0,0.0,0.0,0.0,0.0,0.0,0.0,0.0,0.0,0.0,0.0,0.0,0.0,0.0,0.0,0.0,0.0,0.0,0.0,0.0,0.0,0.0,0.0,7.5801,7.7906,7.953,8.0612,8.2591,8.344,8.3067,8.3769,8.3234,8.1138,0.0,0.0,0.0,0.0,0.0,0.0,0.0,0.0,0.0,0.0,0.0,0.0,0.0,0.0,0.0,0.0,0.0,0.0,0.0,0.0,0.0,0.0,0.0,0.0,0.0,0.0,0.0,0.0,0.0,0.0,0.0,0.0,0.0,0.0,0.0,0.0,0.0,0.0,0.0,8.1953,8.367,0.0,0.0,0.0,0.0,0.0,0.0,0.0,0.0,8.7803,0.0,0.0,0.0,0.0,0.0,0.0,0.0,0.0,0.0,0.0,0.0,0.0,0.0,0.0,0.0,0.0,0.0,0.0,0.0,0.0,0.0,0.0,0.0,0.0,0.0,0.0,0.0,0.0,0.0,0.0,0.0,0.0,0.0,0.0,0.0,0.0,0.0,0.0,0.0,0.0,0.0,0.0,0.0,0.0,0.0,0.0,0.0,0.0,0.0,0.0,0.0,0.0,0.0,0.0,0.0,7.7772,7.9702,8.1149,8.2172,8.3916,8.4841,8.4859,8.4796,8.4266,0.0,0.0,0.0,0.0,0.0,0.0,0.0,0.0,0.0,0.0,0.0,0.0,0.0,0.0,0.0,0.0,0.0,0.0,0.0,0.0,0.0,0.0,0.0,0.0,0.0,0.0,0.0,0.0,0.0,0.0,0.0,0.0,0.0,0.0,0.0,0.0,0.0,0.0,0.0,0.0,8.3959,8.5818,8.7809,0.0,0.0,0.0,0.0,0.0,0.0,9.2083,9.1262,0.0,0.0,0.0,0.0,0.0,0.0,0.0,0.0,0.0,0.0,0.0,0.0,0.0,0.0,0.0,0.0,0.0,0.0,0.0,0.0,0.0,0.0,0.0,0.0,0.0,0.0,0.0,0.0,0.0,0.0,0.0,0.0,0.0,0.0,0.0,0.0,0.0,0.0,0.0,0.0,0.0,0.0,0.0,0.0,0.0,0.0,0.0,0.0,0.0,0.0,0.0,0.0,0.0,0.0,0.0,7.9417,8.1492,8.2958,8.3794,8.5501,8.6563,8.6843,8.6082,8.5233,0.0,0.0,0.0,0.0,0.0,0.0,0.0,0.0,0.0,0.0,0.0,0.0,0.0,0.0,0.0,0.0,0.0,0.0,0.0,0.0,0.0,0.0,0.0,0.0,0.0,0.0,0.0,0.0,0.0,0.0,0.0,0.0,0.0,0.0,0.0,0.0,0.0,0.0,0.0,0.0,0.0,8.8092,9.0201,9.2247,0.0,0.0,0.0,0.0,9.5332,9.4864,0.0,0.0,0.0,0.0,0.0,0.0,0.0,0.0,0.0,0.0,0.0,0.0,0.0,0.0,0.0,0.0,0.0,0.0,0.0,0.0,0.0,0.0,0.0,0.0,0.0,0.0,0.0,0.0,0.0,0.0,0.0,0.0,0.0,0.0,0.0,0.0,0.0,0.0,0.0,0.0,0.0,0.0,0.0,0.0,0.0,0.0,0.0,0.0,0.0,0.0,0.0,0.0,0.0,0.0,0.0,0.0,8.0901,8.4062,8.5853,8.6049,8.8575,8.9462,8.8315,8.8408,8.7425,0.0,0.0,0.0,0.0,0.0,0.0,0.0,0.0,0.0,0.0,0.0,0.0,0.0,0.0,0.0,0.0,0.0,0.0,0.0,0.0,0.0,0.0,0.0,0.0,0.0,0.0,0.0,0.0,0.0,0.0,0.0,0.0,0.0,0.0,0.0,0.0,0.0,0.0,0.0,0.0,0.0,9.1918,9.4379,9.5482,9.6309,0.0,0.0,9.7481,9.7343,9.624,0.0,0.0,0.0,0.0,0.0,0.0,0.0,0.0,0.0,0.0,0.0,0.0,0.0,0.0,0.0,0.0,0.0,0.0,0.0,0.0,0.0,0.0,0.0,0.0,0.0,0.0,0.0,0.0,0.0,0.0,0.0,0.0,0.0,0.0,0.0,0.0,0.0,0.0,0.0,0.0,0.0,0.0,0.0,0.0,0.0,0.0,0.0,0.0,0.0,0.0,0.0,0.0,0.0,0.0,0.0,8.0834,8.3366,8.5313,8.6664,8.7413,8.947,9.0299,8.9723,8.9704,8.8597,0.0,0.0,0.0,0.0,0.0,0.0,0.0,0.0,0.0,0.0,0.0,0.0,0.0,0.0,0.0,0.0,0.0,0.0,0.0,0.0,0.0,0.0,0.0,0.0,0.0,0.0,0.0,0.0,0.0,0.0,0.0,0.0,0.0,0.0,0.0,0.0,0.0,0.0,0.0,0.0,0.0,0.0,9.4846,9.7011,0.0,0.0,0.0,10.009,9.9676,0.0,0.0,0.0,0.0,0.0,0.0,0.0,0.0,0.0,0.0,0.0,0.0,0.0,0.0,0.0,0.0,0.0,0.0,0.0,0.0,0.0,0.0,0.0,0.0,0.0,0.0,0.0,0.0,0.0,0.0,0.0,0.0,0.0,0.0,0.0,0.0,0.0,0.0,0.0,0.0,0.0,0.0,0.0,0.0,0.0,0.0,0.0,0.0,0.0,0.0,0.0,0.0,0.0,0.0,0.0,0.0,0.0,8.5483,8.668,8.7984,8.9181,9.081,9.145,9.113,9.1067,0.0,0.0,0.0,0.0,0.0,0.0,0.0,0.0,0.0,0.0,0.0,0.0,0.0,0.0,0.0,0.0,0.0,0.0,0.0,0.0,0.0,0.0,0.0,0.0,0.0,0.0,0.0,8.4776,0.0,0.0,0.0,0.0,0.0,0.0,0.0,0.0,0.0,0.0,0.0,0.0,0.0,0.0,9.4034,9.5777,9.8263,10.0021,0.0,0.0,10.2022,10.147,10.0504,9.9331,0.0,0.0,0.0,0.0,0.0,0.0,0.0,0.0,0.0,0.0,0.0,0.0,0.0,0.0,0.0,0.0,0.0,0.0,0.0,0.0,0.0,0.0,0.0,0.0,0.0,0.0,0.0,0.0,0.0,0.0,0.0,0.0,0.0,0.0,0.0,0.0,0.0,0.0,0.0,0.0,0.0,0.0,0.0,0.0,0.0,0.0,0.0,0.0,0.0,0.0,0.0,0.0,0.0,0.0,0.0,8.6721,8.894,9.063,9.1753,9.3559,9.3882,9.2673,9.3215,9.2188,0.0,0.0,0.0,0.0,0.0,0.0,0.0,0.0,0.0,0.0,0.0,0.0,0.0,0.0,0.0,0.0,0.0,0.0,0.0,0.0,0.0,0.0,0.0,0.0,0.0,0.0,0.0,0.0,0.0,0.0,0.0,0.0,0.0,0.0,0.0,0.0,0.0,0.0,0.0,0.0,0.0,9.6184,9.8856,9.964,10.0435,0.0,0.0,10.216,10.2091,10.0849,9.9814,9.9676,0.0,0.0,0.0,0.0,0.0,0.0,0.0,0.0,0.0,0.0,0.0,0.0,0.0,0.0,0.0,0.0,0.0,0.0,0.0,0.0,0.0,0.0,0.0,0.0,0.0,0.0,0.0,0.0,0.0,0.0,0.0,0.0,0.0,0.0,0.0,0.0,0.0,0.0,0.0,0.0,0.0,0.0,0.0,0.0,0.0,0.0,0.0,0.0,0.0,0.0,0.0,0.0,0.0,8.7152,8.8644,9.0482,9.173,9.2644,9.4068,9.4522,9.401,9.4255,9.3694,0.0,0.0,0.0,0.0,0.0,0.0,0.0,0.0,0.0,0.0,0.0,0.0,0.0,0.0,0.0,0.0,0.0,0.0,0.0,0.0,0.0,0.0,0.0,0.0,0.0,0.0,0.0,0.0,9.5601,9.621,9.6074,0.0,0.0,0.0,0.0,0.0,0.0,0.0,0.0,0.0,0.0,9.7976,9.9337,10.0948,0.0,0.0,10.3263,10.3401,10.2918,10.2366,10.1677,10.078,9.8642,0.0,0.0,0.0,0.0,0.0,0.0,0.0,0.0,0.0,0.0,0.0,0.0,0.0,0.0,0.0,0.0,0.0,0.0,0.0,0.0,0.0,0.0,0.0,0.0,0.0,0.0,0.0,0.0,0.0,0.0,0.0,0.0,0.0,0.0,0.0,0.0,0.0,0.0,0.0,0.0,0.0,0.0,0.0,0.0,0.0,0.0,0.0,0.0,0.0,0.0,0.0,0.0,8.9204,9.0745,9.2219,9.3335,9.4178,9.5414,9.5866,9.5418,9.5879,9.5593,0.0,0.0,0.0,0.0,0.0,0.0,0.0,0.0,0.0,0.0,0.0,0.0,0.0,0.0,0.0,0.0,0.0,0.0,0.0,0.0,0.0,0.0,0.0,0.0,0.0,0.0,0.0,0.0,9.8578,9.9046,9.8092,0.0,0.0,0.0,0.0,0.0,0.0,0.0,0.0,0.0,0.0,9.9974,10.0437,10.2326,10.3746,10.3953,10.4643,10.498,10.4488,10.4151,10.3668,10.2692,0.0,0.0,0.0,0.0,0.0,0.0,0.0,0.0,0.0,0.0,0.0,0.0,0.0,0.0,0.0,0.0,0.0,0.0,0.0,0.0,0.0,0.0,0.0,0.0,0.0,0.0,0.0,7.9988,0.0,0.0,8.0457,0.0,0.0,0.0,0.0,0.0,0.0,0.0,0.0,0.0,0.0,0.0,0.0,0.0,0.0,0.0,0.0,0.0,0.0,0.0,0.0,0.0,0.0,9.1601,9.3009,9.4327,9.5563,9.6703,9.8176,9.817,9.6954,9.8282,9.815,9.6054,0.0,0.0,0.0,0.0,0.0,0.0,0.0,0.0,0.0,0.0,0.0,0.0,0.0,0.0,0.0,0.0,0.0,0.0,0.0,0.0,0.0,0.0,0.0,0.0,0.0,0.0,10.0878,10.1961,10.1886,0.0,0.0,0.0,0.0,0.0,0.0,0.0,0.0,0.0,0.0,10.143,10.2316,10.2772,10.3772,10.4772,10.5471,10.616,10.6767,10.7004,10.6206,10.5662,0.0,0.0,0.0,0.0,0.0,0.0,0.0,0.0,0.0,0.0,0.0,0.0,0.0,0.0,0.0,0.0,0.0,0.0,0.0,0.0,0.0,0.0,0.0,0.0,0.0,0.0,0.0,8.3953,8.4582,0.0,0.0,0.0,0.0,0.0,0.0,0.0,0.0,0.0,0.0,0.0,9.5935,9.5935,0.0,0.0,0.0,0.0,0.0,0.0,0.0,0.0,0.0,0.0,0.0,0.0,9.4493,9.5158,9.6332,9.7054,9.7461,9.8495,9.8746,9.8298,9.9321,9.9216,9.779,0.0,0.0,0.0,0.0,0.0,0.0,0.0,0.0,0.0,0.0,0.0,0.0,0.0,0.0,0.0,0.0,0.0,0.0,0.0,0.0,0.0,0.0,0.0,0.0,0.0,10.0802,0.0,0.0,0.0,0.0,0.0,0.0,0.0,0.0,0.0,0.0,0.0,10.3005,10.2463,10.4031,10.5065,10.4736,10.5593,10.6328,0.0,0.0,0.0,0.0,0.0,0.0,0.0,0.0,0.0,0.0,0.0,0.0,0.0,0.0,9.8417,9.6403,9.5777,9.5777,9.6333,0.0,0.0,0.0,0.0,0.0,0.0,0.0,0.0,0.0,0.0,0.0,0.0,0.0,0.0,8.8484,8.8926,8.8307,0.0,0.0,0.0,0.0,0.0,0.0,0.0,0.0,9.9502,10.0175,10.044,10.044,10.044,0.0,10.044,9.8915,0.0,0.0,0.0,0.0,0.0,0.0,0.0,0.0,9.7006,9.7151,9.8253,9.8993,9.9149,9.9961,10.0294,9.9934,10.0442,10.0342,9.9584,9.8448,9.7097,0.0,0.0,0.0,0.0,0.0,0.0,0.0,0.0,0.0,0.0,0.0,0.0,0.0,0.0,0.0,0.0,0.0,0.0,0.0,0.0,0.0,0.0,0.0,10.3502,0.0,0.0,0.0,0.0,0.0,0.0,0.0,0.0,0.0,10.4505,10.5953,10.685,10.5815,10.7112,10.7727,10.6759,0.0,0.0,0.0,0.0,0.0,0.0,0.0,10.9348,10.9469,10.8781,10.8094,10.7816,10.698,10.6144,10.5832,0.0,0.0,10.0781,10.0015,9.9945,10.0503,10.0781,10.0921,10.0642,10.0572,10.0572,0.0,0.0,0.0,0.0,0.0,0.0,0.0,0.0,9.2744,9.2895,0.0,9.2581,0.0,0.0,0.0,0.0,9.7282,9.9499,0.0,0.0,10.3464,10.4151,10.4813,10.4879,10.4879,10.4879,10.4813,10.4598,10.3908,9.9672,0.0,0.0,0.0,0.0,0.0,0.0,9.8992,9.8915,10.0242,10.1177,10.1573,10.2684,10.2756,10.1868,10.163,10.1455,10.1501,10.1386,10.0449,9.8306,9.7394,0.0,0.0,0.0,0.0,0.0,0.0,0.0,0.0,0.0,0.0,0.0,0.0,0.0,0.0,0.0,0.0,0.0,0.0,0.0,0.0,10.4517,0.0,0.0,0.0,0.0,0.0,0.0,0.0,0.0,0.0,0.0,10.85,10.9402,11.0299,11.0299,0.0,0.0,0.0,0.0,10.9835,10.9139,11.0253,11.1282,11.1657,11.2041,11.2467,11.2845,0.0,0.0,11.0323,11.0184,11.0306,11.0608,11.0039,10.8242,10.4449,10.4239,10.4461,10.453,10.5088,10.5367,10.4739,10.4588,10.4588,9.9661,0.0,0.0,0.0,0.0,9.5446,9.6056,9.6698,9.72,9.7546,9.7937,9.7748,0.0,0.0,0.0,0.0,0.0,0.0,10.5423,10.635,10.7624,10.8391,10.8656,10.912,10.9053,10.859,10.859,10.8251,10.7574,10.609,10.367,10.0537,0.0,0.0,0.0,0.0,10.0844,10.1144,10.1764,10.2114,10.2337,10.324,10.3969,10.4506,10.3728,10.3453,10.3753,10.272,10.1654,10.0516,9.9686,0.0,0.0,0.0,0.0,0.0,0.0,0.0,0.0,0.0,0.0,0.0,0.0,0.0,0.0,0.0,0.0,0.0,0.0,0.0,10.5468,10.7292,10.8371,0.0,0.0,0.0,0.0,0.0,0.0,0.0,0.0,0.0,11.3494,11.3648,11.3588,0.0,0.0,11.3129,11.2155,11.2049,11.1954,11.1745,11.2277,0.0,11.3562,11.3782,11.4001,11.4693,11.4491,11.4281,11.4071,11.4001,11.4001,11.4123,11.3983,11.3482,11.2539,11.0043,10.8605,10.8956,10.9306,10.9365,10.9388,10.9375,10.9433,10.6773,10.4058,10.1115,9.9931,10.0156,10.0595,10.0965,10.1435,10.1876,10.2147,10.2391,10.249,10.2732,10.3116,10.3691,0.0,0.0,0.0,10.9289,10.9944,11.1255,11.2035,11.2366,11.2764,11.2697,11.23,11.2035,11.1561,11.1012,11.0453,10.8809,10.5962,0.0,0.0,10.3324,10.3561,10.3739,10.3782,10.4279,10.4568,10.4809,10.509,10.5699,10.6763,10.5606,10.5253,10.5757,10.4524,10.3664,10.3397,10.2447,10.1216,0.0,0.0,0.0,0.0,0.0,0.0,0.0,0.0,0.0,0.0,0.0,9.2624,9.7157,0.0,0.0,0.0,10.4053,10.6145,10.899,10.987,0.0,0.0,0.0,0.0,0.0,0.0,0.0,11.3286,11.5016,11.6401,11.7084,11.764,11.7231,11.5433,11.5483,11.5459,11.4692,0.0,11.4219,11.3939,11.4333,11.4877,11.5298,11.5579,11.593,11.6422,11.6616,11.6677,11.6677,11.7082,11.7416,11.7416,11.7627,11.79,11.8083,11.5986,11.3962,11.3398,11.3257,11.3246,11.3422,11.3481,11.3539,11.3231,11.2739,10.7862,10.59,10.5991,10.5991,10.6098,10.6436,10.6436,10.652,10.652,10.7087,10.7317,10.7464,10.8996,0.0,11.0382,11.1918,11.2973,11.3628,11.4491,11.5348,11.601,11.6076,11.6076,11.6023,11.536,11.4727,11.4213,11.362,11.3054,11.2593,10.9579,10.761,10.6946,10.7039,10.6959,10.6507,10.7147,10.7777,10.8118,10.7766,10.7825,10.8586,10.7277,10.6853,10.7512,10.6604,10.6148,10.6357,10.5414,10.3855,10.1758,0.0,0.0,0.0,0.0,0.0,0.0,0.0,0.0,0.0,0.0,0.0,0.0,0.0,0.0,0.0,10.7437,0.0,11.1845,11.2184,0.0,0.0,0.0,11.4084,11.4475,11.5099,11.5715,11.6173,0.0,0.0,11.9447,12.0964,12.089,11.7701,11.7541,11.7454,11.6754,11.6866,11.6773,11.6141,11.6562,11.7116,11.7327,11.8021,11.8443,11.8513,11.8622,11.8878,11.8949,11.969,12.0298,12.0369,12.0926,12.1351,12.1351,12.1138,12.0501,11.7798,11.71,11.6899,11.6959,11.6959,11.6959,11.6818,11.6601,11.5414,11.2895,10.9712,10.9712,10.9539,10.9367,10.9712,10.9798,10.9947,11.097,11.1822,11.2676,11.3378,11.3947,11.4446,11.5137,11.6005,11.7136,11.8152,11.9124,11.9787,12.0317,12.0149,11.9409,11.9209,11.8544,11.7401,11.7201,11.6898,11.6353,11.4766,11.234,10.915,10.8471,10.7788,10.7193,10.7713,10.8344,10.9065,10.9604,10.9609,10.9311,10.8987,10.8626,10.8312,10.8087,10.75,10.6492,10.636,10.5614,10.399,10.2705,0.0,0.0,0.0,0.0,0.0,0.0,0.0,0.0,0.0,10.0472,10.4193,0.0,10.6424,0.0,11.0627,11.2465,11.3491,11.4378,0.0,0.0,11.6564,11.6971,11.7857,11.8132,11.8611,11.9567,12.0191,12.0816,12.1638,12.2124,12.2054,12.1218,12.0722,12.0366,12.0155,11.9658,11.9301,11.916,11.923,11.9708,12.0524,12.1552,12.2101,12.2305,12.2297,12.2368,12.2297,12.2572,12.2705,12.2776,12.2847,12.3113,12.329,12.329,12.32,12.26,12.1302,12.0207,12.0449,12.051,12.057,12.0799,12.0799,12.0618,11.8907,11.6281,11.4737,11.3986,11.3785,11.3986,11.4074,11.4226,11.5048,11.587,11.6691,11.7123,11.7465,11.7806,11.8396,11.9292,12.0201,12.0996,12.1923,12.2902,12.3301,12.3284,12.2893,12.2559,12.1958,12.1157,12.0582,12.0088,11.9514,11.8534,11.6497,11.3601,11.1907,11.0931,11.0543,11.0706,11.1061,11.1372,11.1516,11.1376,11.1031,11.0421,11.0057,11.002,10.9444,10.8783,10.8113,10.8049,10.7373,10.6223,10.5073,10.399,0.0,0.0,0.0,0.0,0.0,0.0,0.0,0.0,0.0,0.0,0.0,10.961,11.1993,11.3631,11.4863,11.5892,11.692,11.795,11.8915,11.9186,11.9595,12.0346,12.0761,12.1243,12.2063,12.2759,12.3386,12.3939,12.4356,12.4637,12.4567,12.4216,12.3443,12.218,12.1477,12.1261,12.1389,12.1453,12.1722,12.2533,12.3146,12.3555,12.3626,12.368,12.3805,12.3805,12.4213,12.4489,12.456,12.4844,12.5119,12.5234,12.5419,12.5541,12.5591,12.4888,12.3921,12.3088,12.3066,12.3245,12.5017,12.4952,12.4408,12.3951,12.3454,12.0513,11.9022,11.8547,11.8547,11.8637,11.8728,11.924,11.9532,12.0039,12.0478,12.074,12.0913,12.1688,12.2508,12.3253,12.3677,12.4497,12.5564,12.5648,12.5832,12.618,12.551,12.5174,12.504,12.3977,12.2997,12.2234,12.136,12.0152,11.8684,11.6381,11.489,11.4269,11.4349,11.4409,11.4069,11.3488,11.315,11.3041,11.1858,11.1352,11.1877,11.0736,11.0136,11.0283,10.9674,10.8997,10.8185,10.7509,10.6561,0.0,10.5208,0.0,0.0,0.0,0.0,0.0,0.0,0.0,0.0,11.0562,11.2607,11.5345,11.6306,11.7268,11.8507,11.9541,12.0507,12.1339,12.1819,12.2226,12.263,12.326,12.3814,12.4146,12.5339,12.6182,12.6179,12.6811,12.7233,12.7156,12.7086,12.6172,12.3926,12.3364,12.3429,12.3612,12.374,12.408,12.4334,12.446,12.4523,12.4452,12.464,12.4541,12.4674,12.5347,12.5959,12.602,12.6448,12.6877,12.702,12.7192,12.7445,12.7302,12.7338,12.6908,12.5415,12.5117,12.5367,12.8405,12.7884,12.7262,12.7047,12.6888,12.6213,12.4198,12.1493,12.1862,12.2229,12.2594,12.2685,12.3046,12.3495,12.3584,12.4028,12.4732,12.4906,12.5583,12.6657,12.7088,12.7744,12.8562,12.899,12.8994,12.8876,12.8674,12.8338,12.7816,12.6994,12.6113,12.5231,12.3933,12.262,12.1426,0.0,0.0,0.0,11.5058,11.5388,11.5269,11.5162,11.4888,11.437,11.3797,0.0,11.1944,11.1893,11.143,11.035,11.0147,0.0,0.0,0.0,0.0,0.0,0.0,0.0,0.0,0.0,0.0,0.0,11.1993,11.1856,11.1856,11.3974,11.5825,11.7061,11.8094,11.9405,12.1133,12.1548,12.2448,12.4319,12.4665,12.5149,12.6047,12.6325,12.6466,12.6533,12.6814,12.7089,12.7498,12.7564,12.7772,12.8107,12.8032,12.7749,12.7319,12.6846,12.6851,12.7178,12.7153,12.7488,12.7757,12.7805,12.7852,12.8065,12.7629,12.7396,12.7428,12.7132,12.717,12.7279,12.7542,12.7554,12.7626,12.7745,12.7745,12.7745,12.7804,12.7661,12.7254,12.7242,12.7242,13.1538,13.0669,13.0323,12.9846,0.0,12.9614,12.8581,12.6752,12.5825,12.5688,12.6149,12.6424,12.6698,12.6971,12.7152,12.7511,12.7958,12.8224,12.8775,12.9546,12.9807,13.0354,13.1186,13.1444,13.1381,13.106,13.106,13.0722,12.998,12.9327,12.8674,12.7838,12.6283,12.5081,12.4098,12.2537,12.007,11.7152,11.7401,11.7322,11.699,11.6882,11.6606,11.6087,11.5169,0.0,0.0,0.0,0.0,0.0,0.0,0.0,0.0,11.1027,0.0,11.0283,11.0829,11.1238,11.1714,11.2671,11.3904,11.5204,11.6304,11.6374,11.5139,11.7061,11.8783,11.9749,12.0994,12.2171,12.3351,12.4045,12.474,12.592,12.6265,12.6681,12.7657,12.8214,12.8701,12.9191,12.9679,13.0025,13.0227,13.0227,13.0427,13.0758,13.0824,13.0884,13.0936,12.9345,12.8097,12.8417,12.8738,12.8992,12.9181,12.9306,12.9564,12.9545,12.9391,12.9022,12.8774,12.8415,12.8116,12.7876,12.7792,12.7792,12.7792,12.791,12.8027,12.8086,12.826,12.8433,12.8433,12.826,12.8099,13.4717,13.3589,13.3364,13.2688,13.1722,13.2165,13.2352,13.2221,12.9679,0.0,0.0,12.9705,12.9955,12.9981,13.0346,13.0618,13.0799,13.1159,13.1605,13.2135,13.2223,13.266,13.335,13.3436,13.3354,13.3151,13.3083,13.2813,13.2204,13.1667,13.0944,13.0186,12.8709,12.7351,12.6332,12.4115,12.2354,12.1027,12.0221,11.9529,11.9074,11.8731,11.8379,11.8019,11.6596,11.5936,11.6034,11.4816,11.4139,11.4004,11.4004,11.4004,11.4004,11.3466,11.3199,11.3199,11.3688,11.4238,11.4851,11.609,11.7262,11.8367,12.0163,12.03,11.8437,11.9955,12.1477,12.2587,12.3974,12.5087,12.5715,12.669,12.7317,12.7457,12.7871,12.8425,12.8987,12.9822,13.0799,13.1434,13.22,13.2965,13.2891,13.3024,13.33,13.363,13.3476,13.3826,13.3921,13.1543,12.952,12.9633,12.9886,12.9993,13.0179,13.0313,13.0292,13.068,13.0524,13.0225,12.9709,12.9481,12.9121,12.8806,12.8518,12.8649,12.8577,12.9012,12.8852,12.8837,12.9106,12.9441,12.9296,12.8888,12.8548,13.8157,13.7021,13.5886,13.5366,13.5205,13.5301,13.5301,13.5039,13.2324,13.1211,13.1145,13.1304,13.1582,13.1951,13.1977,13.25,13.3312,13.3312,13.3669,13.4112,13.4551,13.4812,13.4899,13.533,13.5434,13.5451,13.5451,13.5384,13.5181,13.3879,13.3034,13.2425,13.1045,12.9448,12.7771,12.6684,12.5731,12.4861,12.2253,12.1087,12.1414,12.1062,12.055,11.9882,11.9071,11.7989,11.6845,11.6575,11.6169,11.556,11.5492,11.5492,11.5492,11.5786,11.5862,11.5934,11.6764,11.7387,11.7524,11.918,12.0634,12.1886,12.3068,12.3001,12.1198,12.2723,12.4111,12.5014,12.613,12.7527,12.9135,12.9416,12.9976,13.0887,13.1375,13.1652,13.1652,13.2135,13.2547,13.276,13.3028,13.3503,13.3975,13.4164,13.4493,13.474,13.5226,13.5001,13.4921,13.3861,13.2794,13.2219,13.2066,13.2128,13.2045,13.2189,13.2107,13.225,13.1664,13.1413,13.1364,13.1094,13.0762,13.0976,13.1001,13.1243,13.1299,13.1556,13.1136,13.0571,13.0591,13.05,12.9844,12.9589,12.9461,14.0325,13.8926,13.8201,13.7482,13.6962,13.6853,13.675,13.6618,13.5366,13.4585,13.4397,13.4679,13.4866,13.5145,13.5422,13.579,13.6156,13.6428,13.6789,13.7236,13.7503,13.7565,13.7336,13.7597,13.7278,13.6534,13.6466,13.6331,13.5857,13.5181,13.4825,13.4434,13.2847,13.1027,12.9195,12.8307,12.7737,12.7165,12.4681,12.3296,12.3118,12.2769,12.2258,12.1514,12.077,12.0093,11.9417,11.8943,11.8605,11.8266,11.8489,11.8563,11.8563,11.8936,11.9154,11.9223,11.9858,12.0416,12.0896,12.2286,12.3541,12.4728,12.5848,12.6408,12.6201,12.6339,12.6967,12.8157,12.9136,13.0256,13.1445,13.1654,13.1795,13.2354,13.2491,13.2907,13.3465,13.3872,13.4352,13.4907,13.5307,13.571,13.6334,13.6534,13.7005,13.7609,13.8066,13.8169,13.7724,13.7121,13.5854,13.3802,13.2898,13.2671,13.2854,13.2964,13.3144,13.3335,13.3151,13.2965,13.2776,13.2439,13.2189,13.1937,13.2031,13.2087,13.2142,13.2142,13.1923,13.1777,13.1668,13.143,13.0826,13.0475,13.0268,14.2197,14.0668,14.0296,13.9538,13.8722,13.8479,13.8404,13.8404,13.8404,13.8082,13.7789,13.7581,13.7504,13.7597,13.7969,13.8338,13.8522,13.8888,13.9341,13.979,13.979,13.9631,13.9511,13.9443,13.8834,13.782,13.7752,13.7346,13.6737,13.6466,13.6196,13.5704,13.4232,13.2542,13.0925,13.0186,12.9616,12.914,12.7455,12.604,12.4827,12.4536,12.4017,12.3273,12.2529,12.2055,12.1852,12.1176,12.0846,12.0922,12.1223,12.1516,12.1795,12.2167,12.2457,12.2668,12.303,12.3596,12.4426,12.541,12.6393,12.7588,12.8572,12.9765,13.0887,13.0396,13.0186,13.1167,13.2009,13.285,13.3615,13.3893,13.3961,13.4028,13.4096,13.4653,13.5415,13.5884,13.6432,13.733,13.7796,13.8203,13.8707,13.8987,13.9249,14.0132,14.0917,14.0991,14.0469,13.9846,13.7963,13.5915,13.419,13.3722,13.3684,13.3921,13.401,13.4168,13.4251,13.4089,13.3708,13.3601,13.3438,13.2982,13.2891,13.3019,13.2946,13.3001,13.2982,13.289,13.2959,13.2772,13.1798,13.125,13.0837,14.3865,14.3091,14.2042,14.1584,14.1289,14.1319,14.1253,14.1319,14.1385,14.118,14.0696,13.8526,13.7757,13.8062,13.8313,13.8772,13.9498,13.9521,13.979,14.0302,14.0234,14.0255,14.0188,14.0188,14.012,13.9917,13.9849,13.9443,13.8767,13.8158,13.7211,13.5993,13.5113,13.4217,13.3321,13.251,13.185,13.1174,13.0903,12.9484,12.6847,12.6724,12.6318,12.5641,12.4761,12.4085,12.3476,12.2664,12.248,12.2794,12.2937,12.3437,12.4428,12.4939,12.5363,12.6055,12.6495,12.7278,12.8193,12.8838,12.9476,13.0673,13.1378,13.2499,13.3907,13.4397,13.4115,13.3693,13.4255,13.5169,13.6017,13.6582,13.7002,13.7273,13.7615,13.824,13.8496,13.9039,13.9305,13.9442,13.961,13.9953,14.0088,14.0422,14.0671,14.1197,14.1694,14.1992,14.1701,14.0577,13.9628,13.8666,13.7456,13.6291,13.5635,13.5474,13.5255,13.4729,13.4494,13.4606,13.4645,13.4609,13.4646,13.4444,13.4718,13.4826,13.4934,13.5261,13.5052,13.4338,13.4252,13.4141,13.2789,13.1756,13.1213,14.5909,14.5201,14.3587,14.247,14.1946,14.2072,14.2264,14.2264,14.255,14.2635,14.2396,14.1273,14.0566,13.995,14.016,14.0526,14.089,14.125,14.1497,14.1676,14.1676,14.1405,14.1067,14.0999,14.0796,14.0323,14.0323,14.012,13.9782,13.9105,13.8022,13.6669,13.6263,13.5722,13.5046,13.4234,13.3489,13.2745,13.2272,13.1257,12.9701,12.8753,12.7738,12.6656,12.625,12.607,12.5956,12.5695,12.5716,12.6111,12.6341,12.6707,12.7201,12.7579,12.801,12.8361,12.8881,12.9532,13.0245,13.0603,13.1307,13.2502,13.3482,13.4603,13.5871,13.6917,13.7397,13.6981,13.692,13.7208,13.7971,13.8324,13.8669,13.9003,13.9201,13.9463,14.0043,14.017,14.0422,14.0795,14.0979,14.1258,14.1755,14.2324,14.2737,14.298,14.3338,14.3559,14.3544,14.2585,14.1929,14.1562,14.0386,13.8585,13.6966,13.6561,13.6454,13.6218,13.6001,13.6,13.5981,13.5755,13.562,13.5694,13.5746,13.5851,13.5778,13.5956,13.5912,13.5373,13.4487,13.385,13.2742,13.1954,13.1559,14.7498,14.6915,14.5134,14.3816,14.2862,14.3246,14.3341,14.3436,14.3816,14.387,14.3763,14.3763,14.3186,14.223,14.2144,14.2192,14.2374,14.2511,14.2623,14.2623,14.2623,14.2285,14.1811,14.1811,14.1473,14.0999,14.0932,14.0864,14.0526,13.9646,13.8631,13.7684,13.7211,13.6737,13.6196,13.5451,13.4775,13.4031,13.3422,13.2761,13.1828,13.0812,12.9525,12.817,12.7831,12.7867,12.8059,12.7855,12.7953,12.8341,12.8648,12.9084,12.9572,13.0028,13.0535,13.1175,13.1694,13.2278,13.278,13.3064,13.3696,13.4748,13.5727,13.6775,13.7758,13.8936,13.9906,14.0402,14.0005,13.9795,13.9691,14.0037,14.0305,14.0692,14.0755,14.1009,14.1581,14.1632,14.1827,14.2238,14.2384,14.2517,14.31,14.3744,14.4095,14.4275,14.4686,14.5016,14.4836,14.4066,14.3325,14.3157,14.1848,14.0178,13.8163,13.7925,13.7962,13.765,13.746,13.7398,13.7378,13.6923,13.6509,13.6524,13.6384,13.614,13.6037,13.6088,13.5923,13.5529,13.4789,13.3754,13.2964,13.2395,13.212,14.8429,14.8199,14.6982,14.5957,14.5288,14.5383,14.5383,14.5249,14.5316,14.5266,14.5037,14.5063,14.4845,14.447,14.3429,14.3184,14.348,14.2962,14.2691,14.2691,14.2623,14.2556,14.2556,14.2556,14.2488,14.2285,14.2285,14.2014,14.1338,13.9985,13.9173,13.9037,13.7752,13.7008,13.6872,13.6263,13.5519,13.4995,13.4724,13.4215,13.3259,13.3069,13.2185,13.0825,12.9997,12.9625,12.9338,12.8664,12.8409,12.887,12.9084,12.9786,13.1407,13.1994,13.3149,13.5071,13.5428,13.5795,13.6374,13.6798,13.7218,13.7845,13.8383,13.9284,13.9851,14.0534,14.1579,14.3281,14.3201,14.2768,14.1885,14.2038,14.2518,14.3084,14.328,14.3404,14.3854,14.3915,14.3915,14.4035,14.4095,14.4155,14.4168,14.4275,14.4701,14.4934,14.522,14.5337,14.4821,14.4044,14.3338,14.2525,14.1712,14.0719,13.9854,13.9495,13.9179,13.8937,13.8737,13.8577,13.8282,13.7986,13.7595,13.7151,13.6685,13.6366,13.6168,13.5825,13.5482,13.5135,13.4961,13.4193,13.3281,13.3276,13.2878,14.9186,14.8429,14.7969,14.7145,14.6254,14.6569,14.6462,14.5992,14.6369,14.6421,14.6337,14.6337,14.6295,14.6141,14.5214,14.4673,14.4382,14.3638,14.33,14.3232,14.2826,14.2623,14.2623,14.2623,14.2623,14.2623,14.2623,14.2217,14.1541,14.0932,14.0188,13.9308,13.8699,13.8225,13.7684,13.694,13.6638,13.6555,13.574,13.5109,13.5046,13.4569,13.3981,13.3267,13.2206,13.1739,13.193,13.1656,13.1754,13.2073,13.2381,13.2886,13.3523,13.4197,13.5149,13.6368,13.6726,13.7152,13.7643,13.8263,13.8602,13.8874,13.99,14.0715,14.114,14.1957,14.3187,14.437,14.4909,14.4936,14.5324,14.4618,14.41,14.4534,14.4656,14.4996,14.5749,14.5956,14.6075,14.6181,14.6358,14.6444,14.5972,14.6069,14.5962,14.5632,14.5835,14.5684,14.5052,14.4502,14.3967,14.3178,14.2462,14.1842,14.1493,14.0834,14.0424,14.0181,13.9938,13.9672,13.9427,13.8618,13.815,13.7853,13.7334,13.6618,13.6519,13.6297,13.58,13.528,13.5079,13.4411,13.3519,13.3371,13.2925,15.0147,14.9119,14.8849,14.812,14.7162,14.7177,14.7028,14.6623,14.6835,14.7021,14.7021,14.7021,14.7021,14.6953,14.648,14.6006,14.5397,14.4518,14.3976,14.3706,14.3164,14.2826,14.2623,14.2623,14.2623,14.2623,14.2623,14.2285,14.1879,14.1608,14.0932,14.0052,13.9599,13.9232,13.8689,13.8098,13.7879,13.7726,13.6773,13.6479,13.655,13.5948,13.5575,13.5505,13.459,13.3893,13.3638,13.3716,13.3882,13.4192,13.4728,13.5176,13.5755,13.6765,13.7635,13.8353,13.906,13.948,13.9679,14.0215,14.054,14.0318,14.1333,14.2139,14.2264,14.3415,14.4705,14.5783,14.6533,14.731,14.7909,14.715,14.6295,14.6327,14.6313,14.6592,14.7282,14.7414,14.7457,14.7557,14.7435,14.7366,14.7164,14.6851,14.6536,14.6073,14.627,14.6059,14.5527,14.5314,14.4945,14.4174,14.3402,14.3029,14.2633,14.209,14.1462,14.1114,14.0915,14.0795,14.0401,13.9512,13.8794,13.8497,13.7977,13.7308,13.6863,13.664,13.6194,13.5674,13.5079,13.4485,13.3816,13.3371,13.2702,15.1013,15.0269,14.9592,14.8754,14.801,14.7402,14.7089,14.6928,14.7021,14.7021,14.7021,14.7021,14.7021,14.7021,14.6953,14.6953,14.6615,14.5465,14.4585,14.3976,14.3706,14.33,14.2691,14.2623,14.2623,14.2623,14.2623,14.2556,14.2578,14.2036,14.1562,14.1312,14.0443,14.0005,13.9869,13.9395,13.8966,13.8504,13.8162,13.807,13.7864,13.734,13.718,13.7745,13.72,13.6153,13.446,13.463,13.486,13.4937,13.5616,13.6566,13.8205,13.955,14.0759,14.147,14.2602,14.2948,14.2785,14.3235,14.3193,14.2888,14.325,14.3878,14.4267,14.5138,14.6284,14.7615,14.8466,14.9153,14.951,14.951,14.9028,14.8476,14.816,14.816,14.8364,14.8402,14.8328,14.8402,14.7959,14.722,14.7053,14.6793,14.6458,14.6504,14.664,14.6551,14.6011,14.6013,14.5911,14.5164,14.4513,14.4037,14.3643,14.3173,14.2585,14.1991,14.1817,14.1618,14.1271,14.0627,13.9785,13.9264,13.8294,13.755,13.6954,13.6731,13.6264,13.5743,13.5175,13.4681,13.4039,13.3445,13.2479,15.108,15.0404,15.0133,14.9254,14.8171,14.7833,14.7495,14.7021,14.7021,14.7021,14.7021,14.7021,14.7021,14.7021,14.7021,14.7021,14.6953,14.648,14.5938,14.5127,14.4179,14.3638,14.33,14.2826,14.2623,14.2623,14.2623,14.2803,14.3002,14.2799,14.2636,14.2307,14.1508,14.0844,14.0452,13.9786,13.9492,13.9469,13.932,13.9316,13.9443,13.914,13.896,13.9126,13.9227,13.8956,13.8391,13.7568,13.701,13.7086,13.8322,13.9763,14.14,14.2181,14.2814,14.3704,14.4188,14.4532,14.4638,14.5208,14.544,14.5346,14.5942,14.649,14.6665,14.7173,14.803,14.9104,14.9603,15.0066,15.1021,15.1277,15.069,14.9344,14.9214,14.9418,14.9917,15.0009,15.0139,15.0158,14.9621,14.9119,14.8719,14.8082,14.7369,14.7128,14.7206,14.7058,14.6485,14.6531,14.6227,14.5526,14.5171,14.4918,14.4422,14.3879,14.3269,14.2533,14.2312,14.2165,14.1892,14.1594,14.075,13.9682,13.8661,13.7814,13.7265,13.6845,13.6575,13.6257,13.6034,13.527,13.4384,13.3296,13.2182,15.108,15.0404,15.0066,14.9254,14.8104,14.7833,14.7427,14.7021,14.7021,14.7021,14.7021,14.7021,14.7114,14.7206,14.7298,14.739,14.7573,14.7573,14.7302,14.6691,14.5152,14.4338,14.4178,14.3431,14.3091,14.3091,14.3091,14.3268,14.3533,14.3533,14.3504,14.3219,14.2536,14.1952,14.1488,14.0845,14.0625,14.0801,14.063,14.0674,14.0774,14.0612,14.0504,14.0589,14.0761,14.0998,14.1156,14.0388,13.9819,13.9742,14.0752,14.2252,14.3724,14.4147,14.4701,14.5432,14.6039,14.6368,14.6332,14.6942,14.722,14.7178,14.7631,14.8104,14.8216,14.8642,14.9509,15.0151,15.0757,15.1341,15.205,15.2229,15.1744,15.0872,15.0744,15.0913,15.1358,15.1432,15.1541,15.1405,15.0587,15.0002,14.9665,14.8723,14.8028,14.7704,14.7653,14.7627,14.7151,14.7193,14.6885,14.6604,14.6425,14.59,14.5149,14.4532,14.3944,14.3214,14.2528,14.2384,14.2212,14.2037,14.1489,13.9997,13.8823,13.8002,13.733,13.7451,13.7256,13.7013,13.6547,13.5391,13.4208,13.2823,13.1662,15.1013,15.0269,14.9524,14.8712,14.7968,14.7359,14.7089,14.7021,14.6978,14.6978,14.6978,14.6935,14.7119,14.7552,14.7439,14.7711,14.8343,14.8433,14.8228,14.7818,14.6526,14.5482,14.4751,14.4069,14.3883,14.397,14.397,14.4057,14.4231,14.4231,14.4144,14.4198,14.3641,14.3148,14.2885,14.244,14.2054,14.1836,14.2004,14.2083,14.2092,14.1853,14.1964,14.2272,14.2083,14.2315,14.2963,14.3175,14.2963,14.2104,14.2962,14.3935,14.5024,14.5865,14.6423,14.694,14.8102,14.8268,14.8148,14.8662,14.8908,14.8376,14.8641,14.8697,14.9267,15.0056,15.0693,15.1052,15.1781,15.236,15.2485,15.2485,15.2485,15.2536,15.2183,15.2257,15.2434,15.2383,15.2257,15.201,15.1066,14.9945,14.9796,14.8526,14.7903,14.7776,14.7895,14.7963,14.801,14.8048,14.8458,14.8173,14.7647,14.6819,14.6036,14.5331,14.4669,14.3482,14.2906,14.2718,14.2352,14.2053,14.1821,14.0326,13.9055,13.8233,13.7784,13.7875,13.7635,13.7198,13.6342,13.514,13.393,13.2572,13.1262,15.0201,14.9457,14.8712,14.7968,14.7359,14.7089,14.7021,14.6953,14.678,14.6826,14.6623,14.6508,14.6552,14.6662,14.7017,14.7125,14.7595,14.82,14.8479,14.8255,14.7824,14.6189,14.4691,14.4107,14.4231,14.4489,14.4507,14.4832,14.5425,14.5425,14.5593,14.5941,14.5122,14.4534,14.406,14.3316,14.263,14.2222,14.2777,14.3009,14.3016,14.3483,14.3865,14.4306,14.4384,14.4742,14.5305,14.5926,14.5838,14.5064,14.5199,14.6022,14.7239,14.7776,14.83,14.8867,14.9437,15.0,15.0012,15.034,15.0491,15.0454,15.0616,15.1161,15.1267,15.1678,15.1982,15.2085,15.2411,15.2587,15.2737,15.2787,15.2837,15.2985,15.2787,15.2536,15.2536,15.2485,15.2261,15.1589,15.0618,15.002,14.937,14.8718,14.8017,14.8207,14.8319,14.8503,14.8503,14.8715,14.8894,14.8939,14.8531,14.7701,14.6904,14.62,14.5284,14.3917,14.3318,14.3045,14.2457,14.1718,14.1305,14.0587,13.9238,13.8263,13.8263,13.8351,13.783,13.7306,13.6198,13.5045,13.3772,13.2368,13.1085,14.9727,14.8712,14.8307,14.7698,14.7021,14.7206,14.7298,14.7186,14.7031,14.705,14.7093,14.6587,14.6684,14.7032,14.7291,14.7548,14.7788,14.8389,14.8643,14.8465,14.8132,14.6951,14.5464,14.5172,14.5257,14.5509,14.544,14.5775,14.6175,14.6258,14.6422,14.6447,14.6064,14.5377,14.469,14.4238,14.3625,14.3149,14.3619,14.4069,14.4144,14.4806,14.524,14.5667,14.6017,14.6713,14.7676,14.8632,14.8601,14.7602,14.7311,14.7849,14.8964,14.9282,14.9791,15.0617,15.098,15.1339,15.162,15.1952,15.1946,15.183,15.2125,15.2229,15.2281,15.2485,15.2637,15.2637,15.2737,15.2886,15.2985,15.3034,15.3131,15.318,15.3083,15.2936,15.2837,15.2837,15.2463,15.1714,15.0988,15.026,14.9577,14.8845,14.8608,14.8715,14.873,14.8819,14.8863,14.9071,14.9201,14.9169,14.8975,14.8177,14.7228,14.6419,14.5503,14.4211,14.3716,14.3408,14.2702,14.1816,14.1202,14.0628,13.9394,13.8611,13.8611,13.8493,13.8019,13.72,13.6094,13.5018,13.3702,13.2253,13.0971,14.9389,14.8104,14.8129,14.7723,14.7274,14.7505,14.7779,14.7825,14.7523,14.7556,14.7701,14.7169,14.7135,14.8104,14.7826,14.8285,14.8617,14.8769,14.8839,14.8642,14.8224,14.7376,14.6807,14.6422,14.6504,14.6586,14.6749,14.6749,14.683,14.683,14.6911,14.6933,14.6695,14.6153,14.5836,14.5454,14.4912,14.4501,14.4806,14.5096,14.524,14.5879,14.6294,14.6709,14.7526,14.8537,14.982,15.0841,15.0965,14.9452,14.9256,14.9769,15.0558,15.0659,15.1185,15.2061,15.2546,15.2877,15.302,15.3265,15.3176,15.2784,15.2662,15.2637,15.2737,15.2936,15.3083,15.3034,15.318,15.3351,15.3324,15.3324,15.3371,15.3466,15.356,15.356,15.3419,15.3324,15.2948,15.2169,15.1454,15.0717,14.998,14.9435,14.9114,14.8939,14.8995,14.9082,14.9126,14.9212,14.934,14.9424,14.9037,14.8574,14.7583,14.6591,14.5525,14.4426,14.4125,14.3727,14.3209,14.2444,14.1629,14.0737,13.9726,13.9049,13.8738,13.847,13.7967,13.7,13.5733,13.4927,13.3971,13.23,13.0867,14.8915,14.8036,14.7797,14.7709,14.7665,14.8119,14.8501,14.8721,14.7925,14.7808,14.782,14.7202,14.6896,14.7143,14.7458,14.7492,14.7933,14.8594,14.9115,14.8975,14.8344,14.7993,14.7624,14.7154,14.6992,14.7154,14.7234,14.7394,14.7554,14.7713,14.7871,14.8115,14.8052,14.8016,14.77,14.6999,14.6658,14.6237,14.6024,14.6019,14.6156,14.6705,14.7309,14.7907,14.931,15.0355,15.1144,15.1985,15.256,15.2686,15.2382,15.2133,15.2465,15.2861,15.3287,15.3674,15.4127,15.4496,15.4605,15.4333,15.396,15.3983,15.3651,15.3344,15.3344,15.3607,15.3654,15.356,15.3635,15.3635,15.356,15.3746,15.3792,15.3792,15.3884,15.3929,15.3733,15.3235,15.2587,15.1803,15.1019,15.0158,14.9404,14.9341,14.9158,14.9082,14.9169,14.9297,14.9382,14.9424,14.9507,14.959,14.917,14.8633,14.7532,14.6542,14.5476,14.472,14.4494,14.4081,14.3572,14.2767,14.1911,14.104,14.0052,13.9483,13.8722,13.8078,13.7543,13.6421,13.5457,13.4739,13.3678,13.2083,13.1142,14.8679,14.7933,14.7983,14.8119,14.821,14.8769,14.9075,14.8875,14.8442,14.8187,14.8117,14.74,14.7073,14.7314,14.7474,14.7633,14.7783,14.845,14.8975,14.906,14.8708,14.8567,14.8574,14.8263,14.8036,14.7792,14.7871,14.8028,14.8263,14.8651,14.8887,14.9186,14.9267,14.907,14.8873,14.8235,14.7595,14.7092,14.7,14.6975,14.7243,14.7899,14.8538,14.9391,15.0864,15.2001,15.2783,15.3893,15.4845,15.5413,15.5359,15.4714,15.4175,15.4478,15.4839,15.5243,15.5629,15.5983,15.6032,15.5829,15.54,15.4933,15.4638,15.4261,15.4005,15.4064,15.4064,15.3884,15.3838,15.3838,15.3838,15.3884,15.402,15.402,15.4109,15.4047,15.3625,15.3083,15.2435,15.1649,15.0938,15.0151,14.959,14.9373,14.934,14.9424,14.9424,14.9549,14.9549,14.959,14.9631,14.9521,14.9218,14.8536,14.7475,14.6409,14.5344,14.4854,14.4667,14.4331,14.3991,14.3079,14.2168,14.1177,14.0186,13.8967,13.8207,13.7639,13.6954,13.5996,13.5078,13.4476,13.3725,13.2782,13.1996,14.8436,14.7938,14.848,14.8659,14.8838,14.9651,14.967,14.9081,14.8994,14.8794,14.8444,14.7754,14.7713,14.802,14.8177,14.8255,14.8341,14.8516,14.8969,14.9409,14.9409,14.9338,14.9413,14.9418,14.9191,14.8419,14.8728,14.8881,14.911,14.9418,14.9717,14.9939,15.0233,15.0239,14.9739,14.9021,14.8722,14.8484,14.8146,14.8157,14.8475,14.9098,14.9704,15.0586,15.2169,15.3305,15.4358,15.5616,15.6981,15.7806,15.7908,15.7107,15.6233,15.5733,15.6033,15.6858,15.7155,15.7445,15.7607,15.7474,15.6963,15.5905,15.5703,15.5369,15.4752,15.4536,15.4385,15.4286,15.4198,15.4109,15.4064,15.4154,15.4154,15.4123,15.4298,15.3931,15.3401,15.285,15.2137,15.1565,15.0786,15.0079,14.9818,14.9631,14.9713,14.9754,14.9754,14.9754,14.9754,14.9794,14.9794,14.9647,14.9307,14.836,14.7221,14.6271,14.5283,14.5055,14.4905,14.4601,14.4218,14.3234,14.2324,14.126,14.0272,13.898,13.7879,13.716,13.6401,13.5447,13.4839,13.4387,13.3939,13.3494,13.27,14.871,14.848,14.9212,14.9563,14.9738,15.06,15.0621,15.0411,14.9586,14.9294,14.8923,14.8537,14.8419,14.8574,14.8881,14.904,14.9134,14.9006,14.9298,14.9873,15.0015,15.0015,15.016,15.0306,15.016,15.0013,15.0087,15.016,14.9939,15.016,15.0525,15.0669,15.0885,15.1095,15.1285,15.0762,15.0147,15.0085,14.9508,14.9233,14.9524,15.0,15.0578,15.1452,15.3222,15.4392,15.5329,15.6832,15.8058,15.8477,15.8642,15.8558,15.8303,15.8115,15.8095,15.8218,15.8576,15.8822,15.9046,15.881,15.8644,15.8168,15.7221,15.646,15.5964,15.5508,15.5006,15.4766,15.4674,15.4547,15.433,15.4428,15.4514,15.448,15.4076,15.3745,15.333,15.2612,15.1777,15.1317,15.0674,15.0218,15.0066,14.9991,14.9915,14.9915,14.9875,14.9875,14.9875,14.9915,15.007,14.9769,14.9466,14.825,14.6994,14.6044,14.5246,14.5246,14.5168,14.4748,14.4212,14.3339,14.2432,14.1334,14.0161,13.8835,13.785,13.6865,13.6029,13.5269,13.4777,13.4363,13.4139,13.3875,13.3081,14.9091,14.9281,14.9912,15.0135,15.0045,15.0635,15.0424,14.9703,14.9616,14.9372,14.9053,14.9023,14.9116,14.9196,14.9141,14.9156,14.9022,14.888,14.931,15.0097,15.0312,15.0598,15.0956,15.1311,15.1451,15.1591,15.18,15.1451,15.0813,15.1311,15.1521,15.18,15.2075,15.2467,15.2413,15.1588,15.1176,15.1149,15.0364,14.9941,15.0349,15.0917,15.1681,15.2527,15.3735,15.4958,15.6023,15.7021,15.8303,15.9094,15.9424,15.96,15.9687,15.9644,15.9424,15.9424,15.9644,15.9858,15.9985,15.973,15.9355,15.8487,15.7729,15.6891,15.6282,15.5633,15.5444,15.5248,15.5168,15.4965,15.4758,15.4545,15.4358,15.4165,15.372,15.3191,15.2662,15.1978,15.156,15.1103,15.0646,15.038,15.0341,15.0226,15.0226,15.0112,15.0033,15.0033,14.9994,15.0112,15.0265,14.9695,14.9199,14.7865,14.6718,14.6032,14.5534,14.5534,14.5417,14.503,14.4302,14.3462,14.2436,14.13,14.0024,13.8942,13.7622,13.6714,13.5881,13.5161,13.486,13.4595,13.4519,13.4179,13.3423,14.9632,14.9998,15.0445,15.0537,15.0315,15.0682,15.0005,14.8975,14.9624,14.9582,14.9029,14.9568,14.9939,14.9802,14.9452,14.9094,14.8801,14.8868,14.9576,15.0711,15.0924,15.1216,15.2067,15.255,15.2884,15.3082,15.3344,15.3017,15.2075,15.2416,15.2818,15.2944,15.3465,15.3547,15.2992,15.204,15.1612,15.1368,15.0791,15.0766,15.1303,15.205,15.2712,15.3034,15.4,15.5253,15.645,15.7537,15.8679,15.9673,16.011,16.0273,16.051,16.059,16.055,16.0354,16.047,16.047,16.0394,16.0206,15.956,15.8684,15.819,15.716,15.6436,15.6014,15.5822,15.5597,15.5483,15.5405,15.5172,15.4527,15.4107,15.3763,15.3233,15.2474,15.2092,15.167,15.1435,15.1093,15.0679,15.0605,15.0568,15.0456,15.0418,15.0342,15.0189,15.0189,15.0189,15.0418,15.0302,14.9575,14.8768,14.743,14.6473,14.6084,14.5813,14.5915,14.5719,14.548,14.4627,14.3696,14.2529,14.1405,14.0529,13.938,13.7991,13.6634,13.5951,13.5384,13.5005,13.4889,13.4889,13.4434,13.3751,14.9998,15.0514,15.0733,15.0716,15.0752,15.0848,15.0391,14.9624,15.0325,15.0278,14.9642,15.0379,15.0741,15.0525,14.9936,14.9769,14.9744,14.9639,15.0336,15.1686,15.2042,15.2535,15.3585,15.3859,15.3766,15.3808,15.4203,15.4049,15.332,15.3512,15.3776,15.3693,15.3493,15.3495,15.3414,15.2369,15.1981,15.2306,15.1858,15.1862,15.2536,15.306,15.3399,15.3879,15.4774,15.5887,15.7066,15.8154,15.9279,16.0238,16.0746,16.0899,16.1012,16.1304,16.1411,16.1269,16.1012,16.0592,16.0517,16.025,15.9715,15.8951,15.8224,15.7533,15.6917,15.6523,15.6252,15.6105,15.5928,15.5746,15.5483,15.4645,15.4263,15.3616,15.2929,15.239,15.1964,15.1613,15.1369,15.1361,15.1063,15.089,15.0748,15.0715,15.0642,15.0493,15.0456,15.0493,15.0416,15.0487,15.0137,14.9362,14.8624,14.7282,14.6517,14.6092,14.6081,14.6179,14.586,14.5616,14.4651,14.3609,14.2781,14.1674,14.0838,13.9766,13.8266,13.7062,13.6266,13.5664,13.5366,13.5249,13.5201,13.4669,13.3915,15.0552,15.0733,15.1032,15.0738,15.0286,15.0415,15.0237,14.9905,15.0289,15.0517,15.0596,15.117,15.1436,15.0968,15.0401,15.0058,15.0008,14.984,15.0684,15.2051,15.2417,15.2845,15.3482,15.3813,15.3983,15.3796,15.3886,15.3857,15.3722,15.3776,15.3788,15.3469,15.3459,15.3351,15.3563,15.2769,15.2891,15.3422,15.3732,15.4185,15.4676,15.498,15.5076,15.4967,15.5702,15.6642,15.7646,15.8303,15.9525,16.0555,16.1232,16.134,16.1376,16.1481,16.1585,16.155,16.0916,16.0467,16.0391,16.0233,15.962,15.8813,15.7971,15.747,15.7036,15.672,15.6523,15.6423,15.6278,15.614,15.5882,15.5199,15.4516,15.3829,15.2947,15.2287,15.1888,15.1649,15.1441,15.1429,15.1494,15.1332,15.1199,15.1165,15.1063,15.089,15.089,15.0994,15.08,15.0596,14.9974,14.9121,14.8343,14.7379,14.6734,14.6275,14.6275,14.6216,14.5771,14.5295,14.4374,14.3453,14.2656,14.2029,14.1201,13.9941,13.8557,13.7716,13.6903,13.6259,13.565,13.549,13.5328,13.4618,13.3747,15.0716,15.0506,15.0829,15.0523,14.9935,15.0183,15.0136,14.9939,15.0669,15.1099,15.138,15.1995,15.1854,15.1123,15.0695,15.0416,14.9969,15.0102,15.1117,15.1999,15.2573,15.3134,15.3813,15.4063,15.3794,15.3244,15.4029,15.4046,15.3991,15.4066,15.412,15.3261,15.3955,15.3858,15.368,15.3795,15.4157,15.4608,15.54,15.5959,15.6238,15.6674,15.6602,15.6518,15.6733,15.7198,15.8114,15.8527,15.9549,16.0574,16.1508,16.172,16.172,16.1885,16.195,16.1796,16.1194,16.0502,16.0174,15.9725,15.9011,15.821,15.7587,15.717,15.6819,15.6622,15.6719,15.6751,15.6674,15.6578,15.6326,15.5822,15.4923,15.4014,15.3127,15.2414,15.1819,15.1697,15.1743,15.1894,15.1894,15.1804,15.1713,15.1682,15.1557,15.1332,15.1364,15.1462,15.111,15.0682,14.9914,14.9025,14.8012,14.7274,14.6967,14.6553,14.6523,14.6323,14.5827,14.5223,14.4433,14.3588,14.2818,14.2139,14.1475,14.0558,13.9409,13.8557,13.7614,13.6648,13.5766,13.569,13.5308,13.4633,13.3522,15.047,14.9765,14.9843,15.0076,15.0178,15.0295,15.0305,15.0525,15.18,15.2348,15.2333,15.2535,15.1803,15.1014,15.0878,15.0794,15.0438,15.1043,15.2144,15.2908,15.3277,15.3841,15.4344,15.4398,15.4189,15.4466,15.4652,15.4507,15.4509,15.5108,15.4899,15.4585,15.4824,15.5081,15.5209,15.5283,15.5652,15.611,15.6782,15.7097,15.7359,15.7657,15.7788,15.765,15.7465,15.7536,15.8414,15.8737,15.9403,16.0545,16.1533,16.2077,16.2108,16.2262,16.2351,16.2197,16.135,16.0656,16.0058,15.9061,15.8157,15.7663,15.7378,15.7076,15.6877,15.709,15.7179,15.7179,15.712,15.7073,15.6753,15.6231,15.5386,15.4586,15.3818,15.3034,15.2402,15.2,15.2039,15.2263,15.2263,15.2125,15.2068,15.201,15.1804,15.162,15.1589,15.1713,15.1175,15.0637,14.9899,14.893,14.7817,14.7154,14.7,14.6846,14.6875,14.6518,14.6035,14.545,14.4785,14.3911,14.265,14.234,14.1637,14.093,14.0171,13.9088,13.7984,13.6621,13.5902,13.5673,13.52,13.4435,13.3225,15.0012,14.9763,14.999,15.0143,15.0366,15.0812,15.1311,15.18,15.255,15.2857,15.2736,15.2063,15.1598,15.1426,15.1356,15.1694,15.21,15.2615,15.352,15.418,15.4638,15.4646,15.4755,15.4432,15.4135,15.4184,15.4654,15.5025,15.4724,15.5761,15.594,15.5824,15.5975,15.5728,15.5947,15.6684,15.7235,15.7657,15.8344,15.8947,15.9197,15.9444,15.9487,15.8991,15.8559,15.843,15.8841,15.9111,15.9779,16.0598,16.18,16.2197,16.241,16.2582,16.2638,16.2407,16.1403,16.0554,15.9986,15.899,15.8228,15.7689,15.7362,15.7208,15.7179,15.7351,15.7407,15.7407,15.7435,15.7385,15.7225,15.7015,15.6467,15.5514,15.4589,15.3742,15.3,15.2489,15.229,15.2475,15.2423,15.2317,15.2317,15.229,15.2068,15.1864,15.1894,15.1846,15.1308,15.0644,14.9827,14.9009,14.7861,14.7299,14.7095,14.7122,14.7175,14.6661,14.6147,14.5375,14.4653,14.3369,14.2343,14.2035,14.1752,14.1081,14.0253,13.9422,13.8282,13.7033,13.6207,13.5701,13.5069,13.4388,13.314,14.9763,15.001,15.0597,15.0741,15.0741,15.1451,15.2144,15.2751,15.3214,15.3274,15.2859,15.1956,15.1611,15.1954,15.2243,15.2563,15.3445,15.4101,15.4731,15.5108,15.5209,15.5007,15.4751,15.4499,15.4423,15.4162,15.4876,15.5542,15.5618,15.6691,15.7083,15.7234,15.7265,15.7371,15.7067,15.796,15.881,15.9259,15.973,16.043,16.0592,16.0784,16.089,16.012,15.9514,15.9176,15.9273,15.9492,15.9845,16.0733,16.1754,16.2539,16.2747,16.2774,16.2827,16.2235,16.1359,16.0277,15.9968,15.9037,15.8211,15.7589,15.7512,15.7462,15.7517,15.757,15.765,15.765,15.7701,15.7727,15.7727,15.7572,15.7109,15.613,15.5175,15.4326,15.3554,15.2963,15.2758,15.2626,15.2602,15.2651,15.2676,15.2651,15.2423,15.2159,15.2153,15.1921,15.1333,15.059,14.9796,14.8974,14.7998,14.7587,14.7304,14.7279,14.7099,14.6481,14.5913,14.5088,14.4186,14.3003,14.2284,14.2236,14.1878,14.1211,14.0417,13.9517,13.8485,13.7446,13.6783,13.6119,13.5024,13.4257,13.3359,14.9939,15.0452,15.1521,15.1731,15.1591,15.2284,15.2751,15.3279,15.3776,15.3642,15.3072,15.2676,15.2392,15.234,15.3027,15.3629,15.4381,15.5533,15.6033,15.5656,15.5599,15.5318,15.5131,15.4969,15.5227,15.5499,15.6296,15.6926,15.6958,15.8104,15.8652,15.8963,15.9191,15.9217,15.832,15.9394,16.0192,16.0553,16.0631,16.0823,16.112,16.1264,16.1397,16.1172,16.0137,15.96,15.9643,15.9847,16.0085,16.0477,16.2081,16.2905,16.3007,16.3177,16.3247,16.3115,16.1665,16.0758,16.0525,15.8653,15.7855,15.7623,15.7701,15.765,15.7623,15.7727,15.7901,15.7901,15.8043,15.8156,15.8178,15.8056,15.7454,15.6919,15.5972,15.5072,15.4323,15.355,15.3336,15.2919,15.291,15.2998,15.302,15.2998,15.2771,15.2577,15.2449,15.2011,15.1394,15.0674,14.9875,14.9026,14.8201,14.7738,14.7429,14.738,14.7071,14.6372,14.5725,14.4976,14.4095,14.309,14.2603,14.248,14.207,14.1637,14.0639,13.9665,13.8589,13.7513,13.7156,13.6488,13.5302,13.427,13.3428,15.0669,15.1521,15.2144,15.255,15.2884,15.3148,15.3538,15.3955,15.3856,15.358,15.31,15.2532,15.2669,15.313,15.3884,15.4684,15.5858,15.5728,15.6071,15.6601,15.6162,15.6018,15.5887,15.6081,15.6393,15.7167,15.8016,15.8478,15.8559,15.956,16.0058,16.0364,16.0441,16.04,16.005,16.0437,16.0785,16.0973,16.1083,16.1228,16.1576,16.171,16.1873,16.2016,16.0656,15.9924,16.0008,16.0225,16.0303,16.0586,16.2278,16.317,16.3247,16.3404,16.3404,16.3094,16.1775,16.028,15.9505,15.8244,15.812,15.8043,15.7996,15.7973,15.8043,15.8089,15.8134,15.8156,15.8243,15.8306,15.8243,15.8243,15.7868,15.7691,15.6949,15.6097,15.5322,15.447,15.3894,15.3352,15.3183,15.3105,15.3146,15.3167,15.302,15.2887,15.2771,15.2086,15.1365,15.0719,14.9916,14.9066,14.8293,14.7883,14.755,14.7348,14.6961,14.6259,14.5587,14.4936,14.4053,14.3168,14.2837,14.2561,14.2384,14.2052,14.0638,13.9247,13.8405,13.761,13.7303,13.6548,13.5259,13.4432,13.3892,15.1381,15.2212,15.2884,15.3393,15.3683,15.3547,15.3775,15.4122,15.3676,15.3391,15.3295,15.2981,15.3361,15.421,15.5056,15.5776,15.7172,15.7097,15.6978,15.7521,15.6932,15.687,15.6997,15.7309,15.7838,15.853,15.9257,15.9868,15.983,16.063,16.097,16.1043,16.1192,16.1151,16.1156,16.1156,16.1192,16.1404,16.1576,16.171,16.1969,16.2154,16.2381,16.2091,16.1226,16.0328,16.0586,16.0633,16.0676,16.1342,16.2308,16.3468,16.3489,16.353,16.3571,16.3125,16.2291,16.0835,15.9903,15.9592,15.9418,15.903,15.8621,15.8363,15.8285,15.8285,15.8327,15.8368,15.8408,15.8447,15.8467,15.8467,15.837,15.8214,15.7652,15.6778,15.5885,15.5031,15.4158,15.3635,15.3305,15.3305,15.3324,15.3247,15.3227,15.3146,15.3084,15.2235,15.1425,15.0752,14.9946,14.8917,14.8353,14.7944,14.7534,14.7257,14.6792,14.6142,14.5412,14.4682,14.383,14.2943,14.2767,14.2633,14.2246,14.157,14.0099,13.8879,13.8164,13.7757,13.758,13.6527,13.5149,13.4629,13.4284,15.214,15.2751,15.3731,15.3898,15.3796,15.3589,15.3562,15.364,15.3499,15.3474,15.3708,15.4283,15.4799,15.5385,15.69,15.7671,15.7839,15.8169,15.8236,15.8222,15.7829,15.7878,15.8186,15.8645,15.9067,15.9601,16.025,16.0704,16.0933,16.1187,16.1439,16.1542,16.1677,16.1776,16.1776,16.171,16.171,16.1905,16.2,16.2185,16.2497,16.2582,16.2747,16.2364,16.146,16.1093,16.121,16.1245,16.1366,16.2029,16.2967,16.3378,16.3707,16.3721,16.3902,16.364,16.2939,16.2067,16.1196,16.0946,16.0729,15.9963,15.9068,15.8601,15.8368,15.8467,15.8524,15.8579,15.8633,15.8719,15.8706,15.8768,15.8752,15.8408,15.7985,15.7174,15.6248,15.5376,15.4503,15.3941,15.3516,15.3361,15.3457,15.3475,15.3379,15.3324,15.3092,15.2199,15.1477,15.0851,14.9942,14.8484,14.8075,14.7976,14.7645,14.7236,14.6583,14.5928,14.5019,14.4208,14.3433,14.293,14.2892,14.2678,14.2058,14.1069,13.9787,13.8856,13.808,13.783,13.7848,13.6826,13.5529,13.5238,13.481,15.1505,15.2782,15.3018,15.3238,15.3654,15.3783,15.3712,15.3668,15.4483,15.4883,15.4574,15.5583,15.6175,15.7021,15.7566,15.8232,15.8609,15.8679,15.8677,15.8589,15.8569,15.8724,15.9144,15.9676,16.0169,16.0661,16.1146,16.1404,16.1542,16.171,16.1873,16.2139,16.2139,16.2292,16.2351,16.2322,16.2381,16.241,16.2468,16.2638,16.2801,16.288,16.3057,16.2736,16.1565,16.1422,16.1797,16.1415,16.1533,16.231,16.326,16.3739,16.3902,16.3935,16.3811,16.3127,16.2737,16.2348,16.157,16.1414,16.1352,16.0978,16.0074,15.928,15.8935,15.8702,15.8735,15.8752,15.8784,15.8846,15.8876,15.8876,15.8876,15.8628,15.8286,15.7804,15.6979,15.6107,15.5235,15.4176,15.3753,15.3486,15.3503,15.3486,15.3451,15.3434,15.3087,15.2215,15.1557,15.0938,14.991,14.8454,14.7989,14.7968,14.7658,14.7271,14.6458,14.5644,14.4733,14.3917,14.3429,14.3076,14.3111,14.2568,14.1636,14.0754,13.9715,13.8844,13.8113,13.8222,13.8159,13.7057,13.6122,13.5751,13.5068,15.1614,15.2602,15.2943,15.3249,15.3755,15.3885,15.3956,15.438,15.5148,15.546,15.5722,15.6631,15.7447,15.796,15.8547,15.9178,15.9697,15.9273,15.9328,15.9714,15.9219,15.9823,16.0274,16.061,16.0986,16.1431,16.1643,16.1743,16.1905,16.2031,16.2262,16.241,16.244,16.2554,16.2638,16.2693,16.2774,16.2801,16.2827,16.2906,16.3032,16.3153,16.3316,16.308,16.1803,16.1766,16.2466,16.1843,16.1897,16.2806,16.373,16.3951,16.4044,16.4087,16.4051,16.352,16.3481,16.326,16.2871,16.2676,16.2442,16.1962,16.1234,16.0363,15.9542,15.9124,15.8954,15.8876,15.8891,15.8905,15.8919,15.8947,15.8947,15.8947,15.8714,15.848,15.7674,15.6881,15.5762,15.4643,15.4054,15.3696,15.3586,15.357,15.3537,15.3442,15.2959,15.2182,15.1509,15.0972,14.9812,14.8417,14.8126,14.8067,14.7601,14.7058,14.6086,14.519,14.431,14.3645,14.3321,14.312,14.298,14.2124,14.1036,14.0147,13.9257,13.8854,13.8309,13.839,13.8376,13.7612,13.6689,13.6025,13.5198,15.2099,15.2279,15.321,15.3659,15.3985,15.3965,15.4516,15.5423,15.5695,15.5997,15.6797,15.7808,15.8452,15.8853,15.9479,15.9951,16.0157,15.9943,16.0136,16.0973,16.0462,16.0715,16.1167,16.1619,16.16,16.1776,16.1982,16.2108,16.217,16.2292,16.244,16.261,16.2638,16.272,16.2854,16.2982,16.3081,16.313,16.3153,16.3201,16.3247,16.336,16.3432,16.3359,16.2579,16.2011,16.2985,16.2893,16.227,16.3375,16.4014,16.4058,16.4156,16.4233,16.4202,16.4224,16.409,16.409,16.3934,16.3834,16.3611,16.3065,16.2342,16.1462,16.0557,15.9391,15.9039,15.8961,15.8975,15.8988,15.9001,15.9001,15.9014,15.9014,15.8936,15.8703,15.8222,15.7105,15.5755,15.4715,15.3972,15.3695,15.3665,15.3649,15.368,15.3478,15.2918,15.2062,15.1409,15.0894,14.9817,14.8504,14.8367,14.809,14.7296,14.6614,14.5715,14.4737,14.4006,14.3584,14.3486,14.3125,14.2749,14.1764,14.0765,13.9675,13.8831,13.8544,13.849,13.8513,13.8401,13.811,13.7455,13.6643,13.5541,15.1132,15.2322,15.3101,15.3533,15.3889,15.4774,15.5691,15.6786,15.764,15.79,15.8193,15.9047,15.9639,15.9923,16.0116,16.039,16.0398,16.0594,16.0859,16.112,16.1098,16.137,16.1743,16.195,16.2077,16.2154,16.2351,16.244,16.2497,16.2554,16.261,16.2774,16.2854,16.2982,16.3081,16.3224,16.3316,16.336,16.3489,16.3411,16.3432,16.3591,16.363,16.3505,16.2874,16.2862,16.3391,16.3157,16.3187,16.3903,16.4051,16.422,16.4323,16.4354,16.4364,16.4374,16.4383,16.4402,16.4402,16.4393,16.4168,16.3925,16.3204,16.2414,16.1282,15.9856,15.9105,15.9118,15.9208,15.922,15.9142,15.9154,15.9154,15.9076,15.9064,15.8831,15.8675,15.717,15.5664,15.486,15.4041,15.3794,15.3767,15.3767,15.378,15.3469,15.291,15.2132,15.1261,15.0596,14.9818,14.8748,14.8577,14.8188,14.724,14.6384,14.5558,14.4745,14.4008,14.3736,14.3552,14.2875,14.2186,14.1451,14.0459,13.9446,13.8842,13.8725,13.8665,13.8587,13.8596,13.8387,13.8099,13.7467,13.6273,15.1156,15.206,15.2937,15.356,15.417,15.5281,15.6417,15.7463,15.8431,15.9121,15.9425,15.9999,16.035,16.051,16.055,16.0668,16.0823,16.1123,16.1264,16.1439,16.172,16.1873,16.2031,16.2262,16.2333,16.2477,16.2616,16.2724,16.2776,16.2802,16.2879,16.3057,16.3153,16.3224,16.3316,16.3425,16.353,16.3551,16.3744,16.3799,16.3763,16.3816,16.3918,16.3687,16.3436,16.3492,16.3559,16.3403,16.3585,16.3999,16.428,16.4302,16.4374,16.4402,16.4411,16.4428,16.4452,16.4397,16.4468,16.4468,16.4475,16.4241,16.3672,16.2657,16.2445,16.1142,16.0288,16.021,16.0492,16.057,16.0013,15.9857,15.9446,15.9279,15.901,15.8753,15.8063,15.6906,15.5803,15.5113,15.4489,15.4278,15.4189,15.4111,15.3955,15.3609,15.2974,15.2116,15.1247,15.0288,14.9497,14.8939,14.8758,14.7941,14.6733,14.6137,14.5643,14.4811,14.4056,14.3856,14.3566,14.2517,14.161,14.1092,14.0416,13.9332,13.8809,13.876,13.8709,13.8709,13.8715,13.8727,13.8431,13.8138,13.7197,15.1788,15.205,15.3083,15.3913,15.4763,15.5735,15.6898,15.7981,15.8904,15.9904,16.0593,16.0513,16.0629,16.0707,16.0823,16.1049,16.1269,16.1446,16.1653,16.1808,16.2062,16.2215,16.2362,16.2582,16.267,16.2828,16.2955,16.3076,16.3147,16.317,16.3238,16.3404,16.3425,16.3425,16.351,16.3611,16.3726,16.3781,16.3902,16.3998,16.4014,16.4014,16.4087,16.3845,16.3609,16.3667,16.3886,16.3915,16.3837,16.4012,16.4402,16.4436,16.4452,16.4482,16.4482,16.4502,16.4527,16.4465,16.447,16.4548,16.4562,16.4331,16.3601,16.3283,16.3064,16.2658,16.1672,16.1486,16.1775,16.135,16.0795,16.0376,15.9888,15.94,15.8967,15.8554,15.7641,15.6717,15.6026,15.5345,15.4975,15.47,15.47,15.4553,15.431,15.3883,15.3015,15.2157,15.1211,15.0178,14.9221,14.8977,14.8888,14.783,14.6638,14.6105,14.5837,14.4923,14.4164,14.394,14.35,14.2374,14.1626,14.1172,14.0328,13.9261,13.8816,13.8758,13.8772,13.8788,13.8791,13.8798,13.8731,13.8349,13.7963,15.2687,15.3503,15.402,15.4882,15.5946,15.6905,15.8022,15.9102,15.9943,16.0708,16.0894,16.1083,16.1123,16.0974,16.1123,16.1304,16.1446,16.1687,16.1885,16.2077,16.2322,16.2449,16.2643,16.288,16.3081,16.3147,16.3304,16.339,16.3453,16.3513,16.3533,16.3572,16.365,16.3688,16.3763,16.3834,16.3868,16.3951,16.4073,16.4156,16.417,16.417,16.417,16.4089,16.4157,16.4198,16.4305,16.4227,16.4255,16.4366,16.4418,16.4527,16.4548,16.4553,16.4557,16.4488,16.4503,16.4506,16.4509,16.4512,16.4597,16.4595,16.4034,16.3878,16.3803,16.3878,16.3156,16.2678,16.2574,16.1665,16.101,16.0743,16.0336,15.9615,15.905,15.8494,15.7792,15.7022,15.6251,15.5636,15.5177,15.5195,15.5351,15.5359,15.5539,15.4821,15.3495,15.2636,15.1614,15.0349,14.9005,14.8919,14.8988,14.8442,14.7574,14.6698,14.617,14.5174,14.4255,14.3967,14.3372,14.2227,14.1543,14.1247,14.0251,13.9097,13.8876,13.8731,13.8818,13.8824,13.8826,13.8827,13.875,13.8669,13.8277]}]]